[[{"header":{"parameterUnit":"m.s-1","parameterCategory":1,"la1":30.6,"la2":28.766,"lo1":-90.7593,"lo2":-88.6598,"dy":0.0162,"dx":0.0183,"nx":116,"ny":114,"refTime":"2023-05-31T12:00:00:Z","depth":0,"parameterNumber":2,"parameterNumberName":"U-component_of_WINDS"},"data":[0.0,0.0,0.0,0.0,0.0,0.0,0.0,0.0,0.0,0.0,0.0,0.0,0.0,0.0,0.0,0.0,0.0,0.0,0.0,0.0,0.0,0.0,0.0,0.0,0.0,0.0,0.0,0.0,0.0,0.0,0.0,0.0,0.0,0.0,0.0,0.0,0.0,0.0,0.0,0.0,0.0,0.0,0.0,0.0,0.0,0.0,0.0,0.0,0.0,0.0,0.0,0.0,0.0,0.0,0.0,0.0,0.0,0.0,0.0,0.0,0.0,0.0,0.0,0.0,0.0,0.0,0.0,0.0,0.0,0.0,0.0,0.0,0.0,0.0,0.0,0.0,0.0,0.0,0.0,0.0,0.0,0.0,0.0,0.0,0.0,0.0,0.0,0.0,0.0,0.0,0.0,0.0,0.0,0.0,0.0,0.0,0.0,0.0,0.0,0.0,0.0,0.0,0.0,0.0,0.0,0.0,0.0,0.0,0.0,0.0,0.0,0.0,0.0,0.0,0.0,0.0,0.0,0.0,0.0,0.0,0.0,0.0,0.0,0.0,0.0,0.0,0.0,0.0,0.0,0.0,0.0,0.0,0.0,0.0,0.0,0.0,0.0,0.0,0.0,0.0,0.0,0.0,0.0,0.0,0.0,0.0,0.0,0.0,0.0,0.0,0.0,0.0,0.0,0.0,0.0,0.0,0.0,0.0,0.0,0.0,0.0,0.0,0.0,0.0,0.0,0.0,0.0,0.0,0.0,0.0,0.0,0.0,0.0,0.0,0.0,0.0,0.0,0.0,0.0,0.0,0.0,0.0,0.0,0.0,0.0,0.0,0.0,0.0,0.0,0.0,0.0,0.0,0.0,0.0,0.0,0.0,0.0,0.0,0.0,0.0,0.0,0.0,0.0,0.0,0.0,0.0,0.0,0.0,0.0,0.0,0.0,0.0,0.0,0.0,0.0,0.0,0.0,0.0,0.0,0.0,0.0,0.0,0.0,0.0,0.0,0.0,0.0,0.0,0.0,0.0,0.0,0.0,0.0,0.0,0.0,0.0,0.0,0.0,0.0,0.0,0.0,0.0,0.0,0.0,0.0,0.0,0.0,0.0,0.0,0.0,0.0,0.0,0.0,0.0,0.0,0.0,0.0,0.0,0.0,0.0,0.0,0.0,0.0,0.0,0.0,0.0,0.0,0.0,0.0,0.0,0.0,0.0,0.0,0.0,0.0,0.0,0.0,0.0,0.0,0.0,0.0,0.0,0.0,0.0,0.0,0.0,0.0,0.0,0.0,0.0,0.0,0.0,0.0,0.0,0.0,0.0,0.0,0.0,0.0,0.0,0.0,0.0,0.0,0.0,0.0,0.0,0.0,0.0,0.0,0.0,0.0,0.0,0.0,0.0,0.0,0.0,0.0,0.0,0.0,0.0,0.0,0.0,0.0,0.0,0.0,0.0,0.0,0.0,0.0,0.0,0.0,0.0,0.0,0.0,0.0,0.0,0.0,0.0,0.0,0.0,0.0,0.0,0.0,0.0,0.0,0.0,0.0,0.0,0.0,0.0,0.0,0.0,0.0,0.0,0.0,0.0,0.0,0.0,0.0,0.0,0.0,0.0,0.0,0.0,0.0,0.0,0.0,0.0,0.0,0.0,0.0,0.0,0.0,0.0,0.0,0.0,0.0,0.0,0.0,0.0,0.0,0.0,0.0,0.0,0.0,0.0,0.0,0.0,0.0,0.0,0.0,0.0,0.0,0.0,0.0,0.0,0.0,0.0,0.0,0.0,0.0,0.0,0.0,0.0,0.0,0.0,0.0,0.0,0.0,0.0,0.0,0.0,0.0,0.0,0.0,0.0,0.0,0.0,0.0,0.0,0.0,0.0,0.0,0.0,0.0,0.0,0.0,0.0,0.0,0.0,0.0,0.0,0.0,0.0,0.0,0.0,0.0,0.0,0.0,0.0,0.0,0.0,0.0,0.0,0.0,0.0,0.0,0.0,0.0,0.0,0.0,0.0,0.0,0.0,0.0,0.0,0.0,0.0,0.0,0.0,0.0,0.0,0.0,0.0,0.0,0.0,0.0,0.0,0.0,0.0,0.0,0.0,0.0,0.0,0.0,0.0,0.0,0.0,0.0,0.0,0.0,0.0,0.0,0.0,0.0,0.0,0.0,0.0,0.0,0.0,0.0,0.0,0.0,0.0,0.0,0.0,0.0,0.0,0.0,0.0,0.0,0.0,0.0,0.0,0.0,0.0,0.0,0.0,0.0,0.0,0.0,0.0,0.0,0.0,0.0,0.0,0.0,0.0,0.0,0.0,0.0,0.0,0.0,0.0,0.0,0.0,0.0,0.0,0.0,0.0,0.0,0.0,0.0,0.0,0.0,0.0,0.0,0.0,0.0,0.0,0.0,0.0,0.0,0.0,0.0,0.0,0.0,0.0,0.0,0.0,0.0,0.0,0.0,0.0,0.0,0.0,0.0,0.0,0.0,0.0,0.0,0.0,0.0,0.0,0.0,0.0,0.0,0.0,0.0,0.0,0.0,0.0,0.0,0.0,0.0,0.0,0.0,0.0,0.0,0.0,0.0,0.0,0.0,0.0,0.0,0.0,0.0,0.0,0.0,0.0,0.0,0.0,0.0,0.0,0.0,0.0,0.0,0.0,0.0,0.0,0.0,0.0,0.0,0.0,0.0,0.0,0.0,0.0,0.0,0.0,0.0,0.0,0.0,0.0,0.0,0.0,0.0,0.0,0.0,0.0,0.0,0.0,0.0,0.0,0.0,0.0,0.0,0.0,0.0,0.0,0.0,0.0,0.0,0.0,0.0,0.0,0.0,0.0,0.0,0.0,0.0,0.0,0.0,0.0,0.0,0.0,0.0,0.0,0.0,0.0,0.0,0.0,0.0,0.0,0.0,0.0,0.0,0.0,0.0,0.0,0.0,0.0,0.0,0.0,0.0,0.0,0.0,0.0,0.0,0.0,0.0,0.0,0.0,0.0,0.0,0.0,0.0,0.0,0.0,0.0,0.0,0.0,0.0,0.0,0.0,0.0,0.0,0.0,0.0,0.0,0.0,0.0,0.0,0.0,0.0,0.0,0.0,0.0,0.0,0.0,0.0,0.0,0.0,0.0,0.0,0.0,0.0,0.0,0.0,0.0,0.0,0.0,0.0,0.0,0.0,0.0,0.0,0.0,0.0,0.0,0.0,0.0,0.0,0.0,0.0,0.0,0.0,0.0,0.0,0.0,0.0,0.0,0.0,0.0,0.0,0.0,0.0,0.0,0.0,0.0,0.0,0.0,0.0,0.0,0.0,0.0,0.0,0.0,0.0,0.0,0.0,0.0,0.0,0.0,0.0,0.0,0.0,0.0,0.0,0.0,0.0,0.0,0.0,0.0,0.0,0.0,0.0,0.0,0.0,0.0,0.0,0.0,0.0,0.0,0.0,0.0,0.0,0.0,0.0,0.0,0.0,0.0,0.0,0.0,0.0,0.0,0.0,0.0,0.0,0.0,0.0,0.0,0.0,0.0,0.0,0.0,0.0,0.0,0.0,0.0,0.0,0.0,0.0,0.0,0.0,0.0,0.0,0.0,0.0,0.0,0.0,0.0,0.0,0.0,0.0,0.0,0.0,0.0,0.0,0.0,0.0,0.0,0.0,0.0,0.0,0.0,0.0,0.0,0.0,0.0,0.0,0.0,0.0,0.0,0.0,0.0,0.0,0.0,0.0,0.0,0.0,0.0,0.0,0.0,0.0,0.0,0.0,0.0,0.0,0.0,0.0,0.0,0.0,0.0,0.0,0.0,0.0,0.0,0.0,0.0,0.0,0.0,0.0,0.0,0.0,0.0,0.0,0.0,0.0,0.0,0.0,0.0,0.0,0.0,0.0,0.0,0.0,0.0,0.0,0.0,0.0,0.0,0.0,0.0,0.0,0.0,0.0,0.0,0.0,0.0,0.0,0.0,0.0,0.0,0.0,0.0,0.0,0.0,0.0,0.0,0.0,0.0,0.0,0.0,0.0,0.0,0.0,0.0,0.0,0.0,0.0,0.0,0.0,0.0,0.0,0.0,0.0,0.0,0.0,0.0,0.0,0.0,0.0,0.0,0.0,0.0,0.0,0.0,0.0,0.0,0.0,0.0,0.0,0.0,0.0,0.0,0.0,0.0,0.0,0.0,0.0,0.0,0.0,0.0,0.0,0.0,0.0,0.0,0.0,0.0,0.0,0.0,0.0,0.0,0.0,0.0,0.0,0.0,0.0,0.0,0.0,0.0,0.0,0.0,0.0,0.0,0.0,0.0,0.0,0.0,0.0,0.0,0.0,0.0,0.0,0.0,0.0,0.0,0.0,0.0,0.0,0.0,0.0,0.0,0.0,0.0,0.0,0.0,0.0,0.0,0.0,0.0,0.0,0.0,0.0,0.0,0.0,0.0,0.0,0.0,0.0,0.0,0.0,0.0,0.0,0.0,0.0,0.0,0.0,0.0,0.0,0.0,0.0,0.0,0.0,0.0,0.0,0.0,0.0,0.0,0.0,0.0,0.0,0.0,0.0,0.0,0.0,0.0,0.0,0.0,0.0,0.0,0.0,0.0,0.0,0.0,0.0,0.0,0.0,0.0,0.0,0.0,0.0,0.0,0.0,0.0,0.0,0.0,0.0,0.0,0.0,0.0,0.0,0.0,0.0,0.0,0.0,0.0,0.0,0.0,0.0,0.0,0.0,0.0,0.0,0.0,0.0,0.0,0.0,0.0,0.0,0.0,0.0,0.0,0.0,0.0,0.0,0.0,0.0,0.0,0.0,0.0,0.0,0.0,0.0,0.0,0.0,0.0,0.0,0.0,0.0,0.0,0.0,0.0,0.0,0.0,0.0,0.0,0.0,0.0,0.0,0.0,0.0,0.0,0.0,0.0,0.0,0.0,0.0,0.0,0.0,0.0,0.0,0.0,0.0,0.0,0.0,0.0,0.0,0.0,0.0,0.0,0.0,0.0,0.0,0.0,0.0,0.0,0.0,0.0,0.0,0.0,0.0,0.0,0.0,0.0,0.0,0.0,0.0,0.0,0.0,0.0,0.0,0.0,0.0,0.0,0.0,0.0,0.0,0.0,0.0,0.0,0.0,0.0,0.0,0.0,0.0,0.0,0.0,0.0,0.0,0.0,0.0,0.0,0.0,0.0,0.0,0.0,0.0,0.0,0.0,0.0,0.0,0.0,0.0,0.0,0.0,0.0,0.0,0.0,0.0,0.0,0.0,0.0,0.0,0.0,0.0,0.0,0.0,0.0,0.0,0.0,0.0,0.0,0.0,0.0,0.0,0.0,0.0,0.0,0.0,0.0,0.0,0.0,0.0,0.0,0.0,0.0,0.0,0.0,0.0,0.0,0.0,0.0,0.0,0.0,0.0,0.0,0.0,0.0,0.0,0.0,0.0,0.0,0.0,0.0,0.0,0.0,0.0,0.0,0.0,0.0,0.0,0.0,0.0,0.0,0.0,0.0,0.0,0.0,0.0,0.0,0.0,0.0,0.0,0.0,0.0,0.0,0.0,0.0,0.0,0.0,0.0,0.0,0.0,0.0,0.0,0.0,0.0,0.0,0.0,0.0,0.0,0.0,0.0,0.0,0.0,0.0,0.0,0.0,0.0,0.0,0.0,0.0,0.0,0.0,0.0,0.0,0.0,0.0,0.0,0.0,0.0,0.0,0.0,0.0,0.0,0.0,0.0,0.0,0.0,0.0,0.0,0.0,0.0,0.0,0.0,0.0,0.0,0.0,0.0,0.0,0.0,0.0,0.0,0.0,0.0,0.0,0.0,0.0,0.0,0.0,0.0,0.0,0.0,0.0,0.0,0.0,0.0,0.0,0.0,0.0,0.0,0.0,0.0,0.0,0.0,0.0,0.0,0.0,0.0,0.0,0.0,0.0,0.0,0.0,0.0,0.0,0.0,0.0,0.0,0.0,0.0,0.0,0.0,0.0,0.0,0.0,0.0,0.0,0.0,0.0,0.0,0.0,0.0,0.0,0.0,0.0,0.0,0.0,0.0,0.0,0.0,0.0,0.0,0.0,0.0,0.0,0.0,0.0,0.0,0.0,0.0,0.0,0.0,0.0,0.0,0.0,0.0,0.0,-2.0031,0.0,0.0,0.0,0.0,0.0,0.0,0.0,0.0,0.0,0.0,0.0,0.0,0.0,0.0,0.0,0.0,0.0,0.0,0.0,0.0,0.0,0.0,0.0,0.0,0.0,0.0,0.0,0.0,0.0,0.0,0.0,0.0,0.0,0.0,0.0,0.0,0.0,0.0,-1.0508,-1.0656,-1.1025,-1.1634,-1.1577,-1.1368,-1.1025,0.0,0.0,0.0,0.0,0.0,0.0,0.0,0.0,0.0,0.0,0.0,0.0,0.0,0.0,0.0,0.0,0.0,0.0,0.0,0.0,0.0,0.0,0.0,0.0,0.0,0.0,0.0,0.0,0.0,0.0,0.0,0.0,0.0,0.0,0.0,0.0,0.0,0.0,0.0,0.0,0.0,0.0,0.0,0.0,0.0,0.0,0.0,0.0,0.0,0.0,0.0,0.0,0.0,0.0,0.0,0.0,0.0,0.0,0.0,0.0,0.0,0.0,0.0,0.0,0.0,0.0,0.0,0.0,0.0,0.0,0.0,-2.0555,0.0,0.0,0.0,0.0,0.0,0.0,0.0,0.0,0.0,0.0,0.0,0.0,0.0,0.0,0.0,0.0,0.0,0.0,0.0,0.0,0.0,0.0,0.0,-0.3993,-0.4519,-0.5325,-0.5681,-0.5873,0.0,0.0,0.0,0.0,0.0,0.0,-0.9588,-1.0028,-1.0339,-1.0501,-1.1065,-1.1685,-1.2375,-1.2357,-1.2043,-1.1454,-1.0754,0.0,0.0,0.0,0.0,0.0,0.0,0.0,0.0,0.0,0.0,0.0,0.0,0.0,0.0,0.0,0.0,0.0,0.0,0.0,0.0,0.0,0.0,0.0,0.0,0.0,0.0,0.0,0.0,0.0,0.0,0.0,0.0,0.0,0.0,0.0,0.0,0.0,0.0,0.0,0.0,0.0,0.0,0.0,0.0,0.0,0.0,0.0,0.0,0.0,0.0,0.0,0.0,0.0,0.0,0.0,0.0,0.0,0.0,0.0,0.0,0.0,0.0,0.0,-2.5013,-2.5392,-2.5434,-2.5974,-2.5835,-2.503,-2.3271,-2.2129,-2.1458,0.0,0.0,0.0,0.0,0.0,0.0,0.0,0.0,0.0,0.0,0.0,0.0,0.0,0.0,0.0,0.0,0.0,0.0,0.0,0.0,-0.31,-0.3855,-0.4546,-0.516,-0.5681,-0.5973,-0.6154,-0.6154,0.0,0.0,0.0,0.0,-0.904,-0.9588,-0.9666,-0.9809,-1.0076,-1.1518,-1.2654,-1.3491,-1.4012,-1.4079,-1.3683,-1.1652,-1.1429,-1.2523,0.0,0.0,0.0,0.0,0.0,0.0,0.0,0.0,0.0,0.0,0.0,0.0,0.0,0.0,0.0,0.0,0.0,0.0,0.0,0.0,0.0,0.0,0.0,0.0,0.0,0.0,0.0,0.0,0.0,0.0,0.0,0.0,0.0,0.0,0.0,0.0,0.0,0.0,0.0,0.0,0.0,-2.0292,-1.9721,0.0,0.0,0.0,0.0,0.0,0.0,0.0,0.0,0.0,0.0,0.0,0.0,0.0,0.0,-2.5077,-2.6346,-2.7048,-2.7154,-2.8309,-2.8596,-2.8187,-2.8262,-2.8231,-2.8106,-2.7296,0.0,-2.2951,-2.187,0.0,0.0,0.0,0.0,0.0,0.0,0.0,0.0,0.0,0.0,0.0,0.0,0.0,0.0,0.0,0.0,0.0,0.0,0.0,0.0,0.0,-0.5174,-0.592,-0.6211,-0.6972,-0.722,-0.6679,-0.7526,0.0,0.0,-0.8659,-0.9133,-0.9588,-0.9743,-1.0128,-1.0724,-1.2475,-1.3549,-1.4063,-1.496,-1.5403,-1.5368,-1.3841,-1.3202,-1.3179,-1.2358,0.0,0.0,0.0,0.0,0.0,0.0,0.0,0.0,0.0,0.0,0.0,0.0,0.0,0.0,0.0,0.0,0.0,0.0,0.0,0.0,0.0,0.0,0.0,0.0,0.0,0.0,0.0,0.0,0.0,0.0,0.0,0.0,0.0,0.0,0.0,0.0,0.0,0.0,0.0,-1.9918,-2.0177,-1.8851,-2.0898,-2.2076,0.0,0.0,0.0,0.0,0.0,0.0,0.0,0.0,0.0,-2.5407,-2.632,-2.6961,-2.7366,-2.8809,-2.9744,-3.0183,-3.1011,-3.1427,-3.1442,-3.1306,-3.1062,-3.0725,-3.0018,-2.8458,-2.6282,-2.4292,-2.2658,-2.1406,0.0,0.0,0.0,0.0,-2.066,-2.0999,0.0,0.0,0.0,0.0,0.0,0.0,0.0,0.0,0.0,0.0,0.0,0.0,-0.465,-0.575,-0.6587,-0.7031,-0.7857,-0.8058,-0.7355,-0.7962,-0.8386,-0.8394,-0.8593,-0.8997,-0.9588,-0.9977,-1.0705,-1.1726,-1.3347,-1.4462,-1.5081,-1.6194,-1.6911,-1.7252,-1.6547,-1.5675,-1.4683,-1.3398,-1.3107,-1.3424,0.0,0.0,0.0,0.0,0.0,0.0,0.0,0.0,0.0,0.0,0.0,0.0,0.0,0.0,0.0,0.0,0.0,0.0,0.0,0.0,0.0,0.0,0.0,0.0,0.0,0.0,0.0,0.0,0.0,0.0,0.0,0.0,0.0,0.0,0.0,0.0,0.0,-1.9921,-2.0097,-1.8394,-2.0848,-2.2156,0.0,0.0,0.0,0.0,0.0,0.0,-2.463,-2.5561,-2.6464,-2.7378,-2.9021,-2.9868,-2.9868,-3.134,-3.2367,-3.2979,-3.3635,-3.4101,-3.4323,-3.397,-3.3459,-3.2736,-3.2026,-3.0898,-2.9303,-2.6643,-2.4411,-2.2625,-2.196,-2.1421,-2.1013,-2.0911,-2.1316,-2.1791,0.0,0.0,0.0,0.0,0.0,0.0,0.0,0.0,0.0,0.0,0.0,-0.4056,-0.5239,-0.6186,-0.7181,-0.8209,-0.8249,-0.8192,-0.8149,-0.7533,-0.7549,-0.8368,-0.8114,-0.8472,-0.9588,-1.0306,-1.1402,-1.2906,-1.397,-1.5391,-1.7161,-1.8188,-1.8998,-1.9616,-1.9575,-1.8945,-1.772,-1.537,-1.5223,-1.6393,-1.4573,0.0,0.0,0.0,0.0,0.0,0.0,0.0,0.0,0.0,0.0,0.0,0.0,0.0,0.0,0.0,0.0,0.0,0.0,0.0,0.0,0.0,0.0,0.0,0.0,0.0,0.0,0.0,0.0,0.0,0.0,0.0,0.0,0.0,0.0,0.0,0.0,0.0,0.0,-1.8905,-2.132,0.0,0.0,0.0,0.0,-2.4454,-2.5251,-2.6532,-2.8411,-2.8594,-2.9483,-3.1458,-3.1613,-3.2355,-3.382,-3.4579,-3.5094,-3.5327,-3.6299,-3.6642,-3.6325,-3.5807,-3.4934,-3.3783,-3.3306,-3.2378,-3.0956,-2.8164,-2.6268,-2.4986,-2.3565,-2.3314,-2.3678,-2.2745,-2.2551,-2.262,0.0,0.0,0.0,0.0,0.0,0.0,0.0,0.0,-0.283,-0.2891,-0.3684,-0.4674,-0.5794,-0.703,-0.8135,-0.909,-0.9232,-0.9034,-0.842,-0.786,-0.7869,-0.862,-0.8408,-0.8897,-1.0201,-1.0963,-1.2038,-1.346,-1.5425,-1.6948,-1.8171,-1.9479,-2.0419,-2.1052,-2.0452,-2.0526,-2.0924,-1.781,-1.68,-1.7094,-1.5274,-1.4787,0.0,0.0,0.0,0.0,0.0,0.0,0.0,0.0,0.0,0.0,0.0,0.0,0.0,0.0,0.0,0.0,0.0,0.0,0.0,0.0,0.0,0.0,0.0,0.0,0.0,0.0,0.0,0.0,0.0,0.0,0.0,0.0,0.0,0.0,0.0,0.0,0.0,-2.2999,-2.5589,0.0,-2.4611,-2.5248,-2.6391,-2.7801,-2.8021,-2.9004,-3.1134,-3.2031,-3.2922,-3.3882,-3.4795,-3.5355,-3.549,-3.5945,-3.6267,-3.6486,-3.6691,-3.6965,-3.7167,-3.5687,-3.4674,-3.3992,-3.3331,-3.1908,-3.0036,-2.9759,-2.8419,-2.6395,-2.4523,-2.3987,-2.4089,-2.2829,-2.32,-2.3984,0.0,0.0,0.0,0.0,0.0,0.0,0.0,0.0,-0.2942,-0.3054,-0.3789,-0.4752,-0.5891,-0.7001,-0.8196,-0.9489,-0.937,-0.9021,-0.8645,-0.7957,-0.779,-0.8304,-0.8838,-0.9591,-1.0546,-1.1844,-1.2987,-1.4021,-1.6163,-1.7669,-1.8554,-1.9887,-2.0926,-2.1675,-2.1271,-2.1811,-2.2777,-2.0245,-1.908,-1.8726,-1.7027,-1.6716,-1.7063,0.0,0.0,0.0,0.0,0.0,0.0,0.0,0.0,0.0,0.0,0.0,0.0,0.0,0.0,0.0,0.0,0.0,0.0,0.0,0.0,0.0,0.0,0.0,0.0,0.0,0.0,0.0,0.0,0.0,0.0,0.0,0.0,0.0,0.0,0.0,-2.5276,-2.5308,-2.762,-2.8492,-2.6767,-2.7337,-2.8402,-2.9834,-3.0061,-3.1127,-3.3306,-3.4255,-3.496,-3.5504,-3.6412,-3.6776,-3.6512,-3.6547,-3.6791,-3.7279,-3.697,-3.6901,-3.6966,-3.5633,-3.4389,-3.3243,-3.2798,-3.1515,-2.9733,-3.0254,-2.939,-2.7537,-2.5585,-2.4984,-2.5002,-2.3558,-2.3853,-2.4689,0.0,0.0,0.0,0.0,0.0,0.0,-0.2663,-0.2891,-0.3026,-0.336,-0.3588,-0.4236,-0.5569,-0.6131,-0.7256,-0.9396,-0.8514,-0.8115,-0.8838,-0.776,-0.7189,-0.744,-0.9357,-1.0492,-1.0602,-1.2897,-1.4312,-1.4639,-1.6145,-1.7371,-1.8454,-1.9461,-2.0506,-2.1571,-2.2186,-2.277,-2.3183,-2.258,-2.2087,-2.154,-1.9891,-1.981,-2.0412,0.0,0.0,0.0,0.0,0.0,0.0,0.0,0.0,0.0,0.0,0.0,0.0,0.0,0.0,0.0,0.0,0.0,0.0,0.0,0.0,0.0,0.0,0.0,0.0,0.0,0.0,0.0,0.0,0.0,0.0,0.0,0.0,0.0,-2.2951,-2.4706,-2.5876,-2.5616,-2.7191,-2.7757,-2.6511,-2.7613,-2.8973,-3.0407,-3.1345,-3.2815,-3.4974,-3.5159,-3.5531,-3.6236,-3.627,-3.6478,-3.6845,-3.6512,-3.6801,-3.7774,-3.7229,-3.6613,-3.596,-3.5711,-3.4175,-3.1678,-3.178,-3.1219,-3.0234,-2.9662,-2.9089,-2.8393,-2.6742,-2.6352,-2.6514,-2.5035,-2.4617,-2.4575,0.0,0.0,0.0,0.0,0.0,0.0,-0.21,-0.2715,-0.3132,-0.3355,-0.3819,-0.46,-0.5839,-0.6322,-0.7379,-0.9415,-0.8421,-0.7996,-0.8838,-0.7458,-0.7195,-0.856,-1.0174,-1.1558,-1.2657,-1.3897,-1.4951,-1.5749,-1.7244,-1.8252,-1.887,-1.9869,-2.0909,-2.2027,-2.2149,-2.2757,-2.3681,-2.318,-2.3248,-2.3467,-2.0958,-2.047,-2.1059,0.0,0.0,0.0,0.0,0.0,0.0,0.0,0.0,0.0,0.0,0.0,0.0,0.0,0.0,0.0,0.0,0.0,0.0,0.0,0.0,0.0,0.0,0.0,0.0,0.0,0.0,0.0,0.0,0.0,0.0,0.0,0.0,-2.5464,-2.5457,-2.6843,-2.8295,-2.9483,-3.0991,-3.1638,-3.0891,-3.1694,-3.2509,-3.3194,-3.3477,-3.401,-3.4902,-3.4974,-3.4987,-3.5002,-3.5505,-3.5759,-3.5674,-3.6397,-3.6836,-3.6989,-3.6564,-3.663,-3.7057,-3.4871,-3.3703,-3.3366,-3.2582,-3.117,-2.9485,-3.004,-2.9082,-2.7232,-2.6688,-2.6507,-2.6371,-2.4967,-2.4179,-2.3733,0.0,0.0,0.0,0.0,0.0,0.0,-0.193,-0.2519,-0.2993,-0.3444,-0.397,-0.4574,-0.5361,-0.5727,-0.6557,-0.8122,-0.7454,-0.7259,-0.7901,-0.7157,-0.7416,-0.9036,-1.0791,-1.2257,-1.326,-1.4688,-1.566,-1.6146,-1.7322,-1.8129,-1.8557,-1.9584,-2.0623,-2.1648,-2.2151,-2.301,-2.4,-2.366,-2.3854,-2.431,-2.2631,-2.2498,-2.3144,-2.1135,-2.0605,-2.07,-1.9397,-1.9535,-2.0101,-1.8761,0.0,0.0,0.0,0.0,0.0,0.0,0.0,0.0,0.0,0.0,0.0,0.0,0.0,0.0,0.0,0.0,0.0,0.0,0.0,0.0,0.0,0.0,0.0,0.0,-2.639,-2.7798,-2.8529,-2.9115,-2.9981,-3.1369,-3.2555,-3.3001,-3.2415,-3.3087,-3.3482,-3.3362,-3.3427,-3.3529,-3.3742,-3.3835,-3.3954,-3.4125,-3.4871,-3.5307,-3.5342,-3.6171,-3.6716,-3.6954,-3.6124,-3.5803,-3.5936,-3.4055,-3.2879,0.0,-3.193,-3.0766,-2.9166,-2.968,-2.8514,0.0,0.0,0.0,0.0,0.0,-2.4124,-2.3888,0.0,0.0,0.0,0.0,0.0,0.0,-0.1877,-0.2296,-0.2747,-0.3416,-0.3949,-0.4306,-0.4454,-0.4735,-0.5331,-0.6297,-0.6146,-0.6155,-0.6549,-0.7012,-0.7848,-0.9165,-1.1216,-1.2634,-1.3204,-1.5318,-1.6385,-1.6277,-1.7049,-1.7641,-1.8062,-1.9057,-1.9991,-2.0866,-2.2126,-2.3284,-2.4202,-2.4002,-2.4138,-2.453,-2.4483,-2.496,-2.5501,-2.3401,-2.2657,-2.2586,-2.1096,-2.0502,-2.0462,-2.0607,0.0,0.0,0.0,0.0,0.0,0.0,0.0,0.0,0.0,0.0,0.0,0.0,0.0,0.0,0.0,0.0,0.0,0.0,0.0,0.0,0.0,0.0,0.0,0.0,-2.8543,-2.9947,-3.1604,-3.1347,-3.1275,-3.2022,-3.2703,-3.2837,-3.2177,-3.2832,-3.2954,-3.2064,-3.2163,-3.2191,-3.2062,0.0,0.0,0.0,0.0,-3.4809,-3.5248,-3.5821,-3.6429,-3.7099,-3.5764,-3.472,-3.397,-3.3297,-3.1985,-3.0211,-3.0733,-3.0307,-2.9228,-2.9042,-2.7812,-2.5995,-2.5829,-2.5255,-2.4433,-2.407,-2.4201,-2.4471,0.0,0.0,0.0,0.0,0.0,0.0,-0.0925,-0.1849,-0.2603,-0.285,-0.3525,-0.4019,-0.417,-0.4338,-0.4974,-0.6298,-0.5673,-0.5568,-0.6386,-0.7559,-0.8742,-0.9867,-1.1289,-1.2804,-1.4431,-1.5836,-1.6857,-1.7486,-1.8384,-1.8845,-1.8974,-1.9454,-2.007,-2.0858,-2.1715,-2.2896,-2.4197,-2.4018,-2.4586,-2.548,-2.5126,-2.4857,-2.466,-2.4495,-2.4716,-2.4998,-2.3755,-2.4536,-2.5851,-2.3987,-2.3918,-2.4301,-2.214,-2.0449,0.0,0.0,0.0,0.0,0.0,0.0,0.0,0.0,0.0,0.0,0.0,0.0,0.0,0.0,0.0,0.0,0.0,0.0,0.0,-2.7532,-2.91,-3.074,-3.2764,-3.2928,-3.2836,-3.2718,-3.3395,-3.3551,-3.2871,-3.3495,-3.3383,-3.2098,-3.2018,-3.1771,-3.1167,-3.1174,0.0,-3.1496,-3.2279,-3.3059,-3.3802,-3.4912,-3.5683,-3.6092,0.0,0.0,-3.5114,-3.2854,-3.2094,-3.2492,-3.1728,-3.0643,-2.945,-2.9467,-2.8297,-2.6353,-2.4476,-2.3791,-2.3773,-2.3517,-2.3649,-2.385,0.0,0.0,0.0,0.0,0.0,0.0,-0.0645,-0.1513,-0.2296,-0.2738,-0.3519,-0.4086,-0.4148,-0.433,-0.4656,-0.5113,-0.484,-0.5376,-0.708,-0.7933,-0.9098,-1.0819,-1.2002,-1.3206,-1.4507,-1.5521,-1.6414,-1.7308,-1.7989,-1.8606,-1.9164,-1.9526,-2.0007,-2.0553,-2.1302,-2.229,-2.3423,-2.3893,-2.4564,-2.5273,-2.5418,-2.5036,-2.4448,-2.4742,-2.4945,-2.4933,-2.4368,-2.5062,-2.5934,-2.4611,-2.4831,-2.5409,-2.3691,-2.2376,-2.116,0.0,0.0,0.0,0.0,0.0,0.0,0.0,0.0,0.0,0.0,0.0,0.0,0.0,0.0,-2.2404,-2.2992,0.0,-2.6785,-2.8494,-2.994,-3.1365,-3.2844,-3.3061,-3.3103,-3.3234,-3.3899,-3.4078,-3.345,-3.3717,-3.3506,-3.2407,-3.2007,-3.1474,-3.0742,-3.077,-3.0831,-3.0871,-3.167,-3.2471,-3.3253,-3.3972,-3.4559,-3.5081,-3.3878,-3.351,-3.3854,-3.2144,-3.1652,-3.217,-3.1637,-3.063,-2.9334,-2.8282,-2.7253,-2.6129,-2.4559,-2.3979,-2.4004,-2.3448,-2.3432,-2.3629,0.0,0.0,0.0,0.0,0.0,0.0,0.0,-0.1175,-0.1902,-0.2627,-0.3455,-0.3991,-0.4141,-0.4351,-0.4327,-0.4001,-0.4358,-0.5454,-0.7507,-0.8102,-0.9291,-1.1344,-1.2504,-1.3503,-1.4288,-1.5014,-1.5841,-1.6747,-1.7432,-1.8202,-1.9044,-1.958,-2.0001,-2.0337,-2.0995,-2.1733,-2.2543,-2.3408,-2.4197,-2.4889,-2.5168,-2.504,-2.4634,-2.464,-2.4526,-2.4325,-2.4188,-2.4253,-2.4343,-2.4157,-2.46,-2.5163,-2.4516,-2.3918,-2.3097,-2.1293,-2.0351,0.0,0.0,0.0,0.0,0.0,0.0,0.0,0.0,-2.0545,-2.1222,-2.1937,-2.3041,-2.4116,-2.4784,-2.6344,-2.8008,-2.9503,-3.0691,-3.1743,-3.2528,-3.2524,-3.2641,-3.3161,-3.4088,-3.4447,-3.382,-3.4004,-3.3786,-3.2894,-3.2144,-3.1417,-3.0691,-3.063,-3.0605,-3.0605,-3.1275,-3.2071,-3.2972,-3.2957,-3.3412,-3.432,-3.2913,-3.2232,-3.2232,-3.1469,-3.1131,-3.1151,-3.0891,-3.019,-2.904,-2.6866,-2.6065,-2.6159,-2.5053,-2.4675,-2.4593,-2.3651,-2.3412,-2.3578,0.0,0.0,0.0,0.0,0.0,0.0,0.0,0.0,-0.1261,-0.2014,-0.2643,-0.3306,-0.3958,-0.4054,-0.4104,-0.4163,-0.5061,-0.5809,-0.6294,-0.7985,-0.9446,-1.0397,-1.1971,-1.3294,-1.4279,-1.5008,-1.5799,-1.6626,-1.7995,-1.8732,-1.8824,-1.9798,-2.0257,-2.0309,-2.0744,-2.1351,-2.2051,-2.2153,-2.3416,-2.5288,-2.4074,-2.4368,-2.5409,-2.4095,-2.4118,-2.4767,-2.3933,-2.3577,-2.3547,-2.3658,-2.4021,-2.4504,-2.486,-2.4885,-2.4416,-2.263,-2.0831,-1.9236,-1.8204,-1.7661,-1.776,-1.9314,-1.9626,-2.0169,0.0,-2.3524,-2.4111,-2.5097,-2.5871,-2.6549,-2.7056,-2.779,-2.8781,-3.0022,-3.0817,-3.1586,-3.2345,-3.1909,-3.161,-3.181,-3.3519,-3.4426,-3.3687,-3.4698,-3.4808,-3.343,-3.2676,-3.1987,-3.1232,-3.0598,-3.0269,-3.0269,-3.0356,-3.109,-3.2551,-3.2055,-3.253,-3.404,-3.2679,-3.2018,-3.2018,-3.1267,-3.0932,-3.0865,-2.9576,-2.8942,-2.8679,-2.6404,-2.632,-2.7368,-2.5254,-2.4877,-2.5326,-2.4084,-2.3667,-2.3632,0.0,0.0,0.0,0.0,0.0,0.0,0.0,0.0,0.0,-0.1551,-0.2512,-0.3302,-0.356,-0.3824,-0.4039,-0.418,-0.4621,-0.5343,-0.6441,-0.7443,-0.8884,-1.0921,-1.1598,-1.2586,-1.4034,-1.4229,-1.4913,-1.6136,-1.6734,-1.7343,-1.7948,-1.898,-1.9455,-1.9455,-2.0234,-2.0836,-2.1415,-2.1813,-2.2692,-2.3791,-2.374,-2.3929,-2.4139,-2.3309,-2.2705,-2.2264,-2.1844,-2.183,0.0,-2.1043,-2.1852,-2.3218,-2.3161,-2.3247,-2.315,-2.202,-2.1147,-2.0358,-1.964,-1.9678,-1.9969,-2.0361,-2.1228,-2.2323,-2.3525,-2.4223,-2.482,-2.5654,-2.6355,-2.6843,-2.7049,-2.7633,-2.8334,-2.9226,-2.9907,-3.0443,-3.0739,-3.0531,-3.0082,-2.9388,-3.0731,-3.1778,-3.1956,-3.2112,-3.1917,-3.1286,-3.0648,-3.0114,-2.9795,-2.9485,-2.9325,-2.9325,-2.9325,-3.0179,-3.1945,-3.0888,-3.1085,-3.2588,-3.1175,-3.0511,-3.0479,-3.0249,-3.0225,-3.0318,-2.9194,-2.835,-2.7727,-2.6574,-2.6257,-2.6378,-2.5471,-2.5461,-2.5816,-2.4132,-2.3551,-2.3491,0.0,0.0,0.0,0.0,0.0,0.0,0.0,0.0,0.0,0.0,-0.2267,-0.3016,-0.3345,-0.3848,-0.4167,-0.4281,-0.4305,-0.4895,-0.623,-0.6859,-0.8127,-1.0336,-1.0995,-1.1926,-1.3297,-1.3503,-1.4204,-1.5378,-1.565,-1.617,-1.6922,-1.7902,-1.8503,-1.8842,-1.9546,-2.0217,-2.0766,-2.1285,-2.188,-2.2415,-2.2822,-2.2953,-2.2848,-2.208,-2.1033,-1.9998,-1.9998,-1.9841,-1.9502,-1.8532,-1.9504,-2.1054,-2.0955,-2.1313,-2.1667,-2.1187,-2.095,-2.0824,-2.0755,-2.1262,-2.1837,-2.2074,-2.338,-2.4553,-2.4626,-2.5288,-2.5955,-2.6271,-2.6707,-2.7055,-2.7055,-2.7405,-2.7898,-2.8593,-2.9203,-2.9581,-2.9581,-2.9436,-2.8913,-2.784,-2.8363,-2.9045,-2.9633,-2.9819,-2.9875,-2.9875,-2.9283,-2.891,-2.891,-2.87,-2.8575,-2.8575,-2.8575,-2.9445,-3.13,-3.0045,-3.0069,-3.1349,-3.0061,-2.937,-2.9203,-2.9316,-2.9355,-2.9285,-2.8501,-2.7689,-2.6926,-2.6314,-2.5817,-2.5509,-2.5362,-2.5394,-2.5309,-2.3753,-2.3389,-2.3608,0.0,0.0,0.0,0.0,0.0,0.0,0.0,0.0,0.0,0.0,0.0,0.0,0.0,-0.4119,-0.4484,-0.4484,-0.4621,-0.4809,-0.5114,-0.6315,-0.7212,-0.7702,-0.9999,-1.1518,-1.1971,-1.3216,-1.4026,-1.434,-1.533,-1.5839,-1.5886,-1.6875,-1.7855,-1.8796,-1.8842,-1.9409,-2.0309,-2.0354,-2.0935,-2.176,-2.0866,-2.1228,-2.2012,-2.0118,-1.9215,-1.8942,-1.8942,-1.7785,-1.6336,-1.6855,-1.7289,-1.773,-1.8702,-1.9756,-2.0612,-2.0488,-2.0062,-1.9899,-2.1066,-2.1582,-2.2361,-2.468,-2.5977,-2.668,-2.6546,-2.7583,-2.839,-2.7753,-2.7666,-2.7666,-2.7666,-2.7695,-2.7898,-2.8593,-2.9203,-2.9581,-2.9581,-2.9087,-2.8448,-2.7782,-2.7227,-2.6875,0.0,-2.9014,-3.0366,-3.0366,-2.9749,-2.9373,-2.9373,-2.8706,-2.8312,-2.8312,-2.8312,-2.9033,-3.052,-2.9757,-2.9831,-3.0717,-2.9955,-2.9301,-2.8724,-2.8748,-2.835,-2.764,-2.6967,-2.6654,-2.6529,-2.5186,-2.4988,-2.5446,-2.4853,-2.4166,-2.3409,-2.2761,-2.3297,-2.4135,0.0,0.0,0.0,0.0,0.0,0.0,0.0,0.0,0.0,0.0,0.0,0.0,0.0,0.0,0.0,0.0,-0.3946,-0.4262,-0.4941,-0.5589,-0.6341,-0.728,-0.832,-0.9365,-1.0428,-1.1595,-1.2266,-1.2428,-1.3853,-1.4456,-1.4281,-1.5665,-1.6388,-1.6607,-1.8038,-1.8677,-1.8715,-1.9582,-1.9936,-1.9871,-1.9878,-1.973,-1.9414,-1.8312,-1.7233,-1.6295,0.0,-1.6067,-1.6103,-1.5634,-1.5835,-1.6283,-1.6268,-1.6693,-1.7404,-1.8392,-1.9152,-1.9985,-2.1522,-2.3252,-2.4876,-2.5832,-2.7194,-2.8254,-2.8046,-2.7959,-2.7758,-2.7202,-2.6445,-2.572,-2.5255,-2.5094,-2.5535,-2.701,-2.7705,-2.8225,-2.8598,-2.8828,-2.8283,-2.6388,-2.6759,0.0,0.0,0.0,0.0,-2.8581,-2.8014,-2.781,-2.8122,-2.7502,-2.7071,-2.6967,-2.7404,-2.8264,-2.9552,-2.9369,-2.9663,-3.0431,-2.9686,-2.9048,-2.8511,-2.8409,-2.783,-2.692,-2.6606,-2.5792,-2.4654,-2.4477,-2.4242,-2.3928,-2.3423,-2.3204,-2.3055,-2.1778,-2.1716,-2.2156,0.0,0.0,0.0,0.0,0.0,0.0,0.0,0.0,0.0,0.0,0.0,0.0,0.0,0.0,0.0,0.0,0.0,-0.3834,-0.4389,-0.4893,-0.5553,-0.6412,-0.701,-0.7856,-0.899,-1.0032,-1.0785,-1.1221,-1.2361,-1.2921,-1.2979,-1.4071,-1.4674,-1.4895,-1.6601,-1.7397,-1.7527,-1.8587,-1.876,-1.8276,-1.8248,-1.7837,-1.7108,-1.6195,-1.53,0.0,-1.4113,-1.4496,-1.5059,-1.4624,-1.5049,-1.5616,-1.5051,-1.528,-1.6068,-1.7633,-1.9163,-2.0799,-2.2908,-2.5273,-2.725,-2.7826,-2.8852,-2.9627,-2.8973,-2.831,-2.7475,-2.6229,-2.5354,-2.4588,-2.367,-2.3427,-2.3846,-2.5261,-2.5759,-2.6365,-2.7425,-2.7883,-2.7711,-2.654,-2.7111,-2.7225,0.0,0.0,0.0,-2.7185,-2.6837,-2.6726,-2.7048,-2.6876,-2.6763,-2.6683,-2.7283,-2.8081,-2.9084,-2.9141,-2.9285,-2.9546,-2.8845,-2.8199,-2.7659,-2.7554,-2.714,-2.6449,-2.5829,-2.4965,-2.3942,-2.3664,-2.3298,-2.2891,-2.2637,-2.238,-2.2053,-2.0981,-2.0438,-2.026,0.0,0.0,0.0,0.0,0.0,0.0,0.0,0.0,0.0,0.0,0.0,0.0,0.0,0.0,0.0,0.0,0.0,0.0,-0.3599,-0.4257,-0.4784,-0.5072,-0.6133,-0.7024,-0.7681,-0.8627,-0.9568,-1.0502,-1.0877,-1.1352,-1.189,-1.2217,-1.2778,-1.3629,-1.4637,-1.5644,-1.6651,-1.7273,-1.7353,-1.6902,-1.6113,-1.5599,-1.5157,-1.382,-1.3437,-1.353,-1.3194,-1.3117,-1.3262,-1.3903,-1.4881,-1.5704,-1.5081,-1.5531,-1.6602,-1.8212,-2.0054,-2.2198,-2.504,-2.7315,-2.9203,-3.0425,-3.0832,-3.0617,-2.9337,-2.8655,-2.7507,-2.4934,-2.4509,-2.4168,-2.2826,-2.263,-2.2919,-2.3587,-2.3688,-2.4357,-2.6195,-2.651,-2.694,-2.8054,-2.8168,-2.794,-2.7341,0.0,0.0,-2.6318,0.0,-2.6313,-2.6343,-2.6911,-2.7226,-2.7254,-2.7854,-2.8453,-2.9051,-2.9109,-2.8853,-2.8283,-2.7655,-2.6999,-2.6345,-2.6291,-2.6234,-2.6119,-2.4718,-2.4207,-2.4291,-2.2828,-2.2245,-2.2385,-2.2443,-2.1658,-2.0451,-2.0358,-1.9508,-1.8528,0.0,0.0,0.0,0.0,0.0,0.0,0.0,0.0,0.0,0.0,0.0,0.0,0.0,0.0,0.0,0.0,0.0,0.0,-0.3683,-0.4023,-0.4461,-0.5064,-0.5533,-0.5872,-0.6147,-0.7189,-0.7788,-0.7938,-0.9658,-1.0488,-1.0456,-1.1366,-1.1827,-1.1881,-1.2938,-1.3597,-1.3972,-1.5119,-1.5541,-1.5321,-1.4665,-1.4197,-1.3746,-1.2786,-1.2297,-1.2079,-1.2338,-1.2505,-1.2793,-1.4099,-1.523,-1.6102,-1.6021,-1.6712,-1.7873,-1.9533,-2.1256,-2.3035,-2.5039,-2.7215,-2.9048,-2.9744,-2.9838,-2.9495,-2.8619,-2.717,-2.5462,-2.3507,-2.238,-2.1341,-2.0079,-2.052,-2.1595,-2.3165,-2.4456,-2.5818,-2.723,-2.7982,-2.8286,-2.7963,-2.7799,-2.7616,-2.7245,-2.628,0.0,0.0,-2.6188,-2.6459,-2.6859,-2.6576,-2.655,-2.6919,-2.7252,-2.7748,-2.8419,-2.8988,-2.9374,-2.9595,-2.8639,-2.7848,-2.717,-2.6356,-2.5532,-2.464,-2.4257,-2.3626,-2.2851,-2.2421,-2.2037,-2.1623,-2.118,-2.0548,-1.9784,-1.9324,-1.85,-1.7686,0.0,0.0,0.0,0.0,0.0,0.0,0.0,0.0,0.0,0.0,0.0,0.0,0.0,0.0,0.0,0.0,0.0,0.0,0.0,-0.4032,-0.4557,-0.5067,-0.5164,-0.5284,-0.5463,-0.6017,-0.6402,-0.6666,-0.827,-0.9133,-0.9261,-1.0284,-1.0643,-1.0469,-1.153,-1.2043,-1.2155,-1.342,-1.3896,0.0,0.0,-1.2882,-1.2415,-1.1614,-1.1161,-1.1013,-1.1304,-1.2108,-1.3243,-1.4439,-1.5613,-1.6691,-1.7498,-1.8332,-1.9412,-2.136,-2.3009,-2.4525,-2.6147,-2.8135,-2.9733,-2.9475,-2.9167,-2.8544,-2.7168,-2.5772,-2.4149,-2.1792,-2.0974,-2.0312,-1.9016,-1.9506,-2.0522,-2.188,-2.3086,-2.4561,-2.6497,-2.6923,-2.723,-2.7701,-2.7466,-2.7046,-2.6382,-2.5616,-2.507,0.0,-2.4985,-2.5382,-2.6134,-2.5881,-2.5931,-2.639,-2.6867,-2.7247,-2.7621,-2.804,-2.826,-2.8302,-2.767,-2.6929,-2.6082,-2.5476,-2.47,-2.3806,0.0,-2.2852,-2.2088,-2.1694,-2.1272,-2.0843,-2.0501,-1.984,-1.9073,-1.8644,-1.7744,-1.6786,0.0,0.0,0.0,0.0,0.0,0.0,0.0,0.0,0.0,0.0,0.0,0.0,0.0,0.0,0.0,0.0,0.0,0.0,0.0,0.0,-0.4772,-0.5097,-0.5014,-0.5069,-0.5297,-0.5187,-0.5454,-0.6073,-0.7001,-0.7723,-0.8253,-0.9149,-0.948,-0.9349,-1.0289,-1.0755,-1.0902,-1.202,-1.2416,-1.2251,-1.2038,-1.1706,-1.1242,0.0,-1.0254,-1.0245,-1.041,-1.1817,-1.3761,-1.4903,-1.6217,-1.7627,-1.9172,-2.0121,-2.1074,-2.3334,-2.4786,-2.6011,-2.7528,-2.9162,-3.0235,-2.9233,-2.8412,-2.7371,-2.521,-2.4115,-2.2762,-1.984,-1.9724,-1.9786,-1.868,-1.9027,-1.9739,-2.0478,-2.1187,-2.2456,-2.497,-2.498,-2.5425,-2.7269,-2.7059,-2.6373,-2.5358,-2.5084,-2.4563,-2.3582,-2.331,-2.3669,-2.4736,-2.4901,-2.5218,-2.5725,-2.6437,-2.6817,-2.6849,-2.6815,-2.6593,-2.6133,-2.5924,-2.5307,-2.4289,-2.409,-2.373,-2.3204,0.0,0.0,-2.169,-2.0834,-2.0337,-2.0067,-1.9991,-1.9306,-1.8347,-1.8131,-1.7179,-1.6027,0.0,0.0,0.0,0.0,0.0,0.0,0.0,0.0,0.0,0.0,-0.0896,-0.0891,0.0,0.0,0.0,0.0,0.0,0.0,0.0,0.0,0.0,-0.5234,-0.5242,-0.5242,-0.5297,-0.527,-0.5325,-0.5462,-0.6611,-0.722,-0.7356,-0.8441,-0.8938,-0.8911,-0.9086,-0.9422,-0.9889,-1.0535,-1.0887,-1.1015,-1.1075,-1.0883,-1.0493,-1.0346,0.0,0.0,-1.0564,-1.132,-1.2445,-1.5354,-1.7637,-1.9402,-2.0251,-2.1369,-2.2764,-2.4422,-2.5171,-2.5814,-2.7133,-2.7939,-2.8313,-2.7829,-2.659,-2.5003,-2.3137,-2.1171,-1.9242,-1.7359,-1.7063,-1.7169,-1.7207,-1.816,-1.9445,-2.0937,-2.2306,-2.3577,-2.4672,-2.5532,-2.6161,-2.6336,-2.619,-2.5934,-2.556,-2.446,0.0,0.0,0.0,-2.2224,-2.3699,-2.3776,-2.4136,-2.4874,-2.5919,-2.6468,-2.6501,-2.6501,-2.6587,-2.6729,-2.556,-2.4748,-2.4179,-2.2999,-2.2297,-2.193,-2.2066,0.0,-2.0908,-2.0668,-2.0109,-1.9337,-1.8935,-1.836,-1.7714,-1.7336,-1.6573,-1.5728,0.0,0.0,0.0,0.0,0.0,0.0,0.0,0.0,-0.0897,-0.0897,-0.0912,-0.091,-0.0896,-0.0897,0.0,0.0,0.0,0.0,0.0,0.0,0.0,-0.527,-0.5297,-0.5297,-0.5297,-0.5297,-0.5297,-0.5297,0.0,-0.7112,-0.7139,-0.8275,-0.8804,-0.8804,-0.8804,-0.8936,-0.9237,-1.0038,-1.0316,-1.0268,-1.0709,-1.0791,-1.0606,-1.0364,0.0,0.0,-1.0685,-1.1247,-1.2045,-1.4318,-1.6473,-1.8578,-2.0796,-2.2329,-2.3537,-2.4626,-2.5428,-2.6094,-2.6987,-2.7561,-2.7742,-2.7024,-2.5613,-2.3842,-2.1608,-1.9633,-1.7867,-1.6519,-1.6237,-1.6375,-1.6757,-1.7602,-1.8667,-1.9997,-2.071,-2.174,-2.3537,-2.3637,-2.3898,-2.502,-2.4619,-2.4215,-2.4097,-2.3219,-2.2568,0.0,0.0,-2.1534,-2.2955,-2.3319,-2.3545,-2.3697,-2.4515,-2.4826,-2.4612,-2.4612,-2.4578,-2.4506,-2.3816,-2.3132,-2.2468,-2.1797,-2.1247,-2.0824,-2.0731,0.0,-1.996,-1.9451,-1.8965,-1.8493,-1.7996,-1.7499,-1.6999,-1.6747,-1.6088,-1.5343,0.0,0.0,0.0,0.0,0.0,0.0,0.0,-0.0902,-0.0905,-0.0898,-0.0902,-0.0905,-0.0898,-0.0897,-0.1317,0.0,0.0,0.0,0.0,0.0,0.0,0.0,0.0,0.0,-0.5297,0.0,0.0,-0.5489,-0.6571,0.0,0.0,0.0,0.0,0.0,-0.8804,-0.8857,-0.9041,-0.9858,-1.0084,0.0,0.0,-1.0808,-1.0754,0.0,0.0,0.0,0.0,-1.127,-1.1832,-1.322,-1.4726,-1.6576,-1.9832,-2.186,-2.3166,-2.4003,-2.4987,-2.6028,-2.6831,-2.7308,-2.7338,-2.6285,-2.4693,-2.276,-2.0299,-1.8408,-1.6927,-1.5976,-1.5799,-1.5962,-1.6536,-1.7037,-1.7705,-1.8721,-1.8757,-1.9473,-2.1845,-2.1432,-2.153,-2.3394,-2.3083,-2.2639,-2.2456,-2.2057,0.0,0.0,0.0,0.0,-2.2009,-2.268,-2.2876,-2.2571,-2.3149,-2.3335,-2.3001,-2.2855,-2.2615,-2.2222,-2.199,-2.1441,-2.0658,-2.0549,-2.0257,-1.9748,-1.9479,0.0,0.0,-1.8313,-1.7844,-1.7683,-1.7134,-1.6712,-1.6342,-1.6148,-1.5657,-1.5105,0.0,0.0,0.0,0.0,0.0,0.0,0.0,-0.0891,-0.0899,-0.0901,-0.0893,-0.0899,-0.0901,-0.0897,-0.1261,0.0,0.0,0.0,0.0,0.0,0.0,0.0,0.0,0.0,0.0,0.0,0.0,-0.6127,-0.6777,0.0,0.0,0.0,0.0,0.0,0.0,-0.908,-0.9536,-0.964,0.0,0.0,0.0,0.0,0.0,0.0,0.0,0.0,0.0,-1.1258,-1.1277,-1.308,-1.3566,-1.3805,-1.5902,-1.8476,-2.0934,-2.2106,-2.3375,-2.4747,-2.6395,-2.6734,-2.6368,-2.5294,-2.3236,-2.0919,-1.8899,-1.694,-1.5401,-1.4924,-1.4823,-1.509,-1.5982,-1.6216,-1.6611,-1.7672,-1.8083,-1.8536,-1.9341,-2.0392,-2.1185,-2.1444,-2.22,-2.24,-2.1587,-2.1464,-2.1107,0.0,0.0,0.0,-2.0323,-2.1239,-2.1755,-2.1721,-2.2571,-2.3038,-2.3001,-2.2418,-2.2071,-2.2006,-2.0981,-2.0279,-1.9885,-1.9469,-1.9039,-1.8684,-1.899,0.0,0.0,-1.7946,-1.7544,-1.7174,-1.6353,-1.6009,-1.5879,-1.5447,-1.5237,-1.519,0.0,0.0,0.0,0.0,0.0,0.0,0.0,-0.0993,-0.0968,-0.1125,-0.0993,-0.0911,-0.0898,-0.1233,-0.1762,0.0,0.0,0.0,0.0,0.0,0.0,0.0,0.0,0.0,0.0,0.0,-0.5613,-0.6029,-0.6911,0.0,0.0,0.0,0.0,0.0,0.0,-0.891,-0.9119,-0.9282,0.0,0.0,0.0,0.0,0.0,0.0,0.0,0.0,0.0,0.0,-1.0948,-1.201,-1.2308,-1.2315,-1.3065,-1.4941,-1.7364,-1.9936,-2.1694,-2.3167,-2.4793,-2.5171,-2.5004,-2.459,-2.257,-2.0373,-1.8976,-1.6859,-1.513,-1.4967,-1.4733,-1.4706,-1.5373,-1.5512,-1.5697,-1.6331,-1.614,-1.6384,-1.7751,-1.805,-1.8702,-2.0234,-2.0587,-2.0829,0.0,0.0,0.0,0.0,0.0,0.0,-1.933,-2.0784,-2.1476,-2.1231,-2.2134,-2.235,-2.1739,-2.1476,-2.099,-2.0307,-1.9616,-1.8958,-1.836,-1.837,-1.8169,-1.7813,-1.7729,0.0,0.0,-1.6294,-1.5801,-1.5875,-1.5083,-1.4765,-1.4698,-1.4414,-1.4271,-1.4136,0.0,0.0,0.0,0.0,0.0,-0.1079,-0.1283,-0.116,-0.1078,-0.1179,-0.1018,-0.0996,-0.1278,-0.1757,-0.2347,-0.3151,0.0,0.0,0.0,0.0,0.0,0.0,0.0,0.0,0.0,0.0,-0.5834,-0.6279,-0.7283,-0.7852,0.0,0.0,-0.8738,-0.8402,0.0,0.0,0.0,0.0,0.0,0.0,0.0,0.0,0.0,0.0,0.0,0.0,0.0,0.0,0.0,0.0,0.0,-1.1449,-1.1445,-1.2481,-1.4331,-1.7468,-1.9863,-2.1734,-2.304,-2.367,-2.3876,-2.3536,-2.1671,-1.9641,-1.8493,-1.6539,-1.4926,-1.4744,-1.4541,-1.4518,-1.4835,-1.488,-1.4971,-1.5221,-1.4765,-1.4903,-1.6355,-1.6443,-1.7006,-1.8903,-1.9055,-1.9353,0.0,-1.9866,0.0,0.0,0.0,0.0,0.0,-1.9504,-2.0224,-2.0118,-2.0983,-2.0988,-1.995,-1.9979,-1.9456,-1.8456,-1.7967,-1.7439,-1.6888,-1.7072,-1.698,-1.6754,0.0,0.0,0.0,-1.49,-1.4417,-1.4591,-1.3948,-1.3704,-1.3704,-1.3537,-1.3446,-1.3326,0.0,0.0,0.0,0.0,0.0,0.0,0.0,-0.1355,-0.1282,-0.0957,-0.0895,-0.1264,-0.2196,-0.2457,-0.2982,-0.3914,0.0,0.0,0.0,0.0,0.0,0.0,0.0,0.0,0.0,0.0,-0.6315,-0.7197,-0.7992,-0.8664,-0.9176,-0.9204,-0.8898,-0.8402,0.0,0.0,0.0,0.0,0.0,0.0,0.0,0.0,0.0,0.0,0.0,0.0,0.0,0.0,0.0,0.0,0.0,0.0,0.0,-1.154,-1.2297,-1.4642,-1.7747,-2.0548,-2.1227,-2.2389,-2.3117,-2.1935,-2.0254,-1.8504,-1.6965,-1.562,-1.4517,-1.385,-1.4091,-1.4396,-1.4396,-1.4396,-1.4396,-1.4396,-1.4396,-1.4571,-1.505,-1.595,-1.6764,-1.7274,-1.7779,-1.8273,-1.8691,-1.8606,0.0,0.0,0.0,0.0,0.0,-1.6973,-1.7369,-1.8119,-1.8899,-1.8769,-1.7656,-1.7787,-1.7477,-1.672,-1.6067,-1.5719,-1.5702,-1.5429,-1.5342,0.0,0.0,0.0,0.0,-1.4085,-1.3807,-1.3567,-1.3188,-1.3009,-1.3009,-1.3009,-1.3009,-1.2978,0.0,0.0,0.0,0.0,0.0,0.0,0.0,-0.147,-0.1307,-0.1181,-0.1386,-0.1621,-0.1931,-0.2753,-0.3473,-0.3947,0.0,0.0,0.0,0.0,0.0,0.0,0.0,0.0,0.0,0.0,-0.6752,-0.7797,-0.8404,-0.8855,-0.9217,-0.9217,-0.9004,-0.8671,-0.8671,-0.8861,0.0,0.0,0.0,0.0,0.0,0.0,0.0,0.0,0.0,0.0,0.0,0.0,0.0,0.0,0.0,0.0,0.0,0.0,0.0,-1.2688,-1.4818,-1.7268,-1.8792,-1.9268,-1.929,-1.9285,-1.8038,-1.6717,-1.6225,-1.5279,-1.4422,-1.4222,-1.4287,-1.4396,-1.4396,-1.4396,-1.4396,-1.4396,-1.4396,-1.4524,-1.4836,-1.5332,-1.5911,-1.6617,-1.7053,-1.7229,0.0,0.0,0.0,0.0,0.0,0.0,0.0,-1.6373,-1.6679,-1.7587,-1.7971,-1.7768,-1.6969,-1.7045,-1.6705,-1.6032,-1.5185,-1.4687,-1.4445,-1.4228,0.0,0.0,0.0,0.0,0.0,-1.2831,-1.2352,-1.2114,-1.182,-1.1701,-1.1701,-1.1701,-1.174,-1.1742,0.0,0.0,0.0,0.0,0.0,0.0,0.0,-0.1709,-0.1597,-0.1513,-0.1874,-0.2237,-0.2516,-0.3144,-0.3763,-0.4278,0.0,0.0,0.0,0.0,0.0,0.0,0.0,0.0,0.0,-0.6639,-0.7447,-0.825,-0.8943,-0.9364,-0.9537,-0.9537,-0.9271,-0.8818,-0.9112,-0.9171,0.0,0.0,0.0,0.0,0.0,0.0,-1.14,0.0,0.0,0.0,0.0,0.0,0.0,0.0,0.0,0.0,0.0,0.0,0.0,0.0,-1.2841,-1.431,-1.636,-1.6894,-1.6999,-1.7413,-1.6542,-1.5506,-1.5253,-1.465,-1.4027,-1.3763,-1.3825,-1.3884,-1.3695,-1.3647,-1.3579,-1.3389,-1.3508,-1.3673,-1.3781,-1.4471,-1.5168,-1.5711,0.0,0.0,0.0,0.0,0.0,0.0,0.0,0.0,0.0,-1.5263,-1.5396,-1.6282,-1.6509,-1.6272,-1.5409,-1.5646,-1.5402,-1.4637,-1.3976,-1.356,-1.3349,-1.299,0.0,0.0,0.0,0.0,0.0,-1.1715,-1.1307,-1.1132,-1.0984,-1.0971,-1.1067,-1.1067,-1.1094,-1.1087,0.0,0.0,0.0,0.0,0.0,0.0,0.0,0.0,0.0,-0.1902,-0.24,-0.3012,-0.3699,-0.3657,-0.3928,-0.4807,0.0,0.0,0.0,0.0,0.0,0.0,0.0,0.0,0.0,-0.7423,-0.8275,-0.8614,-0.961,-1.0097,-1.011,-1.0097,-0.9644,-0.8884,-0.9671,-0.9524,0.0,0.0,0.0,0.0,0.0,0.0,0.0,0.0,0.0,0.0,0.0,0.0,0.0,0.0,0.0,0.0,0.0,0.0,0.0,0.0,0.0,0.0,0.0,-1.5147,-1.5831,-1.6007,-1.5405,-1.4591,-1.4042,-1.3671,0.0,-1.2649,-1.2802,-1.2918,-1.2415,-1.2312,-1.2184,-1.169,-1.2012,-1.2302,-1.2157,-1.3556,-1.4574,0.0,-1.4966,0.0,0.0,0.0,0.0,0.0,0.0,0.0,0.0,-1.382,-1.3762,-1.4414,-1.4774,-1.4399,-1.32,-1.3876,-1.3768,-1.2893,-1.2607,-1.2452,-1.2424,-1.1725,0.0,0.0,0.0,0.0,0.0,-1.0807,-1.0713,-1.06,-1.0613,-1.0787,-1.0995,-1.1009,-1.1022,-1.0989,0.0,0.0,0.0,0.0,0.0,0.0,0.0,0.0,0.0,0.0,-0.3016,-0.3429,-0.3479,-0.3956,-0.4395,0.0,0.0,0.0,0.0,0.0,0.0,0.0,0.0,0.0,0.0,-0.8249,-0.8786,-0.9722,-0.9987,-1.0234,-1.0479,-1.0111,-0.9722,-0.9372,-0.9924,-1.0164,0.0,0.0,0.0,0.0,0.0,0.0,0.0,0.0,0.0,0.0,-1.0701,-1.0701,0.0,0.0,0.0,0.0,0.0,0.0,0.0,0.0,-1.0803,-1.0912,-1.1678,0.0,-1.2681,-1.2716,-1.2563,-1.2364,0.0,-1.1968,-1.1724,-1.1561,-1.1593,-1.1624,-1.1524,-1.1664,-1.174,-1.1616,-1.1715,-1.194,-1.2429,-1.3476,0.0,-1.3884,-1.4178,0.0,0.0,0.0,0.0,0.0,0.0,0.0,0.0,-1.353,-1.3516,-1.3658,-1.3495,-1.333,-1.32,-1.3222,-1.3112,-1.2893,-1.2206,-1.1875,-1.1861,-1.1125,0.0,0.0,0.0,0.0,-1.0807,-1.0807,-1.0713,-1.0613,-1.0841,-1.0929,-1.1022,-1.1236,-1.1227,-1.1099,0.0,0.0,0.0,0.0,0.0,0.0,0.0,0.0,0.0,0.0,0.0,0.0,0.0,0.0,0.0,0.0,0.0,0.0,0.0,0.0,0.0,0.0,0.0,0.0,-0.8774,-0.9053,-0.944,-1.0005,-1.0137,-1.0251,-1.0333,-1.0051,-0.9984,-1.0021,-1.0194,-1.0514,0.0,0.0,0.0,0.0,-1.0614,0.0,0.0,0.0,0.0,0.0,-1.0496,-1.0496,0.0,-1.0496,-1.0496,-1.0496,0.0,0.0,0.0,0.0,-1.0393,-1.0269,-1.0339,-1.0789,-1.1318,-1.1745,-1.1614,-1.1441,-1.1491,-1.1351,-1.1129,-1.0848,-1.0918,-1.0947,-1.0685,-1.0784,-1.083,-1.0695,-1.0906,-1.1325,-1.2164,-1.2544,-1.288,-1.3289,-1.3339,0.0,0.0,0.0,0.0,0.0,0.0,0.0,0.0,-1.3266,-1.3182,-1.3182,-1.2778,-1.2611,-1.2733,-1.2611,-1.2469,-1.2224,-1.1655,-1.1223,-1.0906,-1.0443,-1.0108,0.0,0.0,0.0,-0.9758,-0.9758,-0.9628,-0.9521,-0.9663,-0.9819,-1.0077,-1.0604,-1.0487,-1.0042,0.0,0.0,0.0,0.0,0.0,0.0,0.0,0.0,0.0,0.0,0.0,0.0,0.0,0.0,0.0,0.0,0.0,0.0,0.0,0.0,0.0,0.0,0.0,-0.8221,-0.8955,-0.9676,-0.9988,-0.9918,-1.016,-1.0213,-0.9983,-1.0034,-1.0215,-1.0509,-1.0305,-1.045,0.0,0.0,0.0,0.0,-0.9931,0.0,0.0,0.0,0.0,0.0,0.0,0.0,0.0,-1.0263,-1.0263,-1.0248,-1.0201,0.0,0.0,0.0,0.0,0.0,-0.9591,-1.0081,-1.0824,-1.1498,-1.1328,-1.1057,-1.1107,-1.0948,-1.0639,-1.0164,-1.0265,-1.03,-0.9881,-0.9855,-0.9832,-0.9596,-1.0061,-1.0814,-1.1764,-1.154,-1.1716,-1.2808,0.0,0.0,0.0,0.0,0.0,0.0,0.0,0.0,0.0,-1.2557,-1.2394,-1.239,-1.1966,-1.1735,-1.1695,-1.1841,-1.1642,-1.1101,-1.0828,-1.0388,-0.981,-0.9687,-0.9264,0.0,0.0,0.0,-0.8407,-0.8407,-0.8317,-0.8183,-0.8223,-0.8453,-0.8846,-0.9608,-0.9335,-0.8608,0.0,0.0,0.0,0.0,0.0,0.0,0.0,0.0,0.0,0.0,0.0,0.0,0.0,0.0,0.0,0.0,0.0,0.0,0.0,0.0,0.0,0.0,-0.8293,-0.8734,-0.9781,-0.9729,-0.9785,-0.9983,-1.0263,-1.0243,-0.9996,-1.0138,-1.0174,-1.0151,-0.9614,-0.9727,-1.027,0.0,0.0,0.0,0.0,0.0,0.0,0.0,0.0,0.0,0.0,0.0,0.0,-0.9219,-0.9144,-0.9026,-0.8849,0.0,0.0,0.0,0.0,0.0,-0.919,-0.9636,-0.996,-0.9703,-0.9944,-1.0219,-0.9933,-0.9388,-0.8949,-0.9087,-0.8882,-0.8728,-0.8866,-0.9239,-0.9478,-0.9432,-1.0162,-1.0998,0.0,0.0,-1.2325,-1.2699,0.0,0.0,0.0,0.0,0.0,0.0,0.0,0.0,0.0,-1.0137,-1.0049,-0.9938,-0.9868,-0.9708,-0.9423,-1.026,-1.0345,-0.9719,-0.9389,-0.9176,-0.9064,-0.8799,-0.8538,0.0,0.0,-0.8234,-0.8072,-0.8072,-0.805,-0.806,-0.8286,-0.8399,-0.8514,-0.8873,-0.8637,-0.8171,0.0,0.0,0.0,0.0,0.0,0.0,0.0,0.0,0.0,0.0,0.0,0.0,0.0,0.0,0.0,0.0,0.0,0.0,0.0,0.0,0.0,-0.8581,-0.8825,-0.9283,-0.9983,-1.0008,-1.0052,-1.0113,-1.0388,-1.0383,-1.0159,-1.0433,-1.0295,-0.9817,-0.9493,-0.9355,-0.93,-0.8816,0.0,0.0,0.0,0.0,0.0,0.0,0.0,0.0,0.0,0.0,0.0,0.0,-0.8564,-0.818,-0.8329,0.0,0.0,0.0,0.0,0.0,-0.8484,-0.9009,-0.936,-0.8468,-0.9159,-0.9979,-0.9494,-0.9115,-0.8834,-0.8612,-0.8535,-0.8557,-0.8672,-0.8706,-0.871,-0.8811,-0.9264,-0.9737,-1.0077,-1.0238,-1.0492,0.0,0.0,0.0,0.0,0.0,0.0,0.0,0.0,0.0,0.0,0.0,-0.939,-0.9149,-0.907,-0.8695,-0.7969,-0.8266,-0.8579,-0.8908,-0.8766,-0.8448,-0.7976,-0.7844,-0.7536,-0.7116,0.0,-0.7007,-0.6848,-0.6848,-0.6814,-0.673,-0.6839,-0.6964,-0.7103,-0.7222,-0.7421,-0.7513,0.0,0.0,0.0,0.0,0.0,0.0,0.0,0.0,0.0,0.0,0.0,0.0,0.0,0.0,0.0,0.0,0.0,0.0,0.0,0.0,-0.8517,-0.8689,-0.9151,-0.9572,-0.9955,-1.0188,-1.0259,-1.0233,-1.0504,-1.0498,-1.0251,-1.0493,-1.0174,-0.9368,-0.9296,-0.8988,-0.849,-0.8089,-0.8171,0.0,0.0,0.0,0.0,0.0,0.0,0.0,0.0,0.0,0.0,0.0,0.0,0.0,0.0,0.0,0.0,-0.7748,-0.7826,-0.7832,-0.776,-0.8208,-0.8484,-0.7606,-0.8711,-0.9798,-0.9072,-0.8925,-0.8817,-0.8356,-0.8332,-0.8436,-0.8564,-0.8357,-0.8257,-0.8508,-0.862,-0.8723,-0.881,-0.8864,0.0,0.0,0.0,0.0,0.0,0.0,0.0,0.0,0.0,0.0,0.0,0.0,-0.8555,-0.8263,-0.8112,-0.7629,-0.6863,-0.6559,-0.6894,-0.7879,-0.7815,-0.7465,-0.6857,-0.6792,-0.6515,-0.603,-0.6015,-0.5936,-0.5767,-0.5767,-0.5706,-0.5542,-0.5576,-0.5745,-0.5939,-0.5939,-0.6301,-0.6691,0.0,0.0,0.0,0.0,0.0,0.0,0.0,0.0,0.0,0.0,0.0,0.0,0.0,0.0,0.0,0.0,0.0,0.0,0.0,0.0,-0.8528,-0.9204,-0.9107,-0.9288,-0.9898,-0.9934,-1.0055,-1.0297,-1.0562,-1.0503,-1.0124,-0.9898,-0.9385,-0.8684,-0.8684,-0.8504,-0.8223,-0.8058,-0.8028,-0.8065,0.0,0.0,0.0,0.0,0.0,0.0,0.0,0.0,0.0,0.0,0.0,0.0,0.0,0.0,-0.6812,-0.6521,-0.6453,-0.6567,-0.7109,-0.7082,-0.6965,-0.7326,-0.8565,-0.9424,-0.8346,-0.8165,-0.8244,-0.8135,-0.7779,-0.7663,-0.8149,-0.8321,-0.8559,-0.915,-0.9098,-0.9105,-0.9482,0.0,0.0,0.0,0.0,0.0,0.0,0.0,0.0,0.0,0.0,0.0,0.0,0.0,0.0,-0.6399,-0.6077,-0.5887,-0.5793,-0.5586,-0.57,-0.6081,-0.5769,-0.5677,-0.5799,-0.5616,-0.5499,-0.5456,-0.5456,-0.5445,-0.5446,-0.5446,-0.5412,-0.5426,-0.5569,-0.5684,-0.582,-0.582,-0.5748,-0.5623,0.0,0.0,0.0,0.0,0.0,0.0,0.0,0.0,0.0,0.0,0.0,0.0,0.0,0.0,0.0,0.0,0.0,0.0,0.0,0.0,-0.8704,-0.9107,-0.9055,-0.9202,-0.9589,-0.9589,-0.9729,-0.9985,-1.0242,-1.0242,-0.9916,-0.9661,-0.919,-0.8584,-0.8533,-0.8326,-0.8073,-0.7836,-0.7736,-0.7726,-0.7417,0.0,0.0,0.0,0.0,0.0,0.0,0.0,0.0,0.0,-0.5957,-0.5692,-0.5902,-0.5997,-0.5987,-0.6035,-0.6054,-0.6078,-0.6223,-0.6395,-0.646,-0.6266,-0.7144,-0.7984,-0.7636,-0.7706,-0.7816,-0.7791,-0.7745,-0.7612,-0.7336,-0.7408,-0.7512,-0.7509,-0.7728,-0.7915,0.0,0.0,0.0,0.0,0.0,0.0,0.0,0.0,0.0,0.0,0.0,0.0,0.0,0.0,0.0,-0.5716,-0.5492,-0.538,-0.5397,-0.5099,-0.5078,-0.5291,-0.5359,-0.5404,-0.5396,-0.5305,-0.5239,-0.523,-0.523,-0.5281,-0.5392,-0.5392,-0.5392,-0.5412,-0.5562,-0.5677,-0.5813,-0.5755,-0.5736,-0.5752,0.0,0.0,0.0,0.0,0.0,0.0,0.0,0.0,0.0,0.0,0.0,0.0,0.0,0.0,0.0,0.0,0.0,0.0,-0.7511,-0.8218,-0.8675,-0.8801,-0.8816,-0.894,-0.9108,-0.9108,-0.9344,-0.9788,-0.9994,-0.9913,-0.9593,-0.9412,-0.9118,-0.8695,-0.8522,-0.8309,-0.8067,-0.7818,-0.767,-0.7514,-0.7007,-0.6743,0.0,0.0,0.0,0.0,0.0,0.0,0.0,0.0,-0.5462,-0.5217,-0.5543,-0.5549,-0.5469,-0.561,-0.559,-0.5563,-0.5547,-0.5641,-0.5682,-0.5466,-0.5926,-0.6524,-0.6779,-0.717,-0.7491,-0.7421,-0.7527,-0.7439,-0.6801,-0.6824,-0.6808,0.0,-0.6803,0.0,0.0,0.0,0.0,0.0,0.0,0.0,0.0,0.0,0.0,0.0,0.0,0.0,0.0,0.0,0.0,0.0,-0.5134,-0.5026,-0.5042,-0.4783,-0.4678,-0.4767,-0.502,-0.51,-0.5041,-0.5032,-0.5046,-0.5036,-0.5076,-0.5216,-0.5392,-0.5392,-0.5426,-0.5481,-0.5596,-0.571,-0.5735,-0.5464,-0.5368,-0.5287,0.0,0.0,0.0,0.0,0.0,0.0,0.0,0.0,0.0,0.0,0.0,0.0,0.0,0.0,0.0,0.0,0.0,0.0,-0.6994,-0.7881,-0.8409,-0.8409,-0.8451,-0.8517,-0.8517,-0.8517,-0.8909,-0.9776,-0.9776,-0.9582,-0.9198,-0.9198,-0.9097,-0.8884,-0.8624,-0.8405,-0.829,-0.8078,-0.7792,-0.7451,-0.6972,-0.6623,0.0,0.0,0.0,0.0,0.0,0.0,0.0,0.0,-0.493,-0.511,-0.511,-0.5179,-0.5265,-0.5133,-0.4954,-0.4865,-0.5129,-0.4749,-0.4447,-0.506,-0.5157,-0.5236,-0.5686,-0.6568,-0.7229,-0.7047,-0.6989,-0.6932,-0.672,-0.6683,-0.6713,-0.6713,-0.6692,0.0,0.0,0.0,0.0,0.0,0.0,0.0,0.0,0.0,0.0,0.0,0.0,0.0,0.0,0.0,0.0,0.0,-0.488,-0.4687,-0.4687,-0.4566,-0.4491,-0.4491,-0.4491,-0.4546,-0.4698,-0.4712,-0.4775,-0.4901,-0.5036,-0.5184,-0.5392,-0.5392,-0.5454,-0.5603,-0.571,-0.5742,-0.5607,-0.4929,-0.4443,-0.3979,0.0,0.0,0.0,0.0,0.0,0.0,0.0,0.0,0.0,0.0,0.0,0.0,0.0,0.0,0.0,0.0,0.0,0.0,-0.7458,-0.7609,-0.7865,-0.8233,-0.8278,-0.8365,-0.8517,-0.8517,-0.8733,-0.9173,-0.9173,-0.9107,-0.8996,-0.8996,-0.8742,-0.8253,-0.8345,-0.8126,-0.7706,-0.7363,-0.7171,-0.7055,-0.6566,-0.624,-0.5997,0.0,0.0,0.0,0.0,0.0,0.0,0.0,0.0,0.0,-0.4972,-0.5126,-0.5265,-0.5027,-0.4906,-0.4827,-0.4677,-0.4576,-0.4598,-0.4901,-0.5146,-0.5382,-0.5732,-0.6181,-0.6554,-0.6589,-0.6362,-0.6189,-0.627,-0.6294,0.0,-0.6333,0.0,0.0,0.0,0.0,0.0,0.0,0.0,0.0,0.0,0.0,0.0,0.0,0.0,0.0,0.0,0.0,0.0,0.0,-0.4608,-0.4559,-0.4559,-0.4095,-0.3876,-0.3849,-0.3426,-0.3754,-0.4712,-0.4812,-0.465,-0.4345,-0.4472,-0.4284,-0.3851,-0.3851,-0.3871,-0.3905,-0.3793,-0.3834,-0.3892,-0.339,-0.3215,-0.3118,0.0,0.0,0.0,0.0,0.0,0.0,0.0,0.0,0.0,0.0,-0.6507,-0.6534,0.0,0.0,0.0,0.0,0.0,0.0,0.0,-0.7652,-0.7806,-0.803,-0.8225,-0.8366,-0.8517,-0.8517,-0.8516,-0.8555,-0.8688,-0.8655,-0.8555,-0.8617,-0.8384,-0.793,-0.8015,-0.7837,-0.7413,-0.7043,-0.68,-0.6593,-0.6316,-0.6002,-0.5669,0.0,0.0,0.0,0.0,0.0,0.0,0.0,0.0,0.0,-0.4915,-0.5012,-0.5109,-0.5,-0.4895,-0.4766,-0.4641,-0.4558,-0.4586,-0.4894,-0.5196,-0.5474,-0.573,-0.6097,-0.6373,-0.641,-0.6139,-0.5914,-0.5912,-0.5868,0.0,0.0,0.0,0.0,0.0,0.0,0.0,0.0,0.0,0.0,0.0,0.0,0.0,0.0,0.0,0.0,0.0,0.0,0.0,0.0,-0.3904,-0.3793,-0.3793,-0.3433,-0.3239,-0.3239,-0.2821,-0.3069,-0.3902,-0.4062,-0.3974,-0.3668,-0.382,-0.3618,-0.3218,-0.3218,-0.3151,-0.3084,-0.3052,-0.2995,-0.2896,-0.2374,-0.2188,-0.2143,0.0,0.0,0.0,0.0,0.0,0.0,0.0,0.0,0.0,0.0,-0.7047,-0.7128,0.0,0.0,0.0,0.0,0.0,0.0,0.0,0.0,-0.8063,-0.7838,-0.8238,-0.8452,-0.8452,-0.842,-0.8247,-0.7954,-0.8279,-0.8279,-0.7954,-0.8153,-0.8049,-0.7715,-0.7666,-0.7478,-0.7195,-0.6928,-0.6585,-0.6186,-0.6155,-0.586,-0.5389,-0.5389,0.0,0.0,0.0,0.0,0.0,0.0,0.0,0.0,-0.4869,-0.4897,-0.4924,-0.5042,-0.4854,-0.4662,-0.4812,-0.4662,-0.4536,-0.4976,-0.5251,-0.5474,-0.573,-0.6177,-0.6478,-0.6373,-0.6204,-0.5999,-0.5675,-0.5522,-0.541,0.0,0.0,0.0,0.0,0.0,0.0,0.0,0.0,0.0,0.0,0.0,0.0,0.0,0.0,0.0,0.0,0.0,0.0,-0.3516,-0.2984,-0.2706,-0.2706,-0.2631,-0.2611,0.0,-0.2426,-0.2384,-0.2506,-0.2817,-0.2921,-0.2915,-0.2948,-0.2984,-0.2984,-0.2984,-0.285,-0.2686,-0.2861,-0.2712,-0.233,-0.167,-0.1324,-0.1079,0.0,0.0,0.0,0.0,0.0,0.0,0.0,0.0,0.0,0.0,0.0,0.0,0.0,0.0,0.0,0.0,0.0,0.0,0.0,0.0,-0.7966,-0.8095,-0.8101,-0.8117,-0.8117,-0.7857,-0.7684,-0.7619,-0.7954,-0.7954,-0.7629,-0.7817,-0.7625,-0.7111,-0.7297,-0.7031,-0.6414,-0.6381,-0.6193,-0.5945,-0.5845,-0.5628,-0.5389,-0.5274,-0.5003,0.0,0.0,0.0,0.0,0.0,0.0,0.0,-0.4739,-0.4822,-0.4869,-0.4794,-0.4745,-0.4669,-0.4607,-0.4615,-0.4697,-0.4882,-0.5246,-0.5597,-0.5776,-0.5886,-0.5922,-0.5787,-0.5825,-0.5839,-0.5753,-0.5657,0.0,0.0,0.0,0.0,0.0,0.0,0.0,0.0,0.0,0.0,0.0,0.0,0.0,0.0,0.0,0.0,0.0,0.0,0.0,-0.2901,-0.2762,-0.2706,-0.2706,-0.2237,-0.1948,0.0,-0.1378,-0.1056,-0.0946,-0.2092,-0.2438,-0.211,-0.1557,-0.1312,-0.1312,-0.1312,-0.1212,-0.101,-0.0948,-0.0883,-0.0747,-0.0441,-0.0306,-0.0238,0.0,0.0,0.0,0.0,0.0,0.0,0.0,0.0,0.0,0.0,0.0,0.0,0.0,0.0,0.0,0.0,0.0,0.0,0.0,0.0,0.0,-0.8091,-0.7884,-0.7759,-0.7759,-0.7587,-0.7391,-0.7204,-0.74,-0.74,-0.7204,-0.7405,-0.7194,-0.6655,-0.6907,-0.6714,-0.6211,-0.6085,-0.5909,-0.5648,-0.5577,-0.5396,-0.5158,-0.5121,-0.4926,-0.465,-0.4296,0.0,0.0,0.0,0.0,0.0,0.0,0.0,-0.3843,-0.3849,-0.3793,-0.3738,-0.3738,-0.3733,-0.3811,-0.4019,-0.4389,-0.4703,-0.4662,-0.4662,-0.4612,-0.4495,-0.5124,-0.5665,-0.5506,-0.5341,0.0,0.0,0.0,0.0,0.0,0.0,0.0,0.0,0.0,0.0,0.0,0.0,0.0,0.0,0.0,0.0,0.0,-0.2432,-0.2265,-0.2265,-0.1988,-0.1805,-0.1748,-0.1421,-0.1203,-0.1024,-0.0685,-0.0408,-0.0247,-0.1138,-0.1418,-0.122,-0.0837,-0.0645,-0.0652,-0.0644,-0.0573,-0.0404,-0.0337,-0.0236,-0.0135,-0.0034,0.0,0.0,0.0,0.0,0.0,0.0,0.0,0.0,0.0,0.0,0.0,0.0,0.0,0.0,0.0,0.0,0.0,0.0,0.0,0.0,0.0,0.0,0.0,-0.7922,-0.7587,-0.7391,-0.7391,-0.7326,-0.7138,-0.6819,-0.6778,-0.6812,-0.6847,-0.7,-0.6823,-0.6358,-0.6537,-0.6415,-0.6085,-0.5927,-0.5686,-0.5393,-0.5352,-0.5098,-0.4752,-0.4774,-0.4609,-0.4289,-0.3666,-0.3433,-0.3378,-0.2867,0.0,0.0,0.0,0.0,-0.2727,-0.2826,-0.2794,-0.2738,-0.285,-0.2807,-0.2822,-0.3111,-0.3423,-0.3582,-0.3413,-0.3366,-0.3342,-0.3234,-0.4248,-0.5097,-0.4822,0.0,0.0,0.0,0.0,0.0,0.0,0.0,0.0,0.0,0.0,0.0,0.0,0.0,0.0,0.0,0.0,0.0,-0.24,-0.1914,-0.1637,-0.1609,-0.1138,-0.0802,-0.0653,-0.0674,-0.056,-0.0373,-0.0219,-0.0094,0.0,-0.0292,-0.043,-0.0472,-0.0477,-0.0449,-0.0455,-0.0479,-0.0372,-0.0236,-0.0236,-0.0135,0.0,0.0,0.0034,0.0068,0.0,0.0,0.0,0.0,0.0,0.0,0.0,0.0,0.0,0.0,-0.7768,-0.7782,0.0,0.0,0.0,0.0,0.0,0.0,0.0,0.0,0.0,-0.7554,-0.7204,-0.6975,-0.6975,-0.6679,-0.6515,-0.6449,-0.635,-0.6402,-0.6632,-0.6553,-0.6407,-0.621,-0.6267,-0.6042,-0.5666,-0.5635,-0.5538,-0.5374,-0.5207,-0.4727,-0.4094,-0.4013,-0.3543,-0.2946,-0.2854,-0.2822,-0.2802,-0.2715,-0.271,0.0,0.0,0.0,-0.2694,-0.2731,-0.2706,-0.2706,-0.271,-0.2797,-0.2935,-0.316,-0.3236,-0.325,-0.3218,-0.3234,-0.323,-0.3218,-0.3361,-0.3494,0.0,0.0,0.0,0.0,0.0,0.0,0.0,0.0,0.0,0.0,0.0,0.0,0.0,0.0,0.0,0.0,0.0,0.0,-0.1149,-0.1065,-0.0966,-0.0849,-0.0755,-0.0644,-0.0429,-0.0506,-0.0417,-0.0225,-0.0099,-0.0034,0.0,-0.0035,-0.0172,-0.0338,-0.0319,-0.0321,-0.0315,-0.0314,-0.0206,-0.0034,-0.0034,-0.0034,0.0,0.0,0.0103,0.0279,0.0,0.0,0.0,0.0,0.0,0.0,0.0,0.0,0.0,0.0,0.0,-0.7849,0.0,0.0,0.0,0.0,0.0,0.0,0.0,0.0,0.0,-0.7171,-0.6811,-0.6581,-0.6515,-0.635,-0.6218,-0.6119,-0.6053,-0.6154,-0.6408,-0.5839,-0.586,-0.6432,-0.6207,-0.5766,-0.5146,-0.4938,-0.479,-0.4631,-0.4053,-0.3905,-0.3997,-0.3455,-0.3079,-0.2805,-0.2358,0.0,0.0,-0.1814,-0.1704,-0.1704,-0.1704,0.0,0.0,0.0,-0.1679,-0.1679,-0.1679,-0.1719,-0.1805,-0.1885,-0.1953,-0.1961,-0.1957,-0.197,-0.1977,-0.2008,-0.2003,-0.2197,0.0,0.0,0.0,0.0,0.0,0.0,0.0,0.0,0.0,0.0,0.0,0.0,0.0,0.0,0.0,0.0,0.0,-0.0894,-0.0894,-0.0833,-0.0756,-0.0696,-0.0624,-0.0507,-0.0285,-0.0359,-0.0298,-0.0099,-0.0033,0.0,0.0,0.0,-0.0036,-0.0144,-0.0145,-0.0146,-0.0146,-0.0142,-0.007,0.0,0.0,0.0,0.0,0.0,0.0138,0.0322,0.0,0.0,0.0,0.0,0.0,0.0,0.0,0.0,0.0,0.0,0.0,0.0,0.0,0.0,0.0,0.0,0.0,0.0,0.0,0.0,0.0,-0.6712,-0.6482,-0.6284,-0.6119,-0.6106,-0.6007,-0.5888,-0.5818,-0.5834,-0.5962,-0.5201,-0.5218,-0.5936,-0.561,-0.5064,-0.4389,-0.4136,-0.3982,-0.384,-0.3183,-0.3187,-0.3515,-0.2884,-0.2564,-0.2382,-0.1773,0.0,0.0,0.0,0.0,0.0,-0.0934,-0.0931,0.0,0.0,0.0,-0.0869,-0.0897,-0.0885,-0.0845,-0.0882,-0.093,-0.0984,-0.0984,-0.0996,-0.1008,0.0,-0.1054,0.0,0.0,0.0,0.0,0.0,0.0,0.0,0.0,0.0,0.0,0.0,0.0,0.0,0.0,0.0,0.0,0.0,0.0,-0.0857,-0.0835,-0.0707,-0.0625,-0.0562,-0.0483,-0.0359,-0.0163,-0.02,-0.0135,0.0,0.0237,0.0346,0.0355,0.0545,0.0634,0.061,0.0187,0.0,0.0,0.0,0.0107,0.028,0.0274,0.045,0.067,0.0652,0.0844,0.1099,0.0,0.0,0.0,0.0,0.0,0.0,0.0,0.0,0.0,0.0,0.0,0.0,0.0,-0.7989,-0.7737,-0.7173,0.0,0.0,0.0,0.0,0.0,-0.6243,-0.621,0.0,-0.5921,-0.5796,-0.5796,-0.5888,-0.5578,-0.5312,-0.5073,-0.4776,-0.4458,-0.4107,-0.3836,-0.3617,-0.3379,-0.3375,-0.3336,-0.3324,-0.3238,-0.2785,-0.2191,-0.2157,0.0,0.0,0.0,0.0,0.0,0.0,0.0,0.0,0.0,0.0,-0.098,0.0,0.0,0.0,-0.0869,-0.0814,-0.0737,-0.0877,-0.0914,-0.0923,-0.0984,-0.1013,-0.1001,-0.1002,-0.1057,0.0,0.0,0.0,0.0,0.0,0.0,0.0,0.0,0.0,0.0,0.0,0.0,0.0,0.0,0.0,0.0,0.0,0.0,-0.0717,-0.0708,-0.0571,-0.0419,-0.0225,-0.0265,-0.0202,0.0,0.0,0.0,0.0,0.0829,0.1241,0.1275,0.201,0.2365,0.2265,0.0703,0.0,0.0,0.0,0.0403,0.1051,0.1049,0.1632,0.2455,0.2461,0.2808,0.3231,0.0,0.0,0.0,0.0,0.0,0.0,0.0,0.0,0.0,0.0,0.0,0.0,0.0,-0.7684,-0.7493,-0.7007,-0.6743,0.0,0.0,0.0,0.0,-0.602,-0.602,-0.5921,-0.5716,-0.5658,-0.5396,-0.4888,-0.474,-0.4529,-0.4159,-0.3394,-0.3062,-0.3102,-0.3417,-0.3215,-0.2722,-0.2573,-0.2525,-0.2484,-0.1904,-0.184,-0.2022,0.0,0.0,0.0,0.0,0.0,0.0,0.0,0.0,0.0,0.0,0.0,0.0,-0.0598,-0.0634,-0.0673,-0.0589,-0.0533,-0.0506,-0.0569,-0.0685,-0.0778,-0.0803,-0.0922,-0.101,-0.0997,-0.1057,0.0,0.0,0.0,0.0,0.0,0.0,0.0,0.0,0.0,0.0,0.0,0.0,0.0,0.0,0.0,0.0,0.0,0.0,0.0,-0.0572,-0.0458,-0.0332,-0.0266,-0.0168,-0.0067,0.0,0.0,0.0,0.0,0.0899,0.1315,0.1313,0.2126,0.2485,0.2465,0.1879,0.1598,0.1621,0.1596,0.1756,0.2017,0.2128,0.2402,0.2743,0.2858,0.3106,0.3385,0.0,0.0,0.0,0.0,0.0,0.0,0.0,0.0,0.0,0.0,0.0,0.0,0.0,0.0,-0.7138,-0.6712,-0.6449,-0.6251,-0.6119,-0.6112,-0.602,-0.5822,-0.5789,-0.5583,-0.5186,-0.5088,-0.4697,-0.3918,-0.3881,-0.3641,-0.3196,-0.2512,-0.2164,-0.2148,-0.2524,-0.2417,-0.1955,-0.1835,-0.177,-0.1716,-0.1061,-0.115,-0.1574,0.0,0.0,0.0,0.0,0.0,0.0,0.0,0.0,0.0,0.0,0.0,0.0,0.0,-0.0472,-0.0522,-0.0435,-0.0374,-0.0342,-0.0399,-0.0509,-0.0621,-0.0692,-0.0779,-0.087,-0.0983,0.0,0.0,0.0,0.0,0.0,0.0,0.0,0.0,0.0,0.0,0.0,0.0,0.0,0.0,0.0,0.0,0.0,0.0,0.0,0.0,-0.0426,-0.03,-0.0101,0.0168,0.0067,0.0236,0.0706,0.0471,0.0471,0.0707,0.1639,0.2077,0.2114,0.2935,0.3354,0.3327,0.3327,0.3012,0.2501,0.2576,0.2734,0.2972,0.3183,0.3491,0.3834,0.3958,0.4152,0.4365,0.0,0.0,0.0,0.0,0.0,0.0,0.0,0.0,0.0,-0.753,0.0,0.0,0.0,0.0,0.0,-0.6243,-0.6178,-0.6119,-0.5888,-0.5888,-0.5789,-0.5583,0.0,0.0,-0.4284,-0.4061,-0.3709,-0.3184,-0.3046,-0.2709,-0.2165,-0.2165,-0.1807,-0.1199,-0.1132,-0.1084,-0.1083,-0.1088,-0.1092,-0.1075,0.0,-0.0787,-0.0775,0.0,0.0,0.0,-0.0383,-0.038,0.0,-0.0447,0.0,0.0,0.0,0.0,0.0,0.0,0.0,-0.0185,0.0,0.0,0.0,-0.0295,-0.0345,-0.0421,-0.0618,-0.0561,-0.0587,-0.0927,0.0,0.0,0.0,0.0,0.0,0.0,0.0,0.0,0.0,0.0,0.0,0.0,0.0,0.0,0.0,0.0,0.0,0.0,0.0,-0.0229,-0.0269,-0.0067,0.0404,0.1109,0.0438,0.0706,0.208,0.1443,0.1445,0.2116,0.3122,0.36,0.3644,0.4561,0.5018,0.5018,0.5018,0.4073,0.2582,0.2778,0.3319,0.3964,0.419,0.4902,0.5806,0.5806,0.6011,0.63,0.0,0.0,0.0,0.0,0.0,0.0,0.0,0.0,-0.7088,0.0,0.0,0.0,-0.6424,-0.6251,-0.6119,-0.5987,-0.5987,-0.5888,-0.5683,-0.5683,-0.5385,-0.4683,-0.4649,-0.4284,-0.3518,-0.3464,-0.3103,-0.2415,-0.2378,-0.2023,-0.1394,-0.1394,-0.123,-0.0929,-0.1005,-0.0903,-0.0681,-0.0979,-0.1057,-0.0993,-0.0703,-0.0673,0.0,0.0,0.0,0.0,0.0,-0.0126,-0.0032,0.0,0.0293,-0.0132,0.0,0.0,0.0,0.0,0.0,0.0,0.1261,0.0,0.0,0.0,0.0,0.0,0.0,0.0,-0.0525,-0.0618,0.0,0.0,0.0,0.0,0.0,0.0,0.0,0.0,0.0,0.0,0.0,0.0,0.0,0.0,0.0,0.0,0.0,0.0,-0.01,0.0167,0.0672,0.121,0.1611,0.1812,0.1611,0.1712,0.208,0.1913,0.1966,0.2247,0.3149,0.3633,0.378,0.4596,0.5018,0.5018,0.5168,0.4968,0.4535,0.4574,0.483,0.515,0.5343,0.5611,0.588,0.6078,0.622,0.63,0.0,0.0,0.0,0.0,0.0,0.0,-0.7602,-0.732,-0.7057,0.0,0.0,0.0,-0.6104,-0.6015,-0.5929,-0.5789,-0.5789,-0.569,-0.5517,-0.5219,-0.4821,-0.4323,-0.4018,-0.3485,-0.275,-0.2751,-0.2354,-0.1546,-0.1561,-0.1329,-0.0841,-0.0841,-0.0774,-0.0674,-0.0762,-0.0688,-0.0521,-0.0757,-0.0817,0.0,-0.0502,0.0,0.0,-0.0161,0.0128,0.0,0.0,0.0,0.0558,0.1278,0.1061,0.0,0.0,0.0,0.0,0.0,0.0,0.0,0.0,0.0,0.0,0.0,0.0,0.0,0.0897,0.0477,0.0031,0.0,0.0,0.0,0.0,0.0,0.0,0.0,0.0,0.0,0.0,0.0,0.0,0.0,0.0,0.0,0.0,0.0,0.0,0.084,0.0874,0.1076,0.1477,0.1879,0.2248,0.2549,0.2248,0.2382,0.3021,0.2781,0.2819,0.3217,0.3813,0.4133,0.4237,0.4843,0.5129,0.5129,0.5323,0.5479,0.555,0.555,0.5634,0.575,0.5983,0.606,0.6099,0.6261,0.63,0.63,0.0,0.0,0.0,-0.7987,-0.8079,-0.8024,-0.7555,-0.7304,-0.7095,0.0,-0.6473,-0.6107,-0.594,-0.5992,-0.5911,-0.5619,-0.5598,-0.5484,-0.5292,-0.4655,-0.4184,-0.4051,-0.3384,-0.2683,-0.1946,-0.1932,-0.1537,-0.0772,-0.0753,-0.0687,-0.0504,-0.0504,-0.0504,-0.0469,-0.0502,-0.0487,-0.0433,-0.0473,0.0,-0.0301,-0.0246,-0.0251,0.0,0.0,0.0539,0.1113,0.1175,0.1202,0.1311,0.1913,0.1745,0.0,0.0,0.0,0.0,0.0,0.1745,0.0,0.0,0.0,0.0,0.0,0.0,0.0,0.1238,0.1128,0.0943,0.0,0.0,0.0,0.0,0.0,0.0,0.0,0.0,0.0,0.0,0.0,0.0,0.0,0.0,0.0,0.0,0.121,0.1443,0.2047,0.2181,0.2214,0.2214,0.2315,0.2653,0.333,0.2686,0.2995,0.4338,0.3806,0.3853,0.4547,0.473,0.4838,0.4855,0.5195,0.5323,0.5362,0.5556,0.575,0.5899,0.5938,0.5938,0.5983,0.6222,0.63,0.63,0.63,0.63,0.63,0.0,0.0,-0.7694,-0.7619,-0.7502,-0.7385,-0.7272,-0.7129,-0.6958,-0.6679,-0.6354,-0.6114,-0.6079,-0.5853,-0.5679,-0.5617,-0.55,-0.5193,-0.4556,-0.4217,-0.3547,-0.2412,-0.2078,-0.1577,-0.0841,-0.0804,-0.0728,-0.0553,-0.055,-0.055,-0.0488,-0.0488,-0.0456,-0.0358,-0.0445,-0.0344,-0.0092,-0.0206,0.0,0.0872,0.0065,0.0,-0.0202,0.0572,0.0975,0.1178,0.1722,0.1922,0.1913,0.0,0.2415,0.2679,0.0,0.0,0.0,0.0,0.0,0.0,0.0,0.0,0.0,0.0,0.0,0.0,0.2767,0.2309,0.183,0.0,0.0,0.0,0.0,0.0,0.0,0.0,0.0,0.0,0.0,0.0,0.0,0.0,0.0,0.0,0.0,0.1913,0.1946,0.208,0.2649,0.2984,0.2984,0.3556,0.4001,0.4224,0.4006,0.4115,0.4618,0.4402,0.4425,0.4725,0.4955,0.5109,0.5206,0.5428,0.5556,0.5556,0.575,0.586,0.5899,0.6138,0.6222,0.6222,0.63,0.63,0.63,0.63,0.63,0.63,-0.8161,-0.7782,-0.7461,-0.7365,-0.7343,-0.7303,-0.7128,-0.7004,-0.69,-0.6755,-0.65,-0.6198,-0.5964,-0.5842,-0.5603,-0.5111,-0.5002,0.0,0.0,0.0,-0.2579,-0.1776,-0.1309,-0.0875,-0.0506,-0.0506,-0.0469,-0.0396,-0.0396,-0.0363,-0.0264,-0.0264,-0.0033,0.0395,-0.0065,0.0032,0.0524,0.0093,0.0443,0.1248,0.0638,0.0,0.1118,0.146,0.1862,0.229,0.2562,0.2883,0.3147,0.2708,0.285,0.0,0.0,0.2586,0.2713,0.0,0.3451,0.3837,0.0,0.0,0.0,0.4498,0.0,0.0,0.0,0.2959,0.2543,0.2128,0.2009,0.197,0.1909,0.0,0.0,0.0,0.0,0.0,0.0,0.0,0.0,0.0,0.0,0.0,0.2613,0.2649,0.2817,0.3155,0.3556,0.378,0.3827,0.4212,0.4471,0.4591,0.4542,0.4569,0.469,0.4654,0.475,0.494,0.5115,0.5298,0.544,0.5673,0.575,0.575,0.5983,0.6099,0.6099,0.6261,0.63,0.63,0.63,0.63,0.63,0.63,0.634,0.6409,-0.7456,-0.7326,-0.725,-0.7076,-0.7199,-0.7195,-0.6952,0.0,-0.6864,-0.6859,-0.6482,-0.6091,-0.573,-0.5582,-0.5167,-0.4334,0.0,0.0,0.0,0.0,0.0,-0.1376,-0.074,-0.0404,-0.0404,-0.0404,-0.0336,-0.0234,-0.0234,-0.0167,0.0,0.0,0.0301,0.0874,0.0438,0.0591,0.11,0.066,0.0969,0.1778,0.0,0.1936,0.2443,0.2359,0.2764,0.3413,0.344,0.3818,0.4216,0.3507,0.0,0.3405,0.327,0.3329,0.0,0.0,0.0,0.0,0.0,0.0,0.0,0.0,0.0,0.4378,0.0,0.0,0.0,0.2609,0.2453,0.2407,0.2363,0.2263,0.0,0.0,0.0,0.0,0.0,0.0,0.0,0.0,0.0,0.0,0.0,0.3418,0.3656,0.4267,0.4322,0.4371,0.4498,0.4525,0.4597,0.4717,0.4701,0.4712,0.4761,0.4832,0.4957,0.5124,0.531,0.5518,0.5673,0.5867,0.5996,0.6022,0.6263,0.6361,0.6381,0.6381,0.6381,0.6381,0.6354,0.634,0.634,0.6375,0.6457,0.6559,-0.6907,-0.6712,-0.6523,-0.6515,-0.6493,-0.6557,-0.6643,0.0,-0.6693,-0.6792,-0.5839,-0.5232,-0.5344,0.0,0.0,0.0,0.0,0.0,-0.1799,0.0,0.0,-0.0471,-0.0202,-0.0067,-0.0067,-0.0067,-0.0033,-0.0032,-0.0032,-0.0032,0.0,0.0,0.0033,0.0169,0.0841,0.1207,0.1332,0.1941,0.2723,0.0,0.3379,0.2917,0.0,0.2883,0.3207,0.3491,0.4107,0.4412,0.4431,0.0,0.4156,0.4161,0.0,0.4156,0.4182,0.0,0.0,0.0,0.0,0.0,0.0,0.0,0.4679,0.0,0.0,0.0,0.4258,0.3934,0.0,0.3825,0.3707,0.0,0.0,0.0,0.0,0.0,0.0,0.0,0.0,0.0,0.0,0.0,0.0,0.4167,0.42,0.43,0.4393,0.4492,0.4503,0.4608,0.4723,0.4774,0.4744,0.4794,0.4974,0.5028,0.5147,0.53,0.5661,0.586,0.586,0.6138,0.6329,0.6444,0.6444,0.6566,0.6654,0.6654,0.6654,0.6634,0.6545,0.6491,0.6504,0.66,0.6661,0.6675,-0.6564,-0.6449,-0.6316,-0.6386,-0.6329,-0.6333,0.0,0.0,-0.6688,-0.6617,-0.5856,-0.5301,0.0,0.0,0.0,0.0,0.0,-0.1791,0.0,0.0,0.0,0.0,0.0,0.0,0.0,0.0,0.0,0.0,0.0,0.0,0.0,0.0504,0.0954,0.1344,0.1785,0.2234,0.2617,0.2521,0.2999,0.0,0.0,0.0,0.0,0.3975,0.4106,0.4176,0.4426,0.4503,0.4487,0.0,0.43,0.0,0.0,0.0,0.0,0.0,0.0,0.0,0.0,0.0,0.0,0.0,0.0,0.0,0.0,0.0,0.458,0.0,0.0,0.0,0.0,0.0,0.0,0.0,0.3992,0.0,0.0,0.0,0.0,0.0,0.0,0.0,0.0,0.0,0.0,0.0,0.4344,0.4465,0.4602,0.4662,0.4777,0.4898,0.4893,0.4985,0.5168,0.5189,0.5343,0.5667,0.5822,0.5983,0.6138,0.6261,0.6375,0.6511,0.6511,0.6559,0.6702,0.6702,0.6702,0.6702,0.6729,0.6681,0.6614,0.6675,0.6756,0.6817,-0.6172,-0.6147,-0.6081,-0.6179,-0.6067,-0.6021,0.0,0.0,-0.6238,-0.6189,-0.5301,0.0,-0.4554,-0.3423,0.0,0.0,-0.1477,-0.1,0.0,0.0,-0.0144,0.0,0.0,0.0,0.0,0.0,0.0,0.0,0.0239,0.0342,0.0379,0.1229,0.1882,0.236,0.2677,0.3118,0.3615,0.3276,0.3523,0.4128,0.4015,0.4351,0.4828,0.475,0.469,0.4679,0.4586,0.4575,0.455,0.4436,0.4376,0.0,0.4387,0.0,0.0,0.0,0.0,0.0,0.4755,0.0,0.0,0.0,0.0,0.0,0.0,0.0,0.0,0.0,0.0,0.0,0.0,0.0,0.4067,0.0,0.0,0.0,0.0,0.0,0.0,0.0,0.0,0.0,0.0,0.0,0.0,0.43,0.4327,0.4471,0.4679,0.4723,0.48,0.5012,0.5057,0.5168,0.5279,0.5395,0.5628,0.5899,0.5983,0.6099,0.63,0.63,0.6402,0.6532,0.6532,0.6805,0.7196,0.7196,0.7196,0.7211,0.7282,0.7232,0.7055,0.6888,0.6992,0.7204,-0.5683,-0.5713,-0.5713,-0.5721,-0.5562,0.0,0.0,0.0,0.0,0.0,0.0,0.0,0.0,0.0,0.0,0.0,0.0,-0.0043,0.0,0.0,0.0,0.0,0.0,0.0,0.0,0.0,0.0,0.0,0.0841,0.1241,0.1273,0.2073,0.2467,0.2524,0.3235,0.3659,0.3852,0.446,0.4822,0.4968,0.4968,0.4973,0.4985,0.0,0.469,0.469,0.4684,0.0,0.0,0.4717,0.4597,0.0,0.0,0.0,0.0,0.0,0.0,0.0,0.0,0.0,0.0,0.5018,0.0,0.0,0.0,0.0,0.4795,0.0,0.0,0.0,0.0,0.0,0.4454,0.0,0.0,0.0,0.0,0.0,0.0,0.0,0.0,0.0,0.0,0.0,0.0,0.43,0.4438,0.4553,0.4684,0.4762,0.4849,0.5012,0.5207,0.5279,0.5279,0.5667,0.5899,0.5899,0.6177,0.63,0.63,0.63,0.6457,0.6695,0.6695,0.7359,0.844,0.844,0.844,0.844,0.8448,0.83,0.7994,0.7337,0.7512,0.8071,-0.5215,-0.5255,-0.5385,-0.5582,-0.5513,0.0,0.0,-0.4566,0.0,0.0,0.0,0.0,0.0,-0.1158,-0.0435,0.0,0.0,0.0,0.0,0.0,0.0,0.0,0.0,0.0501,0.0,0.0,0.0,0.0,0.1871,0.2022,0.2112,0.2962,0.3373,0.34,0.419,0.4553,0.4618,0.4815,0.0,0.0,0.0,0.5018,0.4991,0.0,0.0,0.4871,0.4744,0.473,0.0,0.4882,0.4794,0.4662,0.4828,0.488,0.4908,0.4992,0.5133,0.0,0.0,0.0,0.627,0.606,0.0,0.0,0.0,0.0,0.0,0.0,0.0,0.0,0.0,0.0,0.0,0.0,0.0,0.0,0.0,0.0,0.0,0.0,0.0,0.0,0.0,0.0,0.0,0.4489,0.4461,0.4597,0.4997,0.505,0.5179,0.5395,0.5479,0.5556,0.5705,0.5822,0.6247,0.6942,0.725,0.7659,0.813,0.7701,0.7599,0.7766,0.7766,0.8025,0.8544,0.9192,0.941,0.941,0.941,0.9495,0.9432,0.8338,0.8378,0.8982,-0.5126,-0.5076,-0.5162,-0.5387,0.0,0.0,0.0,0.0,0.0,0.0,-0.2321,0.0,-0.1517,0.0,-0.0303,0.0,-0.0099,0.0,0.0,0.031,0.0,0.1317,0.1101,0.0,0.0,0.0,0.0,0.0,0.0,0.2891,0.2915,0.3823,0.4213,0.4251,0.4706,0.4936,0.5012,0.493,0.4941,0.0,0.0,0.5018,0.0,0.0,0.4882,0.4996,0.0,0.486,0.498,0.5099,0.5007,0.4914,0.5078,0.5107,0.51,0.519,0.5271,0.5436,0.6013,0.6366,0.0,0.6513,0.6811,0.0,0.5783,0.0,0.0,0.0,0.0,0.0,0.0,0.0,0.0,0.0,0.0,0.0,0.0,0.5734,0.0,0.0,0.0,0.0,0.0,0.0,0.4392,0.4525,0.4528,0.4724,0.517,0.0,0.5316,0.5589,0.5673,0.5906,0.6356,0.644,0.698,0.794,0.8208,0.8611,0.9094,0.8738,0.8687,0.8776,0.8776,0.906,0.954,1.0139,1.0399,1.0399,1.0277,1.0419,1.0517,0.9329,0.9446,1.02,-0.5399,-0.5224,0.0,0.0,-0.4568,0.0,0.0,0.0,-0.191,0.0,-0.1167,-0.06,-0.0415,-0.037,-0.0264,0.0051,0.0103,0.0,0.0187,0.1002,0.0,0.0,0.2311,0.2739,0.2829,0.0,0.0,0.0,0.0,0.3861,0.3672,0.4573,0.5018,0.5012,0.4849,0.4866,0.5018,0.4855,0.4876,0.5034,0.5034,0.504,0.504,0.5034,0.504,0.504,0.5029,0.5099,0.5214,0.538,0.5336,0.5219,0.538,0.5219,0.5078,0.5383,0.5289,0.5134,0.5365,0.5744,0.619,0.6525,0.0,0.0,0.0,0.0,0.6896,0.0,0.0,0.0,0.0,0.0,0.0,0.0,0.0,0.0,0.0,0.0,0.0,0.0,0.0,0.0,0.0,0.4794,0.474,0.4458,0.4689,0.4971,0.0,0.0,0.5427,0.5667,0.5867,0.6402,0.728,0.7488,0.7987,0.878,0.9047,0.9232,0.9222,0.9485,0.9657,0.9766,0.9766,1.0349,1.1284,1.137,1.137,1.1348,1.1121,1.1191,1.1283,1.0314,1.0665,1.1694,-0.5419,-0.4862,-0.4048,0.0,-0.2579,-0.2579,0.0,0.0,0.0,0.0,-0.0556,-0.0313,-0.0109,-0.011,0.0276,0.1256,0.1232,0.0,0.0,0.0,0.0,0.353,0.3113,0.3432,0.4659,0.3932,0.0,0.4457,0.0,0.4604,0.466,0.4885,0.5018,0.5012,0.4849,0.4909,0.5137,0.5018,0.5089,0.5279,0.5279,0.5333,0.0,0.0,0.5333,0.5346,0.5208,0.5219,0.538,0.5464,0.5426,0.5344,0.5464,0.5488,0.5624,0.6179,0.6435,0.6749,0.7927,0.859,0.8867,0.8466,0.8867,0.9028,0.0,0.0,0.0,0.0,0.0,0.0,0.0,0.0,0.0,0.0,0.0,0.0,0.0,0.0,0.0,0.8278,0.0,0.0,0.0,0.5632,0.5306,0.493,0.5391,0.5664,0.0,0.0,0.0,0.7011,0.7057,0.748,0.8313,0.8583,0.901,0.9587,1.0269,1.0814,1.1192,1.095,1.0878,1.0888,1.0888,1.1059,1.137,1.2057,1.2443,1.2613,1.2541,1.2649,1.2741,1.2286,1.2376,1.279,-0.489,0.0,0.0,-0.1961,0.0,0.0,-0.1418,0.0,0.0,-0.0253,-0.0208,0.0,0.0,0.0447,0.1061,0.1717,0.2161,0.0,0.338,0.0,0.0,0.4361,0.4146,0.4476,0.5371,0.4801,0.0,0.4991,0.0,0.4942,0.486,0.4969,0.5018,0.5012,0.4909,0.4985,0.511,0.5099,0.517,0.5336,0.5391,0.0,0.0,0.5453,0.5448,0.5497,0.5453,0.5436,0.5469,0.5545,0.58,0.6006,0.6034,0.6313,0.6642,0.7084,0.7217,0.7454,0.8604,0.9261,0.9603,0.9634,1.0108,1.0293,0.9169,0.9083,0.9165,0.0,0.0,0.0,0.0,0.0,0.0,0.0,0.0,0.0,0.0,0.0,0.0,0.0,0.8953,0.0,0.0,0.6511,0.5822,0.6246,0.6325,0.6537,0.0,0.0,0.0,0.8008,0.8133,0.8604,0.9376,0.9665,1.0121,1.0784,1.1346,1.1775,1.2067,1.1958,1.1929,1.1929,1.1929,1.1929,1.1972,1.2613,1.2966,1.3107,1.3446,1.3544,1.355,1.3726,1.3732,1.3587,-0.3929,0.0,0.0,0.0,0.0,0.0,0.0,-0.0287,0.0,-0.0052,0.0,0.0054,0.0219,0.1164,0.1886,0.2239,0.0,0.3656,0.3799,0.4376,0.4716,0.4723,0.5255,0.5481,0.5462,0.5404,0.0,0.0,0.0,0.509,0.479,0.4985,0.5096,0.5096,0.5079,0.509,0.5123,0.5256,0.5322,0.535,0.5496,0.5541,0.5552,0.5577,0.5616,0.5719,0.5824,0.5709,0.5545,0.5653,0.6124,0.6694,0.6776,0.7178,0.7619,0.7884,0.7804,0.7822,0.8522,0.9034,0.9558,1.0325,1.0965,1.1278,1.0689,1.0708,1.0752,1.0336,0.9833,0.981,0.0,0.0,0.0,0.0,0.0,0.0,0.0,0.0,0.0,0.0,0.0,0.0,0.0,0.0,0.6579,0.7762,0.7395,0.0,0.0,0.0,0.0,0.8846,0.9135,0.0,1.0467,0.0,1.1255,1.1886,1.2228,1.2349,1.2324,1.2578,1.2699,1.2699,1.2753,1.2753,1.2796,1.3052,1.3137,1.3247,1.397,1.4104,1.4002,1.4759,1.4713,1.4202,-0.235,0.0,0.0,0.0,0.0,-0.0048,-0.0051,-0.0052,-0.0053,0.0,0.0,0.039,0.1394,0.16,0.2463,0.4416,0.4552,0.0,0.0,0.0,0.0,0.5816,0.5737,0.5648,0.5626,0.5529,0.5424,0.0,0.0,0.0,0.529,0.5407,0.5485,0.5479,0.5442,0.5553,0.5731,0.5764,0.0,0.6194,0.6218,0.623,0.6186,0.6039,0.6354,0.6794,0.6643,0.6195,0.5659,0.568,0.5774,0.5997,0.6605,0.6895,0.7183,0.8352,0.8669,0.8888,0.9919,1.0545,1.0942,1.1113,1.1645,1.1993,1.1487,1.1543,1.1662,1.1575,1.1483,1.1472,1.1714,0.0,0.0,0.0,0.0,0.0,0.0,0.0,0.0,0.0,0.0,0.0,0.0,0.0,0.0,0.0,0.0,0.0,0.0,0.0,0.0,0.0,0.9949,0.0,0.0,0.0,1.1968,1.1926,1.2409,1.2518,1.2324,1.2578,1.2699,1.2711,1.2924,1.3009,1.3052,1.3264,1.3434,1.3642,1.4229,1.4396,1.4466,1.5097,1.5097,1.4821,-0.1015,0.0,0.0,0.0,0.0,0.0,0.0,0.0995,0.0,0.0921,0.0931,0.1377,0.2619,0.3161,0.3926,0.5126,0.554,0.597,0.6478,0.6246,0.6056,0.5996,0.5822,0.0,0.5813,0.5751,0.565,0.5619,0.0,0.0,0.5292,0.5504,0.552,0.534,0.5455,0.5556,0.5727,0.0,0.0,0.638,0.6926,0.7129,0.7173,0.7562,0.7914,0.8177,0.8082,0.7826,0.743,0.6959,0.7048,0.7401,0.779,0.8317,0.8886,0.9331,0.9811,1.0279,1.0809,1.1327,1.1714,1.1972,1.2263,1.2433,1.2211,1.2254,1.2288,1.2155,1.2119,1.2042,1.195,1.1886,0.0,0.0,0.0,0.0,0.0,0.0,0.0,0.0,0.0,0.0,0.0,0.0,0.0,0.0,0.0,0.0,0.0,0.0,0.0,0.0,0.0,0.0,0.0,0.0,0.0,1.2324,1.2578,1.2638,1.2518,1.265,1.2699,1.2711,1.2839,1.2966,1.3149,1.3643,1.3922,1.4177,1.4759,1.4883,1.4803,1.5231,1.5311,1.5164,0.0,0.0,0.0,0.0,0.0211,0.0,0.1849,0.2136,0.2201,0.2218,0.22,0.2615,0.3799,0.469,0.5252,0.55,0.611,0.6502,0.6404,0.6176,0.6048,0.6001,0.584,0.5863,0.6016,0.6016,0.5966,0.0,0.0,0.0,0.0,0.5604,0.5587,0.5375,0.0,0.0,0.0,0.0,0.681,0.7146,0.7912,0.8265,0.8309,0.9,0.9392,0.9479,0.9435,0.9522,0.9522,0.879,0.8755,0.8973,0.9148,0.9802,1.0506,1.0332,1.0766,1.1327,1.1413,1.1714,1.21,1.2571,1.2699,1.2699,1.2699,1.2699,1.265,1.2445,1.2397,1.2337,1.2131,1.2083,0.0,0.0,0.0,0.0,0.0,0.0,0.0,0.0,0.0,0.0,0.0,0.0,0.0,0.0,0.0,0.0,0.0,0.0,0.0,0.0,0.0,1.2047,1.2312,0.0,1.2699,0.0,1.2699,1.2699,1.2699,1.2699,1.2741,1.2796,1.2826,1.3046,1.3463,1.4026,1.4388,1.4669,1.519,1.5217,1.5048,1.5284,1.5311,1.5217,0.0,0.0,0.0,0.0,0.0,0.0,0.1999,0.2907,0.3619,0.3608,0.3493,0.3824,0.4959,0.5046,0.5396,0.6401,0.6387,0.6344,0.6333,0.6056,0.6007,0.623,0.6155,0.6163,0.6366,0.6366,0.6319,0.0,0.0,0.0,0.0,0.0,0.0,0.0,0.0,0.0,0.0,0.7878,0.8494,0.9591,0.9653,0.9705,0.9705,0.9575,0.9932,1.0453,1.0269,1.0572,1.1101,1.1015,1.0183,0.9305,0.9966,1.0226,1.0443,1.1015,1.1241,1.1413,1.1843,1.1972,1.21,1.2571,1.2699,1.2699,1.2699,1.2699,1.2699,1.2674,1.2662,1.2662,1.2638,1.2638,1.2638,0.0,0.0,0.0,0.0,0.0,0.0,0.0,0.0,0.0,0.0,0.0,0.0,0.0,0.0,0.0,0.0,0.0,0.0,1.1477,0.0,1.2047,1.2312,1.2578,0.0,1.2699,1.2699,1.2699,1.2699,1.2699,1.2839,1.3052,1.3264,1.3716,1.4352,1.4422,1.4683,1.4995,1.5271,1.5217,1.5048,1.5284,1.5057,1.4643,0.0,0.0,0.0,0.0,0.0,0.0,0.0,0.4657,0.523,0.6025,0.5311,0.5114,0.6181,0.6173,0.6223,0.6576,0.6404,0.6284,0.6165,0.6142,0.615,0.6166,0.6242,0.639,0.6656,0.6656,0.6655,0.0,0.0,0.0,0.0,0.0,0.0,0.0,0.0,0.795,0.8945,0.9111,0.9416,0.9966,1.0496,1.0755,1.0799,1.1273,1.1617,1.1843,1.1789,1.1929,1.2143,1.2143,1.1402,1.0529,1.0799,1.1101,1.1316,1.1284,1.1714,1.21,1.2015,1.2229,1.2485,1.2656,1.2699,1.2699,1.2699,1.2699,1.2699,1.2699,1.2699,1.2699,1.2699,1.2699,1.2699,0.0,0.0,0.0,0.0,0.0,0.0,0.0,0.0,0.0,0.0,0.0,0.0,0.0,0.0,0.0,0.0,0.0,0.0,1.1718,0.0,1.2119,1.2542,1.265,1.2699,1.2699,1.2699,1.2796,1.2924,1.2924,1.3052,1.3319,1.3698,1.4056,1.4375,1.4852,1.511,1.5231,1.5351,1.5217,1.4995,1.4897,1.4723,1.4536,0.0,0.0,0.0907,0.0,0.2658,0.3728,0.5536,0.609,0.6556,0.7482,0.6604,0.6196,0.6899,0.6844,0.6698,0.6578,0.6382,0.6262,0.6189,0.6253,0.6309,0.6314,0.6435,0.0,0.6877,0.6877,0.6919,0.695,0.6907,0.0,0.0,0.0,0.0,0.0,0.8505,0.9076,0.9969,1.0211,1.0486,1.0788,1.1445,1.1714,1.18,1.2443,1.2699,1.2699,1.2699,1.2699,1.2699,1.2699,1.2272,1.1714,1.1714,1.1929,1.2143,1.18,1.2186,1.2613,1.2314,1.2443,1.2699,1.2699,1.2699,1.2699,1.2699,1.2699,1.2699,1.2699,1.2699,1.2699,1.2699,1.2699,1.2699,1.2699,0.0,0.0,0.0,0.0,0.0,0.0,0.0,0.0,0.0,0.0,0.0,0.0,0.0,0.0,0.0,0.0,0.0,0.0,0.0,0.0,0.0,1.2796,1.2839,1.2839,1.2881,1.3009,1.3179,1.3352,1.3519,1.366,1.4217,1.4476,1.4581,1.5185,1.5444,1.5524,1.5524,1.5297,1.4981,1.4723,1.4589,1.4522,0.0,0.1047,0.196,0.2023,0.4122,0.5811,0.5726,0.6705,0.7417,0.7298,0.723,0.7111,0.6997,0.6768,0.6573,0.6398,0.6333,0.631,0.6367,0.6345,0.6445,0.0,0.0,0.6877,0.7098,0.7098,0.7098,0.7092,0.0,0.0,0.6833,0.0,0.8703,0.9575,0.9792,1.0399,1.1273,1.1284,1.1843,1.2656,1.2668,1.2656,1.2656,1.2699,1.2699,1.2699,1.2699,1.2699,1.2699,1.2699,1.2699,1.2656,1.2656,1.2699,1.2699,1.2656,1.2699,1.2699,1.2699,1.2699,1.2699,1.2699,1.2699,1.2699,1.2699,1.2699,1.2699,1.2699,1.2699,1.2699,1.2699,1.2699,1.2699,1.2699,0.0,0.0,0.0,0.0,0.0,0.0,0.0,0.0,1.1105,0.0,0.0,0.0,0.0,0.0,0.0,0.0,0.0,1.1874,1.2168,0.0,1.2699,1.2966,1.3094,1.3094,1.3307,1.3392,1.3404,1.3944,1.4204,1.423,1.4741,1.5124,1.5391,1.5391,1.5565,1.5784,1.5784,1.5471,1.5008,1.5008,1.4776,1.4522,0.1332,0.2345,0.3502,0.4468,0.5352,0.6202,0.7089,0.7475,0.7627,0.7589,0.7334,0.7221,0.7262,0.6945,0.6717,0.0,0.6628,0.6599,0.0,0.6848,0.6901,0.695,0.7217,0.7362,0.7455,0.7353,0.7299,0.7299,0.0,0.0,0.0,0.9226,0.9879,1.0755,1.0842,1.1359,1.2229,1.2229,1.2443,1.2699,1.2699,1.2699,1.2699,1.2699,1.2699,1.2699,1.2699,1.2699,1.2699,1.2699,1.2831,1.2988,1.2988,1.2856,1.2699,1.2699,1.2699,1.2699,1.2699,1.2699,1.2699,1.2699,1.2699,1.2699,1.2699,1.2699,1.2699,1.2699,1.2699,1.2699,1.2699,1.2699,1.2699,1.2699,1.2699,0.0,0.0,0.0,0.0,0.0,0.0,0.0,0.0,1.1661,0.0,0.0,0.0,0.0,0.0,0.0,0.0,0.0,1.2523,0.0,1.3179,1.3264,1.3408,1.3585,1.3628,1.386,1.4229,1.4599,1.4728,1.4754,1.5137,1.5311,1.5404,1.5605,1.5704,1.5758,1.5618,1.5418,1.5231,1.5075,1.4955,1.4856,0.2571,0.368,0.4874,0.5766,0.6246,0.6822,0.7627,0.7638,0.7551,0.7682,0.7471,0.737,0.7469,0.7269,0.0,0.6965,0.6915,0.6912,0.7019,0.7197,0.7281,0.7237,0.7456,0.7597,0.7597,0.0,0.0,0.8092,0.882,0.9613,1.0453,1.0453,1.0928,1.1843,1.1843,1.2143,1.2699,1.2699,1.2771,1.2868,1.2868,1.2916,1.3,1.2904,1.2868,1.2868,1.2868,1.2868,1.288,1.2976,1.3121,1.3266,1.3266,1.3157,1.2988,1.2892,1.2928,1.2964,1.2759,1.2783,1.2831,1.2735,1.2699,1.2699,1.2699,1.2699,1.2699,1.2699,1.2699,1.2699,1.2699,1.2699,1.2699,1.2699,1.2699,1.2699,1.2699,0.0,0.0,0.0,0.0,0.0,0.0,1.2046,0.0,0.0,0.0,0.0,0.0,0.0,0.0,1.2807,1.292,0.0,1.3544,1.354,1.3711,1.4096,1.4185,1.4421,1.4784,1.5025,1.5169,1.5196,1.5431,1.5565,1.5578,1.5752,1.5784,1.5818,1.5752,1.5658,1.5551,1.5484,1.5504,1.5531,0.3702,0.5058,0.0,0.0,0.6994,0.0,0.7551,0.7426,0.742,0.7639,0.7604,0.761,0.7622,0.7638,0.7528,0.726,0.0,0.0,0.0,0.744,0.7478,0.7617,0.7719,0.7725,0.7725,0.8785,0.9376,0.9406,1.0094,1.079,1.1467,1.1467,1.1931,1.2759,1.2759,1.2759,1.2759,1.2759,1.2916,1.3145,1.3145,1.3302,1.3483,1.3197,1.3145,1.3145,1.3145,1.3145,1.3194,1.3435,1.3532,1.3544,1.3544,1.3556,1.3519,1.3185,1.3282,1.3399,1.288,1.294,1.3041,1.2807,1.2747,1.2759,1.2759,1.2747,1.2735,1.2735,1.2711,1.2699,1.2699,1.2699,1.2699,1.2699,1.2699,1.2699,1.2699,0.0,0.0,0.0,0.0,0.0,0.0,1.2388,1.2456,0.0,0.0,0.0,0.0,0.0,1.3077,1.3077,1.3345,1.3625,1.388,1.384,1.4069,1.4662,1.4927,1.5075,1.5075,1.5324,1.5444,1.5444,1.5752,1.5824,1.5858,1.5838,1.5838,1.5864,1.6192,1.6139,1.5878,1.6206,1.6348,1.6348,0.0,0.0,0.7286,0.7429,0.785,0.8159,0.7968,0.8073,0.8117,0.8049,0.7852,0.7774,0.7874,0.7813,0.7776,0.7802,0.764,0.7582,0.7676,0.7825,0.7825,0.7767,0.8639,0.9145,0.9145,1.0057,1.0847,1.1421,1.1598,1.21,1.2956,1.2956,1.3102,1.3326,1.3326,1.3326,1.3326,1.3326,1.3363,1.3423,1.3423,1.3459,1.3507,1.3447,1.3423,1.3423,1.3423,1.3423,1.3435,1.3495,1.3652,1.3809,1.3809,1.3954,1.4014,1.3556,1.3471,1.3447,1.3121,1.3218,1.3363,1.3097,1.3169,1.3326,1.3326,1.3169,1.3025,1.3025,1.2856,1.2699,1.2699,1.2699,1.2699,1.2699,1.2699,1.2699,1.2699,1.2649,0.0,0.0,1.28,1.2848,1.3092,1.3159,1.3153,0.0,0.0,0.0,0.0,1.4018,1.4051,1.3922,1.4195,1.4421,1.4723,1.4701,1.4892,1.5206,1.5478,1.5618,1.5631,1.5925,1.5939,1.5752,1.6273,1.6366,1.6179,1.6406,1.65,1.65,1.658,1.6567,1.65,1.658,1.6607,1.6607,0.639,0.7357,0.8043,0.8111,0.8268,0.8343,0.8272,0.8217,0.8237,0.8333,0.8189,0.8129,0.8243,0.821,0.8143,0.8015,0.7889,0.7806,0.7874,0.7941,0.8195,0.8593,0.9265,0.9854,1.0337,1.1298,1.2141,1.294,1.294,1.3112,1.3519,1.3519,1.3519,1.3519,1.3519,1.3519,1.3519,1.3519,1.358,1.3688,1.3688,1.3761,1.3857,1.3737,1.3688,1.3688,1.3688,1.3688,1.3713,1.3833,1.3966,1.4087,1.4087,1.4183,1.4244,1.3954,1.387,1.3785,1.3411,1.3495,1.3628,1.3363,1.3411,1.3519,1.3519,1.3399,1.3258,1.3258,1.3085,1.2892,1.2892,1.2795,1.2699,1.2699,1.2699,1.2699,1.2699,1.2705,0.0,1.3256,1.3242,1.3425,1.3878,1.3947,1.397,1.4084,0.0,0.0,1.4482,1.4763,1.4812,1.459,1.4691,1.4927,1.5164,1.5297,1.5444,1.5605,1.5885,1.6099,1.6233,1.6393,1.638,1.6246,1.6567,1.662,1.6486,1.6647,1.67,1.6727,1.686,1.6914,1.6927,1.7061,1.7021,1.6927,0.7343,0.7997,0.8398,0.8398,0.8438,0.8497,0.8472,0.8276,0.8288,0.8546,0.852,0.8519,0.8513,0.8581,0.8531,0.8272,0.8237,0.8237,0.8237,0.8379,0.8874,0.9805,1.0002,1.0485,1.1414,1.2436,1.3264,1.3966,1.3966,1.3845,1.3628,1.3628,1.3628,1.3628,1.3628,1.3628,1.3628,1.3628,1.3761,1.3966,1.3966,1.4099,1.428,1.4051,1.3966,1.3966,1.3966,1.3966,1.4002,1.422,1.4292,1.4292,1.4292,1.4292,1.4292,1.4292,1.4292,1.4195,1.3713,1.3737,1.387,1.3676,1.3628,1.3628,1.3628,1.3604,1.3568,1.3568,1.3326,1.3077,1.3077,1.2892,1.2699,1.2699,1.2741,1.2741,1.2741,0.0,1.3114,1.3567,1.3674,1.3964,1.461,1.4681,1.4726,1.4963,1.5143,1.5246,0.0,1.5709,1.5842,1.5594,1.5445,1.555,1.6021,1.6236,1.6293,1.6204,1.6408,1.6567,1.67,1.6754,1.674,1.6714,1.6807,1.6807,1.678,1.682,1.6834,1.686,1.7166,1.7362,1.7544,1.775,1.7682,1.7558,0.7805,0.8041,0.8264,0.8498,0.8732,0.8762,0.8692,0.8867,0.8963,0.8843,0.8716,0.8622,0.8499,0.8397,0.8612,0.9286,0.9361,0.9361,0.9361,1.019,1.0779,1.0925,1.1755,1.229,1.2436,1.3511,1.4124,1.4232,1.4232,1.422,1.4171,1.4171,1.4171,1.4171,1.4171,1.4171,1.4171,1.4171,1.4195,1.4232,1.4232,1.4256,1.4292,1.4256,1.4232,1.4232,1.4232,1.4232,1.4244,1.428,1.4292,1.4292,1.4292,1.4292,1.4292,1.4292,1.4292,1.4232,1.393,1.387,1.3942,1.4135,1.4171,1.4171,1.4171,1.4002,1.3845,1.3845,1.3459,1.3077,1.3077,1.2892,1.2699,1.2699,1.2881,1.3052,1.3052,0.0,1.3978,1.4073,1.4471,1.4821,1.4918,1.4918,1.4963,1.5008,1.5739,1.6329,1.6605,1.7736,1.8302,1.8225,1.7396,1.7512,1.8754,1.8816,1.8558,1.7983,1.7717,1.7253,1.6714,1.7018,1.6991,1.674,1.7235,1.7301,1.7152,1.7341,1.7448,1.7448,1.7502,1.8077,1.891,1.8954,1.8939,1.891,0.8054,0.8335,0.8602,0.8719,0.8955,0.9067,0.8994,0.9033,0.9015,0.8892,0.8824,0.8988,0.9519,0.9565,0.9939,1.083,1.1512,1.1728,1.1498,1.1334,1.1414,1.1999,1.2436,1.2969,1.3559,1.4052,1.4292,1.4292,1.4292,1.4292,1.4292,1.4292,1.4292,1.4292,1.4292,1.4292,1.4292,1.4292,1.4292,1.4292,1.4292,1.4292,1.4292,1.4292,1.4292,1.4292,1.4292,1.4292,1.4292,1.4292,1.4292,1.4292,1.4292,1.4292,1.4292,1.4292,1.4292,1.4268,1.4147,1.4123,1.4147,1.4268,1.4292,1.4292,1.4292,1.4208,1.4123,1.4123,1.3809,1.3544,1.3544,1.3326,1.3145,1.3145,1.3366,0.0,0.0,1.3964,1.4359,1.4662,1.5323,1.5927,1.6186,1.675,1.7128,1.7337,1.7751,1.818,1.8534,1.9162,1.9494,1.9447,1.88,1.8578,1.8868,1.8868,1.8513,1.7736,1.756,1.7694,1.8039,1.8231,1.8525,1.8956,1.9265,1.931,1.9177,1.9324,1.9398,1.9332,1.8708,1.876,1.9176,1.9176,1.9125,1.9096,0.8249,0.8622,0.8865,0.8987,0.9034,0.9103,0.9103,0.9008,0.8989,0.9265,0.932,0.964,1.0383,1.0858,1.1291,1.1883,1.3039,1.3659,1.3591,1.2597,1.2353,1.3028,1.3076,1.3463,1.4292,1.4292,1.4292,1.4292,1.4292,1.4292,1.4292,1.4292,1.4292,1.4292,1.4292,1.4292,1.4292,1.4292,1.4292,1.4292,1.4292,1.4292,1.4292,1.4292,1.4292,1.4292,1.4292,1.4292,1.4292,1.4292,1.4292,1.4292,1.4292,1.4292,1.4292,1.4292,1.4292,1.4292,1.4292,1.4292,1.4292,1.4292,1.4292,1.4292,1.4292,1.4292,1.4292,1.4292,1.4087,1.3906,1.3906,1.3688,1.3519,1.3565,0.0,0.0,0.0,1.434,1.4728,1.5134,1.6146,1.6965,1.7413,1.8426,1.9192,1.951,1.9764,2.002,2.0313,2.0653,2.0881,2.0964,2.036,1.9862,1.9613,1.9564,1.9189,1.8417,1.8331,1.8767,1.9591,1.9591,2.0055,2.0877,2.0877,2.0877,2.0877,2.0877,2.0877,2.0826,1.9952,1.9746,1.9952,1.9952,1.9836,1.9806,0.859,0.871,0.883,0.9114,0.9049,0.8898,0.8898,0.8892,0.932,1.0406,1.0562,1.0552,1.049,1.1434,1.203,1.1813,1.2843,1.393,1.4874,1.4624,1.4374,1.4208,1.4196,1.4196,1.4292,1.4292,1.4292,1.4292,1.4292,1.4292,1.4292,1.4292,1.4292,1.4292,1.4292,1.4292,1.4292,1.4292,1.4292,1.4292,1.4292,1.4292,1.4292,1.4292,1.4292,1.4292,1.4292,1.4292,1.4292,1.4292,1.4292,1.4292,1.4292,1.4292,1.4292,1.4292,1.4292,1.4292,1.4292,1.4292,1.4292,1.4292,1.4292,1.4292,1.4292,1.4292,1.4292,1.4292,1.4087,1.3906,1.3906,1.3688,1.3565,1.3837,0.0,0.0,1.4501,1.5008,1.5331,1.5391,1.6805,1.7831,1.7846,1.9093,1.9926,1.9942,2.081,2.1353,2.1388,2.2553,2.3432,2.3894,2.2597,2.2275,2.3105,2.3105,2.2796,2.2114,2.171,2.1296,2.0775,2.0775,2.0826,2.0877,2.0877,2.0877,2.0877,2.0877,2.0877,2.0877,2.0826,2.1404,2.2266,2.2266,2.2249,2.2232,0.8742,0.8798,0.8854,0.8966,0.8974,0.9154,0.9911,1.0021,1.046,1.1601,1.1764,1.2009,1.269,1.3163,1.3667,1.4259,1.4733,1.5094,1.5303,1.5258,1.4932,1.4328,1.4292,1.4292,1.4292,1.4292,1.4292,1.4292,1.4292,1.4292,1.4292,1.4292,1.4292,1.4292,1.4292,1.4292,1.4292,1.4292,1.4292,1.4292,1.4292,1.4292,1.4292,1.4292,1.4292,1.4292,1.4292,1.4292,1.4292,1.4292,1.4292,1.4292,1.4292,1.4292,1.4328,1.4509,1.4678,1.4799,1.4799,1.4558,1.4292,1.4292,1.4292,1.4292,1.4292,1.4292,1.434,1.4521,1.4473,1.451,1.4851,1.4802,1.4837,1.5141,0.0,1.6325,1.6661,1.7377,1.7973,1.8231,1.9383,2.0118,2.0118,2.1111,2.1874,2.2166,2.2522,2.2888,2.317,2.3675,2.4036,2.4202,2.3691,2.3206,2.286,2.286,2.2431,2.1505,2.1358,2.151,2.1912,2.1912,2.2266,2.292,2.292,2.292,2.292,2.292,2.292,2.287,2.2165,2.2114,2.2485,2.2485,2.2485,2.2568,0.8885,0.8885,0.8995,0.9375,0.9478,0.9864,1.1055,1.1219,1.1655,1.2797,1.296,1.3285,1.4116,1.4546,1.4922,1.5351,1.5672,1.5813,1.5632,1.5463,1.5125,1.4582,1.4473,1.4425,1.4425,1.434,1.4292,1.4292,1.4292,1.4292,1.4292,1.4292,1.4292,1.4292,1.4292,1.4292,1.4292,1.4292,1.4292,1.4292,1.4292,1.4292,1.4292,1.4292,1.4292,1.4292,1.4292,1.4292,1.4292,1.4292,1.4292,1.4292,1.4292,1.4352,1.4485,1.4763,1.4968,1.5113,1.5113,1.4835,1.4558,1.4558,1.4558,1.4558,1.4558,1.4594,1.4741,1.4898,1.527,1.5718,1.611,1.6423,1.6773,1.7086,1.7646,1.8208,1.8577,1.9188,1.9702,1.9958,2.1009,2.1703,2.1703,2.2661,2.3437,2.3712,2.373,2.3859,2.4183,2.4202,2.4202,2.4202,2.4202,2.3805,2.3038,2.3038,2.2669,2.1962,2.1962,2.2316,2.3038,2.3038,2.3438,2.4202,2.4202,2.4202,2.4202,2.4202,2.4202,2.4102,2.3338,2.3108,2.3213,2.3073,2.3108,2.3314,0.894,0.894,0.932,1.0507,1.0726,1.1109,1.2254,1.2417,1.2852,1.4062,1.4223,1.4223,1.4223,1.5244,1.5458,1.4331,1.5244,1.5885,1.5885,1.5403,1.5113,1.5113,1.4859,1.4714,1.4714,1.4437,1.4304,1.4292,1.4292,1.4292,1.4292,1.4292,1.4292,1.4292,1.4292,1.4292,1.4292,1.4292,1.4292,1.4292,1.4292,1.4292,1.4292,1.4292,1.4292,1.4304,1.4304,1.4304,1.4304,1.4304,1.4304,1.4304,1.4304,1.4497,1.4775,1.504,1.5113,1.5113,1.5113,1.5113,1.5113,1.5113,1.5113,1.5113,1.5113,1.5303,1.5493,1.5493,1.6637,1.7584,1.7584,1.8493,1.931,1.9585,1.9618,1.9731,1.999,2.0039,2.0039,2.0055,2.1275,2.2132,2.2132,2.3404,2.4202,2.4202,2.4202,2.4202,2.4202,2.4202,2.422,2.4202,2.4202,2.4202,2.4202,2.4202,2.4202,2.4202,2.4202,2.4202,2.4202,2.4202,2.4202,2.4202,2.4202,2.4202,2.422,2.4202,2.4202,2.422,2.422,2.4459,2.4739,2.4367,2.4477,2.4721,1.0021,1.0186,1.0515,1.171,1.1873,1.2309,1.3457,1.3673,1.4051,1.5244,1.5405,1.5405,1.5405,1.5672,1.5779,1.5405,1.5672,1.5885,1.5885,1.5741,1.5656,1.5656,1.5052,1.4714,1.4714,1.463,1.4497,1.4292,1.4292,1.4292,1.4292,1.4292,1.4292,1.4292,1.4292,1.4292,1.4292,1.4292,1.4292,1.4292,1.4292,1.4292,1.4292,1.4292,1.4425,1.4594,1.4594,1.4714,1.4859,1.4859,1.4859,1.4859,1.4859,1.5052,1.5282,1.5354,1.5511,1.5656,1.5656,1.5814,1.5833,1.5248,1.5113,1.5164,1.5354,1.5443,1.5594,1.5998,1.7045,1.8015,1.8343,1.9328,2.0124,2.0458,2.09,2.1328,2.1694,2.2149,2.2585,2.2899,2.3336,2.3556,2.3556,2.398,2.4202,2.4202,2.4477,2.4643,2.4643,2.49,2.4937,2.4661,2.4643,2.4643,2.4643,2.4349,2.4202,2.4202,2.4202,2.4202,2.4202,2.4202,2.4367,2.4624,2.433,2.4532,2.5029,2.4753,2.4808,2.5065,2.5065,2.4955,2.4794,2.501,2.4955,2.4812,1.0562,1.1055,1.1764,1.2906,1.3122,1.3511,1.4708,1.4869,1.5137,1.5832,1.5885,1.5885,1.5885,1.5885,1.5885,1.5885,1.5885,1.5885,1.5885,1.5789,1.5777,1.5885,1.533,1.498,1.4871,1.4775,1.4582,1.4292,1.4292,1.4292,1.4292,1.4292,1.4292,1.4292,1.4292,1.4292,1.4292,1.4292,1.4292,1.4292,1.4292,1.4364,1.4461,1.4461,1.463,1.4871,1.4871,1.498,1.5113,1.5113,1.5113,1.5125,1.5234,1.543,1.568,1.5789,1.6029,1.6311,1.6776,1.6988,1.7121,1.7063,1.6727,1.642,1.6625,1.7072,1.752,1.7867,1.9023,2.0097,2.0416,2.1541,2.2415,2.2654,2.3029,2.3364,2.3611,2.4007,2.4354,2.4661,2.4679,2.4679,2.4679,2.4679,2.4679,2.4679,2.4918,2.5014,2.5014,2.5286,2.5323,2.5084,2.5014,2.5014,2.5014,2.4808,2.4679,2.4679,2.4532,2.4532,2.4679,2.4532,2.4679,2.4996,2.479,2.4973,2.5414,2.5106,2.5161,2.5414,2.5414,2.5378,2.5252,2.5396,2.5378,2.5304,1.0945,1.1873,1.296,1.4159,1.4331,1.4708,1.5725,1.5885,1.5885,1.5885,1.5885,1.5885,1.5885,1.5885,1.5885,1.5885,1.5885,1.5885,1.5885,1.5668,1.5644,1.5885,1.5656,1.5415,1.5149,1.4908,1.4654,1.4364,1.4364,1.4364,1.4364,1.434,1.434,1.434,1.434,1.4316,1.4304,1.4352,1.4352,1.434,1.4352,1.4521,1.4751,1.4751,1.492,1.5149,1.5149,1.5161,1.5224,1.5224,1.5224,1.5273,1.5515,1.5848,1.6158,1.6408,1.6736,1.7199,1.829,1.8537,1.8797,1.9864,1.9465,1.8788,1.8684,1.9606,2.0483,2.0514,2.1936,2.3117,2.3117,2.4364,2.5414,2.5414,2.5414,2.5414,2.5414,2.5414,2.5414,2.5414,2.5414,2.5414,2.5414,2.5414,2.5414,2.5414,2.5451,2.547,2.547,2.5506,2.5506,2.547,2.547,2.547,2.547,2.547,2.547,2.5414,2.5014,2.5084,2.5414,2.4996,2.5051,2.547,2.5433,2.547,2.5472,2.5488,2.5436,2.5543,2.5543,2.5727,2.5966,2.5653,2.5745,2.5966,1.3078,1.3619,1.4159,1.5351,1.5512,1.5618,1.5832,1.5885,1.5885,1.5885,1.5885,1.5885,1.5885,1.5885,1.5885,1.5885,1.5885,1.5885,1.5885,1.5837,1.5825,1.5885,1.5837,1.568,1.5415,1.5354,1.5197,1.4932,1.4932,1.4932,1.4932,1.4727,1.463,1.463,1.463,1.4509,1.4328,1.4751,1.4811,1.4642,1.4847,1.4968,1.5028,1.5028,1.5185,1.5415,1.5415,1.5704,1.6098,1.6296,1.6348,1.6361,1.6411,1.7108,1.7893,1.7909,1.8589,1.9354,1.9576,1.9819,2.0086,2.069,2.1482,2.1794,2.0752,2.0752,2.1092,2.164,2.2706,2.3564,2.3564,2.4542,2.5414,2.5414,2.5414,2.5414,2.5414,2.5414,2.5414,2.5414,2.5414,2.5414,2.5414,2.5414,2.5414,2.5414,2.5708,2.5892,2.5892,2.6151,2.6223,2.5892,2.5892,2.5892,2.5892,2.5892,2.5727,2.5414,2.5289,2.5341,2.5414,2.5341,2.5506,2.5874,2.5561,2.5729,2.6298,2.6021,2.6076,2.6316,2.6316,2.6223,2.6039,2.6243,2.6223,2.6039,1.3922,1.4654,1.519,1.5779,1.5885,1.5885,1.5885,1.5885,1.5885,1.5885,1.5885,1.5885,1.5885,1.5885,1.5885,1.5885,1.5885,1.5885,1.5885,1.5885,1.5885,1.5885,1.5885,1.5825,1.5692,1.568,1.5499,1.5113,1.5113,1.5113,1.5101,1.4968,1.4908,1.4908,1.4908,1.4823,1.4702,1.4992,1.5028,1.492,1.5052,1.5185,1.5294,1.5448,1.567,1.5903,1.6048,1.6253,1.6577,1.7305,1.7516,1.7608,1.8119,1.8797,1.9354,1.9354,1.9886,2.0554,2.1065,2.145,2.1886,2.267,2.3531,2.3878,2.259,2.2764,2.3251,2.3614,2.4263,2.4827,2.4827,2.5431,2.5949,2.5949,2.5949,2.5949,2.5949,2.5949,2.5949,2.5949,2.5949,2.5949,2.5949,2.5949,2.5949,2.5949,2.6186,2.6315,2.6315,2.6463,2.6481,2.6261,2.6315,2.6315,2.6315,2.6315,2.6151,2.5949,2.58,2.5819,2.5949,2.58,2.5929,2.6243,2.6041,2.6188,2.6573,2.6353,2.6389,2.6591,2.6591,2.6444,2.6279,2.6499,2.6444,2.6352,1.4384,1.5244,1.5885,1.5885,1.5885,1.5885,1.5885,1.5885,1.5885,1.5885,1.5885,1.5885,1.5885,1.5885,1.5885,1.5885,1.5885,1.5885,1.5885,1.5885,1.5885,1.5885,1.5885,1.5885,1.5885,1.5885,1.568,1.5246,1.5246,1.5246,1.5246,1.5197,1.5173,1.5173,1.5173,1.5149,1.5113,1.5197,1.5209,1.5236,1.5273,1.543,1.5676,1.5937,1.6125,1.6377,1.6842,1.7147,1.7503,1.8485,1.8812,1.8954,1.9886,2.0436,2.0743,2.0743,2.1065,2.1658,2.2603,2.3149,2.3633,2.4736,2.5286,2.5263,2.4404,2.4861,2.5543,2.5617,2.5892,2.6113,2.6113,2.6353,2.6591,2.6591,2.6591,2.6591,2.6591,2.6591,2.6591,2.6591,2.6591,2.6591,2.6591,2.6591,2.6591,2.6591,2.6591,2.6591,2.6591,2.6591,2.6591,2.6591,2.6591,2.6591,2.6591,2.6591,2.6591,2.6591,2.6278,2.6296,2.6573,2.6224,2.6261,2.6591,2.6591,2.6591,2.6591,2.6591,2.6591,2.6591,2.6591,2.6591,2.6591,2.6591,2.6591,2.6591,1.5399,1.5779,1.5885,1.5885,1.5885,1.5885,1.5885,1.5885,1.5885,1.5885,1.5885,1.5885,1.5885,1.5885,1.5885,1.5885,1.5885,1.5885,1.5885,1.5885,1.5885,1.5885,1.5885,1.5885,1.5885,1.5885,1.5849,1.5789,1.5789,1.5789,1.5777,1.5547,1.5451,1.5451,1.5451,1.5318,1.5137,1.5596,1.5814,1.5786,1.602,1.6184,1.6221,1.6474,1.6499,1.6483,1.7713,1.8902,1.9973,2.0416,2.057,2.057,2.0723,2.1438,2.2215,2.2215,2.292,2.3877,2.434,2.4536,2.4787,2.5637,2.5892,2.5968,2.6172,2.6079,2.6039,2.6353,2.6463,2.6499,2.6499,2.6554,2.6591,2.6591,2.6591,2.6591,2.6591,2.6591,2.6591,2.6591,2.6591,2.6591,2.6591,2.6591,2.6591,2.6591,2.6591,2.6591,2.6591,2.6591,2.6591,2.6591,2.6591,2.6591,2.6591,2.6591,2.6591,2.6591,2.6536,2.6536,2.6591,2.6536,2.6536,2.6591,2.6591,2.6591,2.6591,2.6591,2.6591,2.6591,2.6591,2.6591,2.6591,2.6591,2.6591,2.6591,1.5707,1.5885,1.5885,1.5885,1.5885,1.5885,1.5885,1.5885,1.5885,1.5885,1.5885,1.5885,1.5885,1.5885,1.5885,1.5885,1.5885,1.5885,1.5885,1.5885,1.5885,1.5885,1.5885,1.5885,1.5885,1.5885,1.5885,1.5885,1.5885,1.5885,1.5885,1.5777,1.5716,1.5716,1.5875,1.5814,1.5559,1.596,1.609,1.611,1.6221,1.6789,1.7516,1.7779,1.8185,1.8693,1.9524,2.0195,2.081,2.154,2.181,2.1945,2.2826,2.3421,2.383,2.4043,2.4473,2.4918,2.512,2.5271,2.558,2.5929,2.6186,2.6353,2.6554,2.6444,2.6371,2.6554,2.6591,2.6591,2.6591,2.6591,2.6591,2.6591,2.6591,2.6591,2.6591,2.6591,2.6591,2.6591,2.6591,2.6591,2.6591,2.6591,2.6591,2.6591,2.6591,2.6591,2.6591,2.6591,2.6591,2.6591,2.6591,2.6591,2.6591,2.6591,2.6591,2.6591,2.6591,2.6591,2.6591,2.6591,2.6591,2.6591,2.6591,2.6591,2.6591,2.6591,2.6591,2.6591,2.6591,2.6591,2.6591,2.6591,2.6591,2.6591]},{"header":{"parameterUnit":"m.s-1","parameterCategory":1,"la1":30.6,"la2":28.766,"lo1":-90.7593,"lo2":-88.6598,"dy":0.0162,"dx":0.0183,"nx":116,"ny":114,"refTime":"2023-05-31T12:00:00:Z","depth":0,"parameterNumber":3,"parameterNumberName":"V-component_of_WINDS"},"data":[0.0,0.0,0.0,0.0,0.0,0.0,0.0,0.0,0.0,0.0,0.0,0.0,0.0,0.0,0.0,0.0,0.0,0.0,0.0,0.0,0.0,0.0,0.0,0.0,0.0,0.0,0.0,0.0,0.0,0.0,0.0,0.0,0.0,0.0,0.0,0.0,0.0,0.0,0.0,0.0,0.0,0.0,0.0,0.0,0.0,0.0,0.0,0.0,0.0,0.0,0.0,0.0,0.0,0.0,0.0,0.0,0.0,0.0,0.0,0.0,0.0,0.0,0.0,0.0,0.0,0.0,0.0,0.0,0.0,0.0,0.0,0.0,0.0,0.0,0.0,0.0,0.0,0.0,0.0,0.0,0.0,0.0,0.0,0.0,0.0,0.0,0.0,0.0,0.0,0.0,0.0,0.0,0.0,0.0,0.0,0.0,0.0,0.0,0.0,0.0,0.0,0.0,0.0,0.0,0.0,0.0,0.0,0.0,0.0,0.0,0.0,0.0,0.0,0.0,0.0,0.0,0.0,0.0,0.0,0.0,0.0,0.0,0.0,0.0,0.0,0.0,0.0,0.0,0.0,0.0,0.0,0.0,0.0,0.0,0.0,0.0,0.0,0.0,0.0,0.0,0.0,0.0,0.0,0.0,0.0,0.0,0.0,0.0,0.0,0.0,0.0,0.0,0.0,0.0,0.0,0.0,0.0,0.0,0.0,0.0,0.0,0.0,0.0,0.0,0.0,0.0,0.0,0.0,0.0,0.0,0.0,0.0,0.0,0.0,0.0,0.0,0.0,0.0,0.0,0.0,0.0,0.0,0.0,0.0,0.0,0.0,0.0,0.0,0.0,0.0,0.0,0.0,0.0,0.0,0.0,0.0,0.0,0.0,0.0,0.0,0.0,0.0,0.0,0.0,0.0,0.0,0.0,0.0,0.0,0.0,0.0,0.0,0.0,0.0,0.0,0.0,0.0,0.0,0.0,0.0,0.0,0.0,0.0,0.0,0.0,0.0,0.0,0.0,0.0,0.0,0.0,0.0,0.0,0.0,0.0,0.0,0.0,0.0,0.0,0.0,0.0,0.0,0.0,0.0,0.0,0.0,0.0,0.0,0.0,0.0,0.0,0.0,0.0,0.0,0.0,0.0,0.0,0.0,0.0,0.0,0.0,0.0,0.0,0.0,0.0,0.0,0.0,0.0,0.0,0.0,0.0,0.0,0.0,0.0,0.0,0.0,0.0,0.0,0.0,0.0,0.0,0.0,0.0,0.0,0.0,0.0,0.0,0.0,0.0,0.0,0.0,0.0,0.0,0.0,0.0,0.0,0.0,0.0,0.0,0.0,0.0,0.0,0.0,0.0,0.0,0.0,0.0,0.0,0.0,0.0,0.0,0.0,0.0,0.0,0.0,0.0,0.0,0.0,0.0,0.0,0.0,0.0,0.0,0.0,0.0,0.0,0.0,0.0,0.0,0.0,0.0,0.0,0.0,0.0,0.0,0.0,0.0,0.0,0.0,0.0,0.0,0.0,0.0,0.0,0.0,0.0,0.0,0.0,0.0,0.0,0.0,0.0,0.0,0.0,0.0,0.0,0.0,0.0,0.0,0.0,0.0,0.0,0.0,0.0,0.0,0.0,0.0,0.0,0.0,0.0,0.0,0.0,0.0,0.0,0.0,0.0,0.0,0.0,0.0,0.0,0.0,0.0,0.0,0.0,0.0,0.0,0.0,0.0,0.0,0.0,0.0,0.0,0.0,0.0,0.0,0.0,0.0,0.0,0.0,0.0,0.0,0.0,0.0,0.0,0.0,0.0,0.0,0.0,0.0,0.0,0.0,0.0,0.0,0.0,0.0,0.0,0.0,0.0,0.0,0.0,0.0,0.0,0.0,0.0,0.0,0.0,0.0,0.0,0.0,0.0,0.0,0.0,0.0,0.0,0.0,0.0,0.0,0.0,0.0,0.0,0.0,0.0,0.0,0.0,0.0,0.0,0.0,0.0,0.0,0.0,0.0,0.0,0.0,0.0,0.0,0.0,0.0,0.0,0.0,0.0,0.0,0.0,0.0,0.0,0.0,0.0,0.0,0.0,0.0,0.0,0.0,0.0,0.0,0.0,0.0,0.0,0.0,0.0,0.0,0.0,0.0,0.0,0.0,0.0,0.0,0.0,0.0,0.0,0.0,0.0,0.0,0.0,0.0,0.0,0.0,0.0,0.0,0.0,0.0,0.0,0.0,0.0,0.0,0.0,0.0,0.0,0.0,0.0,0.0,0.0,0.0,0.0,0.0,0.0,0.0,0.0,0.0,0.0,0.0,0.0,0.0,0.0,0.0,0.0,0.0,0.0,0.0,0.0,0.0,0.0,0.0,0.0,0.0,0.0,0.0,0.0,0.0,0.0,0.0,0.0,0.0,0.0,0.0,0.0,0.0,0.0,0.0,0.0,0.0,0.0,0.0,0.0,0.0,0.0,0.0,0.0,0.0,0.0,0.0,0.0,0.0,0.0,0.0,0.0,0.0,0.0,0.0,0.0,0.0,0.0,0.0,0.0,0.0,0.0,0.0,0.0,0.0,0.0,0.0,0.0,0.0,0.0,0.0,0.0,0.0,0.0,0.0,0.0,0.0,0.0,0.0,0.0,0.0,0.0,0.0,0.0,0.0,0.0,0.0,0.0,0.0,0.0,0.0,0.0,0.0,0.0,0.0,0.0,0.0,0.0,0.0,0.0,0.0,0.0,0.0,0.0,0.0,0.0,0.0,0.0,0.0,0.0,0.0,0.0,0.0,0.0,0.0,0.0,0.0,0.0,0.0,0.0,0.0,0.0,0.0,0.0,0.0,0.0,0.0,0.0,0.0,0.0,0.0,0.0,0.0,0.0,0.0,0.0,0.0,0.0,0.0,0.0,0.0,0.0,0.0,0.0,0.0,0.0,0.0,0.0,0.0,0.0,0.0,0.0,0.0,0.0,0.0,0.0,0.0,0.0,0.0,0.0,0.0,0.0,0.0,0.0,0.0,0.0,0.0,0.0,0.0,0.0,0.0,0.0,0.0,0.0,0.0,0.0,0.0,0.0,0.0,0.0,0.0,0.0,0.0,0.0,0.0,0.0,0.0,0.0,0.0,0.0,0.0,0.0,0.0,0.0,0.0,0.0,0.0,0.0,0.0,0.0,0.0,0.0,0.0,0.0,0.0,0.0,0.0,0.0,0.0,0.0,0.0,0.0,0.0,0.0,0.0,0.0,0.0,0.0,0.0,0.0,0.0,0.0,0.0,0.0,0.0,0.0,0.0,0.0,0.0,0.0,0.0,0.0,0.0,0.0,0.0,0.0,0.0,0.0,0.0,0.0,0.0,0.0,0.0,0.0,0.0,0.0,0.0,0.0,0.0,0.0,0.0,0.0,0.0,0.0,0.0,0.0,0.0,0.0,0.0,0.0,0.0,0.0,0.0,0.0,0.0,0.0,0.0,0.0,0.0,0.0,0.0,0.0,0.0,0.0,0.0,0.0,0.0,0.0,0.0,0.0,0.0,0.0,0.0,0.0,0.0,0.0,0.0,0.0,0.0,0.0,0.0,0.0,0.0,0.0,0.0,0.0,0.0,0.0,0.0,0.0,0.0,0.0,0.0,0.0,0.0,0.0,0.0,0.0,0.0,0.0,0.0,0.0,0.0,0.0,0.0,0.0,0.0,0.0,0.0,0.0,0.0,0.0,0.0,0.0,0.0,0.0,0.0,0.0,0.0,0.0,0.0,0.0,0.0,0.0,0.0,0.0,0.0,0.0,0.0,0.0,0.0,0.0,0.0,0.0,0.0,0.0,0.0,0.0,0.0,0.0,0.0,0.0,0.0,0.0,0.0,0.0,0.0,0.0,0.0,0.0,0.0,0.0,0.0,0.0,0.0,0.0,0.0,0.0,0.0,0.0,0.0,0.0,0.0,0.0,0.0,0.0,0.0,0.0,0.0,0.0,0.0,0.0,0.0,0.0,0.0,0.0,0.0,0.0,0.0,0.0,0.0,0.0,0.0,0.0,0.0,0.0,0.0,0.0,0.0,0.0,0.0,0.0,0.0,0.0,0.0,0.0,0.0,0.0,0.0,0.0,0.0,0.0,0.0,0.0,0.0,0.0,0.0,0.0,0.0,0.0,0.0,0.0,0.0,0.0,0.0,0.0,0.0,0.0,0.0,0.0,0.0,0.0,0.0,0.0,0.0,0.0,0.0,0.0,0.0,0.0,0.0,0.0,0.0,0.0,0.0,0.0,0.0,0.0,0.0,0.0,0.0,0.0,0.0,0.0,0.0,0.0,0.0,0.0,0.0,0.0,0.0,0.0,0.0,0.0,0.0,0.0,0.0,0.0,0.0,0.0,0.0,0.0,0.0,0.0,0.0,0.0,0.0,0.0,0.0,0.0,0.0,0.0,0.0,0.0,0.0,0.0,0.0,0.0,0.0,0.0,0.0,0.0,0.0,0.0,0.0,0.0,0.0,0.0,0.0,0.0,0.0,0.0,0.0,0.0,0.0,0.0,0.0,0.0,0.0,0.0,0.0,0.0,0.0,0.0,0.0,0.0,0.0,0.0,0.0,0.0,0.0,0.0,0.0,0.0,0.0,0.0,0.0,0.0,0.0,0.0,0.0,0.0,0.0,0.0,0.0,0.0,0.0,0.0,0.0,0.0,0.0,0.0,0.0,0.0,0.0,0.0,0.0,0.0,0.0,0.0,0.0,0.0,0.0,0.0,0.0,0.0,0.0,0.0,0.0,0.0,0.0,0.0,0.0,0.0,0.0,0.0,0.0,0.0,0.0,0.0,0.0,0.0,0.0,0.0,0.0,0.0,0.0,0.0,0.0,0.0,0.0,0.0,0.0,0.0,0.0,0.0,0.0,0.0,0.0,0.0,0.0,0.0,0.0,0.0,0.0,0.0,0.0,0.0,0.0,0.0,0.0,0.0,0.0,0.0,0.0,0.0,0.0,0.0,0.0,0.0,0.0,0.0,0.0,0.0,0.0,0.0,0.0,0.0,0.0,0.0,0.0,0.0,0.0,0.0,0.0,0.0,0.0,0.0,0.0,0.0,0.0,0.0,0.0,0.0,0.0,0.0,0.0,0.0,0.0,0.0,0.0,0.0,0.0,0.0,0.0,0.0,0.0,0.0,0.0,0.0,0.0,0.0,0.0,0.0,0.0,0.0,0.0,0.0,0.0,0.0,0.0,0.0,0.0,0.0,0.0,0.0,0.0,0.0,0.0,0.0,0.0,0.0,0.0,0.0,0.0,0.0,0.0,0.0,0.0,0.0,0.0,0.0,0.0,0.0,0.0,0.0,0.0,0.0,0.0,0.0,0.0,0.0,0.0,0.0,0.0,0.0,0.0,0.0,0.0,0.0,0.0,0.0,0.0,0.0,0.0,0.0,0.0,0.0,0.0,0.0,0.0,0.0,0.0,0.0,0.0,0.0,0.0,0.0,0.0,0.0,0.0,0.0,0.0,0.0,0.0,0.0,0.0,0.0,0.0,0.0,0.0,0.0,0.0,0.0,0.0,0.0,0.0,0.0,0.0,0.0,0.0,0.0,0.0,0.0,0.0,0.0,0.0,0.0,0.0,0.0,0.0,0.0,0.0,0.0,0.0,0.0,0.0,0.0,0.0,0.0,0.0,0.0,0.0,0.0,0.0,0.0,0.0,0.0,0.0,0.0,0.0,0.0,0.0,0.0,0.0,0.0,0.0,0.0,0.0,0.0,0.0,0.0,0.0,0.0,0.0,0.0,0.0,0.0,0.0,0.0,0.0,0.0,0.0,0.0,0.0,0.0,0.0,0.0,0.0,0.0,0.0,0.0,0.0,0.0,0.0,0.0,0.0,0.0,0.0,0.0,0.0,0.0,0.0,0.0,0.0,0.0,0.0,0.0,0.0,0.0,0.0,0.0,0.0,0.0,0.0,0.0,0.0,0.0,0.0,0.0,0.0,0.0,0.0,0.0,0.0,0.0,0.0,0.0,0.0,0.0,0.0,0.0,0.0,0.0,0.0,0.0,0.0,0.0,0.0,0.0,0.0,0.0,0.0,0.0,0.0,0.0,0.0,0.0,0.0,0.0,0.0,0.0,0.0,0.0,0.0,0.0,0.0,0.0,0.5532,0.0,0.0,0.0,0.0,0.0,0.0,0.0,0.0,0.0,0.0,0.0,0.0,0.0,0.0,0.0,0.0,0.0,0.0,0.0,0.0,0.0,0.0,0.0,0.0,0.0,0.0,0.0,0.0,0.0,0.0,0.0,0.0,0.0,0.0,0.0,0.0,0.0,0.0,2.2728,2.2658,2.2481,2.2172,2.1716,2.1606,2.1695,0.0,0.0,0.0,0.0,0.0,0.0,0.0,0.0,0.0,0.0,0.0,0.0,0.0,0.0,0.0,0.0,0.0,0.0,0.0,0.0,0.0,0.0,0.0,0.0,0.0,0.0,0.0,0.0,0.0,0.0,0.0,0.0,0.0,0.0,0.0,0.0,0.0,0.0,0.0,0.0,0.0,0.0,0.0,0.0,0.0,0.0,0.0,0.0,0.0,0.0,0.0,0.0,0.0,0.0,0.0,0.0,0.0,0.0,0.0,0.0,0.0,0.0,0.0,0.0,0.0,0.0,0.0,0.0,0.0,0.0,0.0,0.6113,0.0,0.0,0.0,0.0,0.0,0.0,0.0,0.0,0.0,0.0,0.0,0.0,0.0,0.0,0.0,0.0,0.0,0.0,0.0,0.0,0.0,0.0,0.0,2.5391,2.5303,2.5185,2.5107,2.5063,0.0,0.0,0.0,0.0,0.0,0.0,2.3806,2.3624,2.3019,2.1954,2.1894,2.1747,2.1542,2.0874,2.0651,2.0716,1.9451,0.0,0.0,0.0,0.0,0.0,0.0,0.0,0.0,0.0,0.0,0.0,0.0,0.0,0.0,0.0,0.0,0.0,0.0,0.0,0.0,0.0,0.0,0.0,0.0,0.0,0.0,0.0,0.0,0.0,0.0,0.0,0.0,0.0,0.0,0.0,0.0,0.0,0.0,0.0,0.0,0.0,0.0,0.0,0.0,0.0,0.0,0.0,0.0,0.0,0.0,0.0,0.0,0.0,0.0,0.0,0.0,0.0,0.0,0.0,0.0,0.0,0.0,0.0,1.1333,1.1538,1.1059,1.1769,1.1978,1.1672,0.9758,0.8941,0.8724,0.0,0.0,0.0,0.0,0.0,0.0,0.0,0.0,0.0,0.0,0.0,0.0,0.0,0.0,0.0,0.0,0.0,0.0,0.0,0.0,2.5476,2.5412,2.5298,2.522,2.5107,2.4999,2.4915,2.4915,0.0,0.0,0.0,0.0,2.4019,2.3806,2.3774,2.325,2.2238,2.2364,2.2596,2.3017,2.3435,2.3258,2.2493,1.9202,1.8835,2.0638,0.0,0.0,0.0,0.0,0.0,0.0,0.0,0.0,0.0,0.0,0.0,0.0,0.0,0.0,0.0,0.0,0.0,0.0,0.0,0.0,0.0,0.0,0.0,0.0,0.0,0.0,0.0,0.0,0.0,0.0,0.0,0.0,0.0,0.0,0.0,0.0,0.0,0.0,0.0,0.0,0.0,1.0423,0.9645,0.0,0.0,0.0,0.0,0.0,0.0,0.0,0.0,0.0,0.0,0.0,0.0,0.0,0.0,1.0195,1.1799,1.2612,1.2662,1.4307,1.4689,1.3939,1.4052,1.4114,1.4013,1.3093,0.0,1.0009,0.8095,0.0,0.0,0.0,0.0,0.0,0.0,0.0,0.0,0.0,0.0,0.0,0.0,0.0,0.0,0.0,0.0,0.0,0.0,0.0,0.0,0.0,2.6014,2.6295,2.5746,2.7328,2.7546,2.5709,2.6247,0.0,0.0,2.4201,2.4026,2.3806,2.3235,2.3155,2.3531,2.4157,2.4824,2.5567,2.5461,2.5196,2.4713,2.2258,2.123,2.1244,1.9777,0.0,0.0,0.0,0.0,0.0,0.0,0.0,0.0,0.0,0.0,0.0,0.0,0.0,0.0,0.0,0.0,0.0,0.0,0.0,0.0,0.0,0.0,0.0,0.0,0.0,0.0,0.0,0.0,0.0,0.0,0.0,0.0,0.0,0.0,0.0,0.0,0.0,0.0,0.0,1.0039,0.9868,0.8368,0.8951,0.8863,0.0,0.0,0.0,0.0,0.0,0.0,0.0,0.0,0.0,1.0524,1.1274,1.2145,1.3126,1.409,1.4668,1.4926,1.6143,1.6273,1.5463,1.5737,1.5614,1.5152,1.4641,1.365,1.2221,0.9845,0.7746,0.5836,0.0,0.0,0.0,0.0,0.1332,0.0825,0.0,0.0,0.0,0.0,0.0,0.0,0.0,0.0,0.0,0.0,0.0,0.0,2.5875,2.7052,2.7704,2.7434,2.9196,2.9303,2.6863,2.7097,2.6395,2.4377,2.4017,2.3826,2.3806,2.3221,2.3625,2.5004,2.6124,2.7128,2.7993,2.7908,2.78,2.7543,2.6417,2.4843,2.2882,2.0829,1.9524,1.8734,0.0,0.0,0.0,0.0,0.0,0.0,0.0,0.0,0.0,0.0,0.0,0.0,0.0,0.0,0.0,0.0,0.0,0.0,0.0,0.0,0.0,0.0,0.0,0.0,0.0,0.0,0.0,0.0,0.0,0.0,0.0,0.0,0.0,0.0,0.0,0.0,0.0,0.977,0.9586,0.7549,0.8769,0.898,0.0,0.0,0.0,0.0,0.0,0.0,0.8965,1.0037,1.1233,1.2549,1.3649,1.477,1.5881,1.6271,1.6581,1.6758,1.7277,1.7048,1.6142,1.6248,1.6049,1.557,1.5062,1.4614,1.4056,1.1412,0.9218,0.7351,0.5884,0.4431,0.3164,0.3055,0.2688,0.2314,0.0,0.0,0.0,0.0,0.0,0.0,0.0,0.0,0.0,0.0,0.0,2.5974,2.7434,2.8196,2.9208,3.0638,2.9371,2.8453,2.8303,2.6164,2.4692,2.4303,2.3564,2.3355,2.3806,2.4354,2.5239,2.6388,2.7866,2.9023,2.9875,3.1266,3.1696,3.1317,3.125,2.9383,2.6025,2.2521,2.1,2.0702,1.7956,0.0,0.0,0.0,0.0,0.0,0.0,0.0,0.0,0.0,0.0,0.0,0.0,0.0,0.0,0.0,0.0,0.0,0.0,0.0,0.0,0.0,0.0,0.0,0.0,0.0,0.0,0.0,0.0,0.0,0.0,0.0,0.0,0.0,0.0,0.0,0.0,0.0,0.0,0.8343,0.9829,0.0,0.0,0.0,0.0,1.0067,1.0492,1.1571,1.3476,1.3638,1.4579,1.6551,1.6677,1.7113,1.7935,1.8338,1.8366,1.8,1.7802,1.7086,1.5889,1.5015,1.4874,1.5262,1.4309,1.4289,1.4765,1.2613,1.048,0.8543,0.7742,0.6111,0.4282,0.4783,0.4358,0.3507,0.0,0.0,0.0,0.0,0.0,0.0,0.0,0.0,2.5586,2.5619,2.6424,2.7377,2.832,3.0449,3.203,3.2503,3.2463,3.1504,2.9363,2.7411,2.5942,2.5125,2.4248,2.428,2.5328,2.5985,2.7521,2.9967,3.0938,3.2044,3.3294,3.3317,3.3484,3.369,3.2729,3.1988,3.1167,2.6717,2.4049,2.2531,1.9594,1.7779,0.0,0.0,0.0,0.0,0.0,0.0,0.0,0.0,0.0,0.0,0.0,0.0,0.0,0.0,0.0,0.0,0.0,0.0,0.0,0.0,0.0,0.0,0.0,0.0,0.0,0.0,0.0,0.0,0.0,0.0,0.0,0.0,0.0,0.0,0.0,0.0,0.0,1.1032,1.2584,0.0,1.099,1.1573,1.1888,1.148,1.1966,1.2349,1.2618,1.3514,1.4701,1.6161,1.6877,1.7772,1.8871,1.8762,1.8479,1.8042,1.8244,1.7681,1.6402,1.617,1.5756,1.5178,1.4449,1.3998,1.3688,1.267,1.1518,1.0264,0.8684,0.7448,0.6539,0.5957,0.5436,0.4961,0.0,0.0,0.0,0.0,0.0,0.0,0.0,0.0,2.5573,2.556,2.6962,2.8394,2.9615,3.2417,3.4469,3.5107,3.437,3.2806,3.0274,2.7749,2.5884,2.4819,2.5132,2.5481,2.5778,2.7988,3.0048,3.177,3.3231,3.4399,3.5172,3.4796,3.4912,3.5371,3.429,3.4319,3.4906,3.11,2.7697,2.4626,2.1942,2.0189,1.8908,0.0,0.0,0.0,0.0,0.0,0.0,0.0,0.0,0.0,0.0,0.0,0.0,0.0,0.0,0.0,0.0,0.0,0.0,0.0,0.0,0.0,0.0,0.0,0.0,0.0,0.0,0.0,0.0,0.0,0.0,0.0,0.0,0.0,0.0,0.0,1.3369,1.2446,1.4111,1.4635,1.2839,1.363,1.4122,1.3754,1.4098,1.4308,1.4309,1.5162,1.607,1.6935,1.7661,1.8336,1.8856,1.8873,1.8393,1.7383,1.8031,1.7453,1.5786,1.6005,1.5627,1.4844,1.4303,1.3826,1.3316,1.2803,1.2136,1.1301,0.9757,0.8786,0.8124,0.6978,0.6364,0.5927,0.0,0.0,0.0,0.0,0.0,0.0,2.5604,2.5619,2.5564,2.5522,2.7028,2.8989,3.1385,3.3903,3.6273,3.8398,3.4794,3.1954,3.095,2.6952,2.427,2.3417,2.615,2.6893,2.5205,3.0384,3.2624,3.1663,3.4624,3.5814,3.5356,3.5749,3.6152,3.6528,3.6204,3.6439,3.7011,3.5358,3.1839,2.714,2.5007,2.3661,2.262,0.0,0.0,0.0,0.0,0.0,0.0,0.0,0.0,0.0,0.0,0.0,0.0,0.0,0.0,0.0,0.0,0.0,0.0,0.0,0.0,0.0,0.0,0.0,0.0,0.0,0.0,0.0,0.0,0.0,0.0,0.0,0.0,0.0,1.1915,1.3275,1.3904,1.2528,1.4344,1.5188,1.3874,1.4798,1.5895,1.6855,1.693,1.7494,1.8841,1.8744,1.8793,1.9216,1.9234,1.8838,1.802,1.8856,1.8198,1.618,1.7212,1.6397,1.412,1.4428,1.4462,1.4228,1.3901,1.3818,1.3818,1.309,1.2348,1.158,1.0974,1.005,0.8904,0.7894,0.7117,0.6384,0.0,0.0,0.0,0.0,0.0,0.0,2.5617,2.5559,2.5511,2.5483,2.8062,3.0554,3.2289,3.4742,3.6886,3.8474,3.4253,3.134,3.095,2.5901,2.3534,2.4774,2.7765,2.9915,3.1034,3.225,3.358,3.5063,3.5355,3.5725,3.6153,3.6594,3.6956,3.7302,3.723,3.7502,3.7805,3.6828,3.4876,3.2151,2.8518,2.6142,2.4548,0.0,0.0,0.0,0.0,0.0,0.0,0.0,0.0,0.0,0.0,0.0,0.0,0.0,0.0,0.0,0.0,0.0,0.0,0.0,0.0,0.0,0.0,0.0,0.0,0.0,0.0,0.0,0.0,0.0,0.0,0.0,0.0,1.5338,1.4735,1.5693,1.646,1.6427,1.749,1.7854,1.6947,1.7433,1.7651,1.7279,1.7242,1.7142,1.6835,1.6775,1.7017,1.769,1.7993,1.827,1.8521,1.8395,1.8215,1.7991,1.7342,1.6645,1.5969,1.6168,1.5716,1.4855,1.4977,1.4493,1.3671,1.3296,1.2759,1.2018,1.0479,0.9746,0.9436,0.8233,0.722,0.6359,0.0,0.0,0.0,0.0,0.0,0.0,2.5591,2.5579,2.5528,2.5511,2.8474,3.1071,3.2253,3.4687,3.6486,3.721,3.3277,3.0235,2.8981,2.5377,2.4447,2.7005,3.0366,3.2783,3.3989,3.5351,3.634,3.7023,3.6833,3.6965,3.7321,3.7322,3.7785,3.8557,3.827,3.8581,3.9261,3.8048,3.6908,3.562,3.2698,3.0197,2.7951,2.581,2.483,2.429,2.2216,2.1412,2.1044,1.9133,0.0,0.0,0.0,0.0,0.0,0.0,0.0,0.0,0.0,0.0,0.0,0.0,0.0,0.0,0.0,0.0,0.0,0.0,0.0,0.0,0.0,0.0,0.0,0.0,1.637,1.7286,1.744,1.7754,1.8059,1.8478,1.9081,1.9246,1.8621,1.8863,1.8799,1.8209,1.8008,1.7734,1.7239,1.7054,1.7254,1.7859,1.8201,1.838,1.8398,1.858,1.8456,1.7974,1.7716,1.7125,1.6283,1.6702,1.6259,0.0,1.5444,1.4799,1.3523,1.3526,1.2882,0.0,0.0,0.0,0.0,0.0,0.7664,0.6681,0.0,0.0,0.0,0.0,0.0,0.0,2.5634,2.56,2.5595,2.5515,2.832,3.0636,3.1444,3.3692,3.5145,3.5262,3.1993,2.8803,2.6145,2.5499,2.6601,2.963,3.3401,3.5432,3.5432,3.8763,3.968,3.8115,3.8632,3.8709,3.8514,3.8119,3.8608,3.987,3.9409,3.9826,4.0781,3.9168,3.8256,3.7773,3.6728,3.4591,3.1774,2.9552,2.8547,2.7953,2.503,2.3481,2.2576,2.0879,0.0,0.0,0.0,0.0,0.0,0.0,0.0,0.0,0.0,0.0,0.0,0.0,0.0,0.0,0.0,0.0,0.0,0.0,0.0,0.0,0.0,0.0,0.0,0.0,1.8009,1.9078,1.9893,1.9493,1.9165,1.9288,1.9747,1.9828,1.9334,1.9533,1.9557,1.9219,1.8898,1.8773,1.8839,0.0,0.0,0.0,0.0,1.89,1.8154,1.8996,1.8762,1.7398,1.8174,1.7643,1.5976,1.6647,1.6385,1.5393,1.5744,1.5028,1.3668,1.3969,1.3006,1.1337,1.103,1.0981,1.091,0.9664,0.8422,0.7336,0.0,0.0,0.0,0.0,0.0,0.0,2.5686,2.5636,2.5571,2.5505,2.7234,2.8823,2.9669,3.0868,3.2315,3.419,3.0611,2.7369,2.526,2.7374,2.9514,3.1294,3.5268,3.7854,3.8727,3.9818,4.0076,3.9506,3.9312,3.918,3.9118,3.9666,3.9927,3.9962,4.1056,4.1305,4.0875,4.0572,3.9634,3.8223,3.7426,3.5336,3.2725,3.2066,3.1002,2.966,2.7999,2.737,2.7004,2.4731,2.3866,2.3365,2.1102,1.9195,0.0,0.0,0.0,0.0,0.0,0.0,0.0,0.0,0.0,0.0,0.0,0.0,0.0,0.0,0.0,0.0,0.0,0.0,0.0,1.7922,1.8807,1.9868,2.1125,2.1231,2.0868,2.0099,2.0414,2.0459,1.9848,2.0175,2.0058,1.9239,1.9143,1.8948,1.8588,1.85,0.0,1.8414,1.8778,1.899,1.9027,1.871,1.8923,1.9648,0.0,0.0,1.7555,1.7423,1.702,1.6422,1.6959,1.6422,1.5249,1.5217,1.407,1.2254,1.1381,1.0717,1.0275,1.047,0.9766,0.871,0.0,0.0,0.0,0.0,0.0,0.0,2.5695,2.5658,2.56,2.5517,2.6959,2.8182,2.8607,2.9409,3.0032,3.0353,2.7626,2.6132,2.6654,2.8973,3.1729,3.4843,3.7214,3.9326,4.1109,4.1238,4.1143,4.0775,4.0522,4.0243,4.0067,4.0369,4.0569,4.0777,4.136,4.1812,4.204,4.1279,4.0381,3.9385,3.8311,3.6258,3.3805,3.359,3.2804,3.1627,3.043,2.9605,2.8739,2.6508,2.5545,2.4915,2.2928,2.1421,2.0036,0.0,0.0,0.0,0.0,0.0,0.0,0.0,0.0,0.0,0.0,0.0,0.0,0.0,0.0,1.7387,1.7326,0.0,1.982,2.0325,2.1257,2.2218,2.3104,2.3203,2.2592,2.0969,2.1234,2.1242,2.0549,2.0712,2.0533,1.9859,1.9614,1.9287,1.8838,1.8717,1.8617,1.8549,1.8888,1.9222,1.9588,1.9123,1.9354,2.0254,1.873,1.81,1.8286,1.791,1.759,1.7376,1.7536,1.6935,1.5803,1.5038,1.4225,1.3422,1.2717,1.1696,1.0624,1.0903,1.0372,0.9607,0.0,0.0,0.0,0.0,0.0,0.0,0.0,2.5637,2.5593,2.5529,2.6691,2.7525,2.7502,2.8063,2.7909,2.6575,2.5529,2.6076,2.8642,3.0505,3.3501,3.7991,3.9063,4.0504,4.2548,4.2546,4.237,4.1978,4.1698,4.1368,4.1073,4.082,4.1007,4.1582,4.1429,4.1973,4.296,4.1691,4.0875,4.0319,3.8756,3.6777,3.4776,3.4148,3.3603,3.3024,3.1809,3.0422,2.8883,2.7185,2.6037,2.5163,2.404,2.3198,2.2305,2.0518,1.9186,0.0,0.0,0.0,0.0,0.0,0.0,0.0,0.0,1.6526,1.6994,1.7725,1.8658,1.9442,1.967,2.0908,2.2079,2.2638,2.3656,2.4467,2.4791,2.4732,2.3988,2.2158,2.2243,2.2264,2.165,2.1507,2.1266,2.0704,2.0281,1.9823,1.9364,1.9093,1.8985,1.8985,1.9165,1.9509,2.0057,1.9705,1.978,2.0317,1.9242,1.8703,1.8703,1.8306,1.811,1.8076,1.7745,1.7081,1.6097,1.4701,1.4374,1.4687,1.4103,1.3085,1.1862,1.1567,1.1073,1.0621,0.0,0.0,0.0,0.0,0.0,0.0,0.0,0.0,2.5672,2.5585,2.5685,2.5765,2.5713,2.5777,2.5729,2.5562,2.7308,2.8875,2.9931,3.2027,3.4795,3.8301,4.0413,4.1845,4.2674,4.3127,4.326,4.3032,4.2393,4.2073,4.2032,4.1625,4.1534,4.1639,4.2296,4.2475,4.2247,4.2106,4.1282,3.9886,3.788,3.6383,3.5134,3.324,3.2594,3.2497,3.1119,2.9311,2.7509,2.7155,2.6043,2.4881,2.5298,2.4723,2.3527,2.1664,1.9985,1.8374,1.6791,1.5937,1.5886,1.7429,1.7136,1.7226,0.0,2.063,2.0729,2.2155,2.2989,2.3283,2.2753,2.3215,2.3672,2.3562,2.4131,2.4733,2.5157,2.4763,2.4255,2.3862,2.3909,2.3771,2.3261,2.3021,2.2497,2.1606,2.1119,2.0673,2.0186,1.9728,1.9517,1.9517,1.9526,1.9902,2.0588,1.9982,2.0032,2.0707,1.9636,1.9143,1.9143,1.8648,1.8448,1.8408,1.7596,1.7133,1.6809,1.5515,1.5349,1.5801,1.4617,1.4255,1.4256,1.3111,1.265,1.2466,0.0,0.0,0.0,0.0,0.0,0.0,0.0,0.0,0.0,2.4913,2.5227,2.5293,2.4745,2.4666,2.4632,2.4648,2.6038,2.7812,2.998,3.2398,3.5305,3.8886,3.9952,4.1166,4.2715,4.2526,4.2705,4.3302,4.3032,4.2791,4.2541,4.2133,4.1959,4.1959,4.2066,4.2251,4.2486,4.2239,4.1685,4.0796,3.8458,3.6672,3.5122,3.2603,3.0966,2.9883,2.932,2.8004,0.0,2.5023,2.4163,2.3626,2.3518,2.3045,2.2307,2.1172,2.0332,1.9574,1.8516,1.819,1.8218,1.8658,1.9156,1.9924,2.1275,2.1668,2.2055,2.2998,2.3678,2.4011,2.3721,2.418,2.4684,2.4906,2.5431,2.5886,2.608,2.5903,2.5466,2.4714,2.4554,2.4164,2.3271,2.2853,2.2453,2.206,2.1609,2.1282,2.1057,2.0886,2.0773,2.0773,2.0773,2.0985,2.1446,2.0639,2.0624,2.1467,2.0488,2.0004,1.9983,1.9691,1.9441,1.9222,1.8733,1.8455,1.8266,1.7175,1.6728,1.6683,1.6071,1.5718,1.5359,1.3827,1.3189,1.3055,0.0,0.0,0.0,0.0,0.0,0.0,0.0,0.0,0.0,0.0,2.4975,2.5014,2.4578,2.4465,2.4412,2.4432,2.5221,2.6902,2.9625,3.1928,3.4685,3.8075,3.8825,4.01,4.2172,4.2025,4.2452,4.3577,4.3439,4.3248,4.2959,4.256,4.2302,4.2195,4.1917,4.2031,4.2459,4.2114,4.1587,4.0857,3.8647,3.6555,3.4438,3.1606,2.9284,2.7525,2.7525,2.633,2.4518,2.3193,2.2536,2.2186,2.1795,2.15,2.1199,2.046,2.0143,1.9935,1.9782,1.987,2.0054,2.0316,2.1377,2.2351,2.2271,2.282,2.3422,2.3655,2.4047,2.436,2.436,2.473,2.5175,2.5688,2.6295,2.6693,2.6693,2.6562,2.6091,2.5123,2.471,2.421,2.3361,2.2932,2.2666,2.2666,2.2217,2.1934,2.1934,2.1824,2.1729,2.1729,2.1729,2.1938,2.2378,2.158,2.1547,2.2309,2.1492,2.1047,2.0878,2.0719,2.0459,2.008,1.9772,1.9569,1.9428,1.8468,1.7952,1.7779,1.7512,1.7048,1.6397,1.4987,1.4088,1.3562,0.0,0.0,0.0,0.0,0.0,0.0,0.0,0.0,0.0,0.0,0.0,0.0,0.0,2.5292,2.5269,2.5269,2.6038,2.7274,2.9006,3.0526,3.253,3.5102,3.7155,3.9039,4.0739,4.2075,4.3169,4.3971,4.3594,4.337,4.3353,4.2977,4.258,4.2216,4.2195,4.198,4.1639,4.1617,4.0758,3.9255,3.7741,3.5505,3.2789,2.9967,2.7698,2.6072,2.6072,2.4256,2.1927,2.2418,2.1736,2.0714,2.0954,2.1048,2.0929,2.0002,1.9206,1.8925,2.0078,2.0214,2.058,2.2964,2.3804,2.4076,2.4166,2.5,2.5563,2.5044,2.4966,2.4966,2.4966,2.4992,2.5175,2.5688,2.6295,2.6693,2.6693,2.619,2.5615,2.507,2.4461,2.4093,0.0,2.3758,2.3565,2.3565,2.3086,2.2743,2.2743,2.2327,2.207,2.207,2.207,2.248,2.3366,2.2885,2.2787,2.3042,2.2624,2.213,2.1596,2.1565,2.1315,2.0828,2.0229,1.9995,1.9901,1.8893,1.883,1.9262,1.8686,1.8169,1.768,1.7113,1.5825,1.4288,0.0,0.0,0.0,0.0,0.0,0.0,0.0,0.0,0.0,0.0,0.0,0.0,0.0,0.0,0.0,0.0,2.5636,2.6535,2.8203,2.9793,3.1517,3.3355,3.5162,3.6876,3.8414,3.9302,4.012,4.0969,4.2322,4.2739,4.222,4.2893,4.2831,4.2159,4.161,4.0984,4.0364,4.0038,3.9338,3.8274,3.6233,3.4346,3.2311,2.8953,2.5975,2.3544,0.0,2.2318,2.1516,2.0794,1.9997,1.9277,1.888,1.8662,1.8541,1.8839,1.9789,2.0831,2.1012,2.2651,2.4286,2.4248,2.5193,2.6003,2.5419,2.5341,2.5214,2.4547,2.3812,2.3158,2.274,2.2744,2.3245,2.4642,2.5387,2.5977,2.6378,2.659,2.6087,2.4339,2.4628,0.0,0.0,0.0,0.0,2.4518,2.3979,2.3857,2.4392,2.3855,2.3636,2.3754,2.4086,2.4407,2.4578,2.4372,2.4506,2.4863,2.4417,2.3839,2.3139,2.3263,2.2738,2.1751,2.1642,2.1403,2.1056,2.0357,2.0028,1.9856,1.918,1.8581,1.8013,1.7362,1.6551,1.5622,0.0,0.0,0.0,0.0,0.0,0.0,0.0,0.0,0.0,0.0,0.0,0.0,0.0,0.0,0.0,0.0,0.0,2.585,2.695,2.8291,2.9601,3.0825,3.2455,3.4027,3.5561,3.6174,3.6853,3.7579,3.9354,3.9914,3.936,4.0434,4.0593,3.9971,3.959,3.9075,3.846,3.8003,3.7219,3.6063,3.4051,3.2095,3.0085,2.6954,2.4249,0.0,2.0825,2.0512,2.0491,1.9451,1.9175,1.9071,1.8017,1.7617,1.7806,1.9075,2.064,2.2158,2.3109,2.5053,2.672,2.629,2.7023,2.7567,2.6549,2.5884,2.5176,2.3877,2.298,2.2139,2.1406,2.1326,2.1851,2.3198,2.3811,2.4478,2.5518,2.6001,2.5841,2.4749,2.5282,2.5332,0.0,0.0,0.0,2.4856,2.4484,2.449,2.4948,2.4789,2.4739,2.4882,2.5442,2.5787,2.5901,2.5895,2.5909,2.5968,2.5464,2.4839,2.415,2.427,2.3854,2.3042,2.2801,2.2479,2.2035,2.1354,2.0886,2.0521,1.9983,1.9327,1.8628,1.8198,1.7572,1.6813,0.0,0.0,0.0,0.0,0.0,0.0,0.0,0.0,0.0,0.0,0.0,0.0,0.0,0.0,0.0,0.0,0.0,0.0,2.541,2.614,2.6962,2.7704,2.9167,3.0731,3.2302,3.2912,3.3504,3.4083,3.503,3.533,3.5153,3.5991,3.621,3.5856,3.6343,3.6304,3.581,3.5514,3.4428,3.2729,3.1202,2.8956,2.6386,2.4181,2.2641,2.1393,1.9654,1.8997,1.8896,1.8576,1.9306,2.01,1.8499,1.8225,1.8848,2.0813,2.1837,2.3037,2.6157,2.7375,2.8016,2.8999,2.9194,2.8739,2.7477,2.6547,2.5372,2.315,2.2458,2.1904,2.0825,2.0692,2.0955,2.1614,2.185,2.2565,2.4374,2.4667,2.5122,2.6218,2.6382,2.6169,2.5551,0.0,0.0,2.4758,0.0,2.4591,2.4673,2.5095,2.5388,2.5415,2.6032,2.6649,2.7269,2.7264,2.6965,2.6374,2.5845,2.5288,2.4729,2.4786,2.4733,2.457,2.3663,2.3123,2.2751,2.1853,2.1388,2.1242,2.1066,2.0418,1.9535,1.9574,1.888,1.7814,0.0,0.0,0.0,0.0,0.0,0.0,0.0,0.0,0.0,0.0,0.0,0.0,0.0,0.0,0.0,0.0,0.0,0.0,2.5398,2.6137,2.666,2.6831,2.7814,2.8862,2.9882,3.0532,3.0949,3.1113,3.2868,3.3391,3.2787,3.4093,3.4349,3.3668,3.3486,3.2928,3.2133,3.1609,3.0749,2.9589,2.7948,2.6561,2.5251,2.3549,2.1901,2.0404,1.9697,1.8893,1.8271,1.8967,2.012,2.1175,2.0645,2.1246,2.2369,2.3486,2.5558,2.7635,2.8177,3.0425,3.2191,3.0466,3.01,2.9559,2.71,2.5448,2.39,2.1873,2.0733,1.9728,1.8561,1.9177,2.0315,2.1839,2.3259,2.4661,2.601,2.72,2.7615,2.6769,2.7498,2.7737,2.6891,2.686,0.0,0.0,2.5234,2.4836,2.5322,2.511,2.5195,2.577,2.6606,2.7327,2.7927,2.8239,2.812,2.7658,2.8204,2.7726,2.641,2.7114,2.6497,2.4856,2.4631,2.3937,2.3001,2.2766,2.2376,2.1908,2.1412,2.0773,2.0045,1.9621,1.9115,1.8597,0.0,0.0,0.0,0.0,0.0,0.0,0.0,0.0,0.0,0.0,0.0,0.0,0.0,0.0,0.0,0.0,0.0,0.0,0.0,2.582,2.601,2.5916,2.6414,2.6868,2.731,2.7714,2.7868,2.7766,2.9203,2.964,2.915,3.0294,3.0584,3.0189,3.0135,2.9807,2.9255,2.8697,2.7947,0.0,0.0,2.4163,2.335,2.1785,2.0609,1.9665,1.9001,1.8779,1.8957,1.9783,2.0956,2.215,2.2959,2.3945,2.5184,2.6733,2.8414,2.9951,3.0682,3.258,3.383,3.1747,3.1073,3.0211,2.7466,2.5492,2.3577,2.1182,1.9947,1.8941,1.7811,1.843,1.9517,2.0809,2.2148,2.377,2.5925,2.7159,2.7952,2.8312,2.9133,2.9258,2.8168,2.8078,2.7782,0.0,2.6156,2.5716,2.5738,2.5881,2.6272,2.6972,2.7761,2.8587,2.9362,2.9612,2.9456,2.8926,2.9478,2.8941,2.7485,2.8047,2.7432,2.5923,0.0,2.5048,2.3947,2.3831,2.3317,2.2597,2.2275,2.1557,2.0723,2.048,1.9924,1.931,0.0,0.0,0.0,0.0,0.0,0.0,0.0,0.0,0.0,0.0,0.0,0.0,0.0,0.0,0.0,0.0,0.0,0.0,0.0,0.0,2.5137,2.5193,2.5209,2.5198,2.5191,2.5214,2.5118,2.4935,2.5461,2.566,2.5494,2.6016,2.6313,2.6401,2.6804,2.6957,2.6898,2.6375,2.567,2.4707,2.3063,2.1957,2.1142,0.0,1.9234,1.9017,1.8031,1.8594,1.9929,2.0797,2.2016,2.3498,2.5269,2.6461,2.765,3.0001,3.0745,3.1206,3.3246,3.422,3.4325,3.2969,3.1973,3.0599,2.7815,2.5635,2.3417,2.059,1.9553,1.8817,1.7882,1.8254,1.8979,1.9732,2.046,2.2068,2.5354,2.6323,2.7565,2.9955,3.0719,3.054,2.93,2.9176,2.8696,2.7428,2.7352,2.699,2.6123,2.6879,2.7702,2.8507,2.9233,3.0046,3.0955,3.0984,3.066,3.0128,3.0153,2.95,2.8314,2.833,2.7969,2.7289,0.0,0.0,2.5396,2.4995,2.429,2.3495,2.3406,2.2655,2.1625,2.1704,2.1073,2.0194,0.0,0.0,0.0,0.0,0.0,0.0,0.0,0.0,0.0,0.0,2.4867,2.475,0.0,0.0,0.0,0.0,0.0,0.0,0.0,0.0,0.0,2.5164,2.5203,2.5203,2.5191,2.5197,2.5185,2.5156,2.5,2.4872,2.4832,2.4691,2.464,2.465,2.4711,2.4626,2.44,2.4086,2.3413,2.2399,2.1274,2.036,1.9682,1.9407,0.0,0.0,1.7669,1.7984,1.9072,2.1675,2.422,2.6461,2.7243,2.8748,3.0485,3.1827,3.2729,3.3565,3.4965,3.5922,3.6076,3.4213,3.24,3.0063,2.6209,2.3409,2.1045,1.8903,1.8378,1.8172,1.7702,1.852,1.9831,2.154,2.255,2.4149,2.6984,2.8418,2.9375,2.9899,3.1005,3.1321,3.0259,3.0205,0.0,0.0,0.0,2.8192,2.6964,2.7052,2.7827,2.9253,3.0415,3.1127,3.1304,3.1304,3.1129,3.0748,3.087,3.0425,2.9528,2.957,2.9124,2.8323,2.8117,0.0,2.7187,2.6335,2.5681,2.5143,2.4565,2.3874,2.3138,2.2542,2.2043,2.1599,0.0,0.0,0.0,0.0,0.0,0.0,0.0,0.0,2.5687,2.5687,2.5335,2.5257,2.5648,2.5687,0.0,0.0,0.0,0.0,0.0,0.0,0.0,2.5197,2.5191,2.5191,2.5191,2.5191,2.5191,2.5191,0.0,2.47,2.4692,2.4376,2.419,2.419,2.419,2.4141,2.3986,2.3577,2.2901,2.202,2.0848,2.0188,1.9843,1.9441,0.0,0.0,1.8323,1.8626,1.9511,2.1581,2.3801,2.6045,2.8297,3.0176,3.1663,3.2458,3.3516,3.4628,3.557,3.6409,3.6565,3.4901,3.2931,3.0448,2.6684,2.3606,2.1059,1.9385,1.8596,1.8266,1.8448,1.9209,2.0194,2.1304,2.192,2.3364,2.6429,2.7432,2.8543,3.0555,3.1229,3.1345,3.0843,3.0534,2.9949,0.0,0.0,2.8772,2.76,2.8414,2.9337,3.0263,3.1805,3.2648,3.281,3.281,3.2542,3.2009,3.204,3.1476,3.0364,3.0418,2.9995,2.9194,2.8731,0.0,2.8178,2.6957,2.6344,2.6106,2.5405,2.4703,2.4053,2.3752,2.3354,2.2963,0.0,0.0,0.0,0.0,0.0,0.0,0.0,2.5844,2.5922,2.5726,2.5844,2.5922,2.5726,2.5687,2.5669,0.0,0.0,0.0,0.0,0.0,0.0,0.0,0.0,0.0,2.5191,0.0,0.0,2.515,2.4849,0.0,0.0,0.0,0.0,0.0,2.419,2.417,2.4102,2.3653,2.2918,0.0,0.0,2.0488,2.0119,0.0,0.0,0.0,0.0,1.9519,2.0187,2.1311,2.2621,2.4346,2.7549,2.9745,3.1306,3.1998,3.331,3.4776,3.5687,3.6404,3.6527,3.512,3.2993,3.0342,2.7061,2.3935,2.1375,2.0085,1.9123,1.873,1.9319,1.9816,2.0322,2.0884,2.1062,2.2253,2.5521,2.6173,2.7495,3.0695,3.1124,3.116,3.1051,3.0568,0.0,0.0,0.0,0.0,2.836,2.9962,3.0986,3.1209,3.2908,3.3873,3.4101,3.3964,3.3607,3.3024,3.2756,3.2089,3.1063,3.09,3.0532,2.9978,2.936,0.0,0.0,2.7602,2.7023,2.7035,2.6134,2.543,2.4925,2.4865,2.4577,2.4232,0.0,0.0,0.0,0.0,0.0,0.0,0.0,2.6352,2.6586,2.5805,2.6391,2.6586,2.5805,2.5687,2.5672,0.0,0.0,0.0,0.0,0.0,0.0,0.0,0.0,0.0,0.0,0.0,0.0,2.4922,2.4753,0.0,0.0,0.0,0.0,0.0,0.0,2.4046,2.3827,2.3785,0.0,0.0,0.0,0.0,0.0,0.0,0.0,0.0,0.0,2.0155,2.0502,2.1397,2.1923,2.2418,2.3576,2.6022,2.8681,2.9806,3.1734,3.3828,3.5671,3.6295,3.6127,3.4735,3.1836,2.8595,2.5716,2.2841,2.0578,1.9715,1.9449,1.9489,1.978,1.9892,2.0376,2.1678,2.1694,2.2536,2.5435,2.6696,2.786,2.9179,3.0416,3.1044,3.0616,3.0511,3.0284,0.0,0.0,0.0,2.9639,3.1048,3.1877,3.1901,3.3307,3.4075,3.4101,3.3551,3.3266,3.3169,3.1926,3.1451,3.1517,3.0856,3.0618,3.079,3.0464,0.0,0.0,2.886,2.8282,2.8371,2.695,2.6382,2.6232,2.5581,2.5297,2.528,0.0,0.0,0.0,0.0,0.0,0.0,0.0,2.5997,2.6076,2.5757,2.5997,2.6078,2.5726,2.5673,2.5603,0.0,0.0,0.0,0.0,0.0,0.0,0.0,0.0,0.0,0.0,0.0,2.372,2.4182,2.3904,0.0,0.0,0.0,0.0,0.0,0.0,2.4151,2.3989,2.3339,0.0,0.0,0.0,0.0,0.0,0.0,0.0,0.0,0.0,0.0,2.0591,2.139,2.1265,2.0854,2.1268,2.2573,2.4512,2.7377,2.9722,3.1887,3.3891,3.4486,3.4415,3.3846,3.1065,2.7977,2.5999,2.3046,2.0682,2.0365,1.9955,1.9829,2.0355,2.0446,2.055,2.0949,2.0751,2.1303,2.3503,2.4449,2.586,2.8367,2.9265,2.9955,0.0,0.0,0.0,0.0,0.0,0.0,3.0342,3.1401,3.2066,3.2229,3.3599,3.4252,3.4041,3.3792,3.3267,3.2497,3.2646,3.2264,3.1483,3.1658,3.1549,3.1167,3.063,0.0,0.0,2.9244,2.8802,2.9162,2.7636,2.7053,2.7001,2.6755,2.6699,2.6726,0.0,0.0,0.0,0.0,0.0,2.4703,2.5554,2.5912,2.5993,2.5715,2.5917,2.6075,2.6023,2.5525,2.5243,2.5431,0.0,0.0,0.0,0.0,0.0,0.0,0.0,0.0,0.0,0.0,2.3183,2.3956,2.3916,2.3899,0.0,0.0,2.4006,2.3006,0.0,0.0,0.0,0.0,0.0,0.0,0.0,0.0,0.0,0.0,0.0,0.0,0.0,0.0,0.0,0.0,0.0,2.0496,2.0229,2.0618,2.1806,2.4773,2.7527,2.9983,3.1931,3.2728,3.3013,3.2921,3.0172,2.7158,2.5866,2.3133,2.0829,2.0671,2.0432,2.04,2.0846,2.0958,2.0893,2.0712,2.0416,2.0749,2.2254,2.3106,2.4572,2.7249,2.7856,2.8692,0.0,3.0228,0.0,0.0,0.0,0.0,0.0,3.1983,3.2365,3.2431,3.3825,3.4418,3.4037,3.3748,3.3195,3.2374,3.3005,3.2712,3.1678,3.2023,3.185,3.1262,0.0,0.0,0.0,2.9322,2.8996,2.9346,2.8052,2.7562,2.7562,2.7601,2.7646,2.7704,0.0,0.0,0.0,0.0,0.0,0.0,0.0,2.6411,2.6688,2.5802,2.6469,2.6923,2.6785,2.5232,2.4507,2.5245,0.0,0.0,0.0,0.0,0.0,0.0,0.0,0.0,0.0,0.0,2.3987,2.4593,2.525,2.5523,2.5384,2.5374,2.453,2.3006,0.0,0.0,0.0,0.0,0.0,0.0,0.0,0.0,0.0,0.0,0.0,0.0,0.0,0.0,0.0,0.0,0.0,0.0,0.0,2.0713,2.1407,2.2069,2.5054,2.8478,3.0105,3.1388,3.226,3.1991,2.8926,2.5762,2.4742,2.2728,2.0926,2.0342,2.0792,2.1293,2.1293,2.1293,2.1293,2.1293,2.1293,2.1552,2.2313,2.3591,2.4737,2.543,2.6173,2.7347,2.9128,3.0288,0.0,0.0,0.0,0.0,0.0,3.3132,3.2926,3.252,3.4007,3.4569,3.4098,3.319,3.2869,3.3173,3.2582,3.2318,3.2282,3.1459,3.111,0.0,0.0,0.0,0.0,2.9202,2.8946,2.893,2.8201,2.7897,2.7897,2.7897,2.7897,2.7911,0.0,0.0,0.0,0.0,0.0,0.0,0.0,2.5896,2.6022,2.5754,2.59,2.6043,2.5983,2.5398,2.5112,2.528,0.0,0.0,0.0,0.0,0.0,0.0,0.0,0.0,0.0,0.0,2.3259,2.4451,2.458,2.4919,2.5411,2.5411,2.4824,2.3823,2.3823,2.3544,0.0,0.0,0.0,0.0,0.0,0.0,0.0,0.0,0.0,0.0,0.0,0.0,0.0,0.0,0.0,0.0,0.0,0.0,0.0,2.1541,2.3259,2.5481,2.7279,2.771,2.7742,2.8125,2.6185,2.4154,2.3829,2.2441,2.1181,2.0986,2.1131,2.1293,2.1293,2.1293,2.1293,2.1293,2.1293,2.1584,2.2362,2.395,2.5525,2.6788,2.8807,3.0376,0.0,0.0,0.0,0.0,0.0,0.0,0.0,3.404,3.4196,3.3694,3.4066,3.404,3.3485,3.3183,3.2874,3.2599,3.2658,3.2414,3.188,3.1678,0.0,0.0,0.0,0.0,0.0,2.9775,2.9638,2.961,2.8802,2.8513,2.8513,2.8513,2.8876,2.9339,0.0,0.0,0.0,0.0,0.0,0.0,0.0,2.5646,2.5653,2.5658,2.5595,2.5566,2.554,2.5156,2.4992,2.5226,0.0,0.0,0.0,0.0,0.0,0.0,0.0,0.0,0.0,2.325,2.3619,2.4837,2.5343,2.5815,2.6292,2.6292,2.5558,2.4226,2.4451,2.3969,0.0,0.0,0.0,0.0,0.0,0.0,2.2556,0.0,0.0,0.0,0.0,0.0,0.0,0.0,0.0,0.0,0.0,0.0,0.0,0.0,2.2581,2.3757,2.5193,2.5403,2.538,2.6184,2.4699,2.3042,2.321,2.2344,2.1445,2.1244,2.139,2.1584,2.1705,2.1735,2.1731,2.1849,2.1776,2.2041,2.2936,2.4752,2.6605,2.8271,0.0,0.0,0.0,0.0,0.0,0.0,0.0,0.0,0.0,3.4382,3.4579,3.4818,3.4322,3.3829,3.3329,3.3175,3.3031,3.2779,3.2727,3.2436,3.1931,3.1361,0.0,0.0,0.0,0.0,0.0,2.9644,2.9551,2.9576,2.9089,2.9052,2.9308,2.9308,2.9673,3.0051,0.0,0.0,0.0,0.0,0.0,0.0,0.0,0.0,0.0,2.5593,2.5512,2.5447,2.5317,2.4652,2.4452,2.517,0.0,0.0,0.0,0.0,0.0,0.0,0.0,0.0,0.0,2.4281,2.4912,2.5745,2.7138,2.7835,2.7871,2.7835,2.6586,2.441,2.4949,2.3873,0.0,0.0,0.0,0.0,0.0,0.0,0.0,0.0,0.0,0.0,0.0,0.0,0.0,0.0,0.0,0.0,0.0,0.0,0.0,0.0,0.0,0.0,0.0,2.4298,2.479,2.5741,2.4182,2.2522,2.2915,2.2363,0.0,2.1155,2.1519,2.204,2.2283,2.2384,2.2499,2.2759,2.2591,2.2835,2.3924,2.5972,2.7996,0.0,3.0685,0.0,0.0,0.0,0.0,0.0,0.0,0.0,0.0,3.4314,3.4169,3.5675,3.4595,3.382,3.3509,3.3193,3.3238,3.3587,3.2734,3.2333,3.2261,3.0646,0.0,0.0,0.0,0.0,0.0,2.8905,2.894,2.9023,2.906,2.9537,3.021,3.0246,3.0283,3.0295,0.0,0.0,0.0,0.0,0.0,0.0,0.0,0.0,0.0,0.0,2.5486,2.5197,2.4559,2.4804,2.5087,0.0,0.0,0.0,0.0,0.0,0.0,0.0,0.0,0.0,0.0,2.5578,2.5976,2.7264,2.7625,2.8117,2.8693,2.8162,2.7264,2.6103,2.6107,2.4921,0.0,0.0,0.0,0.0,0.0,0.0,0.0,0.0,0.0,0.0,2.3413,2.3413,0.0,0.0,0.0,0.0,0.0,0.0,0.0,0.0,2.3366,2.3401,2.3422,0.0,2.3295,2.3543,2.3138,2.2712,0.0,2.2216,2.1593,2.1459,2.1575,2.1691,2.1788,2.2288,2.2733,2.2797,2.2746,2.3246,2.4793,2.7631,0.0,3.1275,3.2128,0.0,0.0,0.0,0.0,0.0,0.0,0.0,0.0,3.4681,3.4644,3.5008,3.4149,3.3626,3.3509,3.3459,3.3502,3.3587,3.2218,3.155,3.1514,2.9954,0.0,0.0,0.0,0.0,2.8905,2.8905,2.894,2.906,2.9684,3.0026,3.0283,3.087,3.1164,3.1127,0.0,0.0,0.0,0.0,0.0,0.0,0.0,0.0,0.0,0.0,0.0,0.0,0.0,0.0,0.0,0.0,0.0,0.0,0.0,0.0,0.0,0.0,0.0,0.0,2.6804,2.6669,2.7032,2.7868,2.8235,2.8651,2.9078,2.868,2.8,2.7072,2.6129,2.5072,0.0,0.0,0.0,0.0,2.3023,0.0,0.0,0.0,0.0,0.0,2.3505,2.3505,0.0,2.3505,2.3505,2.3505,0.0,0.0,0.0,0.0,2.3551,2.3477,2.3019,2.2941,2.3077,2.3301,2.3105,2.2885,2.286,2.2581,2.208,2.1347,2.1487,2.1778,2.1908,2.2295,2.2706,2.32,2.3189,2.3811,2.5791,2.7767,2.9711,3.1787,3.2105,0.0,0.0,0.0,0.0,0.0,0.0,0.0,0.0,3.4448,3.4229,3.4229,3.3505,3.3068,3.3063,3.3068,3.2912,3.2587,3.1382,3.0834,3.0905,3.0116,2.9776,0.0,0.0,0.0,2.9811,2.9811,2.9853,2.9969,3.0416,3.1022,3.1719,3.2041,3.2038,3.173,0.0,0.0,0.0,0.0,0.0,0.0,0.0,0.0,0.0,0.0,0.0,0.0,0.0,0.0,0.0,0.0,0.0,0.0,0.0,0.0,0.0,0.0,0.0,2.7101,2.7155,2.7611,2.7915,2.8106,2.8891,2.9245,2.92,2.9348,2.8747,2.7556,2.5749,2.4845,0.0,0.0,0.0,0.0,2.3325,0.0,0.0,0.0,0.0,0.0,0.0,0.0,0.0,2.3395,2.3395,2.3359,2.3251,0.0,0.0,0.0,0.0,0.0,2.2663,2.3048,2.3614,2.3771,2.355,2.3247,2.3092,2.2952,2.2494,2.1249,2.146,2.1963,2.2325,2.2464,2.2815,2.3676,2.3992,2.4944,2.73,2.7945,2.9181,3.19,0.0,0.0,0.0,0.0,0.0,0.0,0.0,0.0,0.0,3.3922,3.3483,3.3359,3.2766,3.2351,3.2241,3.2313,3.2094,3.1458,3.0684,3.0383,3.0533,3.049,3.054,0.0,0.0,0.0,3.0706,3.0706,3.0771,3.0807,3.0958,3.1826,3.3015,3.2964,3.2555,3.1987,0.0,0.0,0.0,0.0,0.0,0.0,0.0,0.0,0.0,0.0,0.0,0.0,0.0,0.0,0.0,0.0,0.0,0.0,0.0,0.0,0.0,0.0,2.7773,2.7596,2.8815,2.8255,2.8318,2.8993,2.9806,2.9854,2.9237,2.9972,2.9341,2.7607,2.5973,2.5095,2.4793,0.0,0.0,0.0,0.0,0.0,0.0,0.0,0.0,0.0,0.0,0.0,0.0,2.2817,2.2847,2.2768,2.204,0.0,0.0,0.0,0.0,0.0,2.2534,2.3702,2.4498,2.321,2.3786,2.4518,2.3833,2.2664,2.1873,2.2281,2.1984,2.1878,2.258,2.323,2.3682,2.3868,2.5553,2.7743,0.0,0.0,3.1796,3.2237,0.0,0.0,0.0,0.0,0.0,0.0,0.0,0.0,0.0,3.3418,3.2996,3.2254,3.2152,3.1752,3.1063,3.1578,3.1838,3.1912,3.1073,3.073,3.0722,3.0067,2.9777,0.0,0.0,2.9943,2.9866,2.9866,2.9912,2.995,3.0658,3.1072,3.1365,3.1995,3.1817,3.1173,0.0,0.0,0.0,0.0,0.0,0.0,0.0,0.0,0.0,0.0,0.0,0.0,0.0,0.0,0.0,0.0,0.0,0.0,0.0,0.0,0.0,2.9561,2.8754,2.8569,2.92,2.9274,2.9507,2.9898,3.0713,3.092,3.0583,3.0408,2.9174,2.7064,2.635,2.5444,2.4547,2.4808,0.0,0.0,0.0,0.0,0.0,0.0,0.0,0.0,0.0,0.0,0.0,0.0,2.2529,2.2172,2.1698,0.0,0.0,0.0,0.0,0.0,2.147,2.2943,2.4148,2.2648,2.4016,2.5416,2.4179,2.3363,2.2718,2.2217,2.2163,2.2364,2.2738,2.3519,2.4597,2.605,2.7588,2.8995,3.0117,3.0598,3.1131,0.0,0.0,0.0,0.0,0.0,0.0,0.0,0.0,0.0,0.0,0.0,3.2214,3.1389,3.1371,3.0829,2.961,2.9934,3.0293,3.0686,3.0321,3.0208,3.0296,2.9926,3.0086,3.067,0.0,3.0655,3.0731,3.0731,3.0738,3.0836,3.1172,3.1905,3.2714,3.3088,3.2964,3.2542,0.0,0.0,0.0,0.0,0.0,0.0,0.0,0.0,0.0,0.0,0.0,0.0,0.0,0.0,0.0,0.0,0.0,0.0,0.0,0.0,2.9579,2.957,2.9471,2.946,2.9539,3.012,3.055,3.0806,3.1621,3.1952,3.1786,3.0801,2.9134,2.7015,2.6999,2.6196,2.4922,2.5752,2.6013,0.0,0.0,0.0,0.0,0.0,0.0,0.0,0.0,0.0,0.0,0.0,0.0,0.0,0.0,0.0,0.0,2.1581,2.1428,2.1301,2.0619,2.1953,2.3309,2.2169,2.4016,2.5862,2.4924,2.452,2.4143,2.3355,2.3529,2.3741,2.3529,2.41,2.5411,2.783,2.9102,2.9926,3.0349,3.0536,0.0,0.0,0.0,0.0,0.0,0.0,0.0,0.0,0.0,0.0,0.0,0.0,3.1516,3.0704,3.0542,2.9901,2.8723,2.8553,2.8715,2.9149,2.9166,2.9258,2.9406,2.9421,3.0004,3.1021,3.0944,3.1079,3.1309,3.1309,3.136,3.1429,3.1621,3.2583,3.3898,3.3898,3.3792,3.3638,0.0,0.0,0.0,0.0,0.0,0.0,0.0,0.0,0.0,0.0,0.0,0.0,0.0,0.0,0.0,0.0,0.0,0.0,0.0,0.0,2.9617,2.9414,2.9444,2.9797,3.0463,3.0575,3.0946,3.1689,3.2507,3.2567,3.1868,3.1038,2.9766,2.8185,2.8185,2.7709,2.6896,2.6987,2.6995,2.6903,0.0,0.0,0.0,0.0,0.0,0.0,0.0,0.0,0.0,0.0,0.0,0.0,0.0,0.0,2.2997,2.1412,2.0942,2.0907,2.0646,2.1398,2.2174,2.1975,2.3612,2.5544,2.6572,2.6096,2.5948,2.7575,2.7353,2.6614,2.5651,2.5513,2.6052,2.7749,2.9528,3.1239,3.2797,0.0,0.0,0.0,0.0,0.0,0.0,0.0,0.0,0.0,0.0,0.0,0.0,0.0,0.0,3.0268,2.9538,2.9098,2.8957,2.8242,2.786,2.786,2.7886,2.7905,2.788,2.7917,2.8458,2.9261,2.9261,2.974,3.0494,3.0494,3.05,3.0577,3.1385,3.2237,3.3006,3.3006,3.3019,3.3159,0.0,0.0,0.0,0.0,0.0,0.0,0.0,0.0,0.0,0.0,0.0,0.0,0.0,0.0,0.0,0.0,0.0,0.0,0.0,0.0,2.9036,2.9444,2.9501,2.9864,3.0644,3.0644,3.1092,3.1912,3.2732,3.2732,3.1933,3.1113,2.9827,2.8297,2.8353,2.7885,2.7145,2.7783,2.8014,2.7976,2.7089,0.0,0.0,0.0,0.0,0.0,0.0,0.0,0.0,0.0,2.1211,2.1526,2.1104,2.1808,2.2539,2.131,2.0939,2.0851,2.0196,2.1083,2.2164,2.2219,2.355,2.5129,2.6093,2.6439,2.6814,2.7512,2.7809,2.7683,2.6908,2.7172,2.7913,2.9166,3.1286,3.2809,0.0,0.0,0.0,0.0,0.0,0.0,0.0,0.0,0.0,0.0,0.0,0.0,0.0,0.0,0.0,2.8734,2.8419,2.8003,2.7443,2.7182,2.6749,2.615,2.7251,2.78,2.7762,2.7779,2.8269,2.9104,2.9104,2.9571,3.0385,3.0385,3.0385,3.05,3.1346,3.2199,3.2968,3.3493,3.4051,3.4603,0.0,0.0,0.0,0.0,0.0,0.0,0.0,0.0,0.0,0.0,0.0,0.0,0.0,0.0,0.0,0.0,0.0,0.0,2.767,2.808,2.8596,2.9129,2.941,2.9822,3.0383,3.0383,3.0924,3.2014,3.2563,3.2425,3.1624,3.1026,3.0176,2.912,2.8886,2.8623,2.8367,2.8801,2.9003,2.8923,2.7843,2.7425,0.0,0.0,0.0,0.0,0.0,0.0,0.0,0.0,2.1706,2.2047,2.1927,2.257,2.3112,2.2192,2.1714,2.1317,2.0432,2.1054,2.1972,2.2027,2.3442,2.5225,2.6571,2.7478,2.8202,2.8826,2.8717,2.8256,2.7532,2.7888,2.8495,0.0,3.15,0.0,0.0,0.0,0.0,0.0,0.0,0.0,0.0,0.0,0.0,0.0,0.0,0.0,0.0,0.0,0.0,0.0,2.7533,2.7116,2.6557,2.6287,2.5869,2.5257,2.6442,2.7023,2.7034,2.7314,2.7907,2.8742,2.8973,2.9583,3.0385,3.0385,3.0577,3.0885,3.1737,3.2589,3.3378,3.4017,3.4625,3.5112,0.0,0.0,0.0,0.0,0.0,0.0,0.0,0.0,0.0,0.0,0.0,0.0,0.0,0.0,0.0,0.0,0.0,0.0,2.5989,2.7486,2.839,2.839,2.9232,2.9701,2.9701,2.9701,3.0442,3.1976,3.1976,3.1586,3.0804,3.0804,3.0834,3.0856,3.0077,3.018,3.094,3.0147,2.9859,2.9745,2.8093,2.7455,0.0,0.0,0.0,0.0,0.0,0.0,0.0,0.0,2.3193,2.3913,2.3913,2.4498,2.5038,2.4148,2.3307,2.2408,2.1466,2.1313,2.1378,2.1282,2.3263,2.5882,2.8421,2.9472,3.0402,3.2287,3.0579,2.8465,2.7592,2.744,2.7433,2.7433,2.9725,0.0,0.0,0.0,0.0,0.0,0.0,0.0,0.0,0.0,0.0,0.0,0.0,0.0,0.0,0.0,0.0,0.0,2.6984,2.6582,2.6582,2.5731,2.5308,2.5308,2.5308,2.5298,2.5349,2.6221,2.7082,2.7972,2.8742,2.9588,3.0385,3.0385,3.0929,3.1775,3.2589,3.3416,3.4192,3.4257,3.4323,3.4262,0.0,0.0,0.0,0.0,0.0,0.0,0.0,0.0,0.0,0.0,0.0,0.0,0.0,0.0,0.0,0.0,0.0,0.0,2.5901,2.6426,2.7206,2.836,2.8632,2.9054,2.9701,2.9701,3.0208,3.1219,3.1219,3.1117,3.0864,3.0864,3.0612,3.0141,3.048,3.0458,3.0204,3.0089,3.0014,2.9962,2.8872,2.8145,2.7478,0.0,0.0,0.0,0.0,0.0,0.0,0.0,0.0,0.0,2.3902,2.4509,2.5038,2.417,2.3717,2.3334,2.2487,2.2747,2.338,2.3957,2.5581,2.7526,2.9487,2.9556,2.9715,3.1506,3.0755,2.9754,2.9497,2.9452,0.0,2.8564,0.0,0.0,0.0,0.0,0.0,0.0,0.0,0.0,0.0,0.0,0.0,0.0,0.0,0.0,0.0,0.0,0.0,0.0,2.5803,2.5692,2.5692,2.5493,2.537,2.5374,2.6025,2.6296,2.6221,2.7115,2.7975,2.8854,2.9704,3.0245,3.0539,3.0539,3.0694,3.0966,3.1176,3.1801,3.2581,3.2598,3.3008,3.3527,0.0,0.0,0.0,0.0,0.0,0.0,0.0,0.0,0.0,0.0,2.4825,2.4818,0.0,0.0,0.0,0.0,0.0,0.0,0.0,2.6577,2.7223,2.789,2.8566,2.9176,2.9701,2.9701,2.9945,3.0462,3.0424,3.0434,3.0462,3.081,3.0753,3.0389,3.0851,3.0856,3.0438,3.0205,2.99,2.9587,2.9088,2.8236,2.7109,0.0,0.0,0.0,0.0,0.0,0.0,0.0,0.0,0.0,2.4432,2.4771,2.5111,2.4575,2.4197,2.3825,2.3332,2.3587,2.4298,2.5472,2.7044,2.8662,3.0004,3.0649,3.1152,3.1862,3.1398,3.0606,2.989,2.95,0.0,0.0,0.0,0.0,0.0,0.0,0.0,0.0,0.0,0.0,0.0,0.0,0.0,0.0,0.0,0.0,0.0,0.0,0.0,0.0,2.5365,2.5382,2.5382,2.5433,2.5459,2.5459,2.6019,2.6424,2.6709,2.7593,2.8277,2.883,3.0031,3.0568,3.0613,3.0613,3.062,3.0626,3.0983,3.1459,3.19,3.1943,3.2309,3.2703,0.0,0.0,0.0,0.0,0.0,0.0,0.0,0.0,0.0,0.0,2.4678,2.4654,0.0,0.0,0.0,0.0,0.0,0.0,0.0,0.0,2.8003,2.7336,2.8847,2.972,2.972,2.9729,2.9737,2.9816,2.9728,2.9728,2.9816,3.0693,3.1124,3.1088,3.1181,3.1146,3.1012,3.0312,2.9549,2.8796,2.8803,2.7867,2.6489,2.6489,0.0,0.0,0.0,0.0,0.0,0.0,0.0,0.0,2.5198,2.5192,2.5187,2.5204,2.4683,2.4124,2.4055,2.4124,2.4625,2.6211,2.7988,2.9536,3.0362,3.2345,3.3719,3.2785,3.2101,3.1226,2.9538,2.8573,2.7998,0.0,0.0,0.0,0.0,0.0,0.0,0.0,0.0,0.0,0.0,0.0,0.0,0.0,0.0,0.0,0.0,0.0,0.0,2.5422,2.5451,2.5482,2.5482,2.5568,2.5649,0.0,2.5784,2.6259,2.6954,2.7669,2.8091,2.8327,2.9933,3.0636,3.0636,3.0636,3.0649,3.0703,3.1511,3.1799,3.1829,3.187,3.1926,3.1896,0.0,0.0,0.0,0.0,0.0,0.0,0.0,0.0,0.0,0.0,0.0,0.0,0.0,0.0,0.0,0.0,0.0,0.0,0.0,0.0,2.7665,2.8116,2.921,2.9773,2.9773,2.9842,2.9847,2.9864,2.9816,2.9816,2.9901,3.0781,3.0869,3.035,3.0988,3.0609,2.9386,2.9234,2.8675,2.7969,2.795,2.7357,2.6489,2.6512,2.5888,0.0,0.0,0.0,0.0,0.0,0.0,0.0,2.5262,2.5247,2.5198,2.5252,2.5142,2.5037,2.5009,2.5523,2.6303,2.7341,2.9379,3.134,3.2141,3.2756,3.275,3.1226,3.1815,3.2289,3.1232,3.0336,0.0,0.0,0.0,0.0,0.0,0.0,0.0,0.0,0.0,0.0,0.0,0.0,0.0,0.0,0.0,0.0,0.0,0.0,0.0,2.546,2.5476,2.5482,2.5482,2.6233,2.6608,0.0,2.8052,2.8457,2.7953,2.7342,2.7862,2.926,3.0351,3.0831,3.0831,3.0831,3.0836,3.0843,3.104,3.112,3.1124,3.113,3.1131,3.1132,0.0,0.0,0.0,0.0,0.0,0.0,0.0,0.0,0.0,0.0,0.0,0.0,0.0,0.0,0.0,0.0,0.0,0.0,0.0,0.0,0.0,2.9051,2.9552,2.9868,2.9868,2.9872,2.9921,3.0007,2.9959,2.9959,3.0007,3.0842,3.0852,3.0173,3.0997,3.044,2.8911,2.8937,2.8256,2.7153,2.7566,2.7284,2.6535,2.6502,2.6261,2.5875,2.55,0.0,0.0,0.0,0.0,0.0,0.0,0.0,2.5335,2.5374,2.5382,2.539,2.539,2.5746,2.6485,2.8152,3.0506,3.2434,3.2401,3.2401,3.2053,3.0767,3.146,3.1923,3.0642,2.9719,0.0,0.0,0.0,0.0,0.0,0.0,0.0,0.0,0.0,0.0,0.0,0.0,0.0,0.0,0.0,0.0,0.0,2.5549,2.5564,2.5564,2.5979,2.6227,2.6231,2.7111,2.7552,2.7598,2.8546,2.8747,2.8319,2.818,2.8871,3.021,3.0692,3.1126,3.1438,3.1048,3.0893,3.0896,3.0897,3.0897,3.0898,3.0898,3.0898,3.0898,0.0,0.0,0.0,0.0,0.0,0.0,0.0,0.0,0.0,0.0,0.0,0.0,0.0,0.0,0.0,0.0,0.0,0.0,0.0,0.0,0.0,2.9825,2.9872,2.9921,2.9921,2.9937,3.0022,3.0136,3.0106,3.0258,3.0571,3.0937,3.0776,3.0237,3.0918,3.0345,2.8937,2.897,2.8102,2.6807,2.7532,2.7341,2.661,2.6567,2.6477,2.6333,2.5677,2.5433,2.5441,2.5661,0.0,0.0,0.0,0.0,2.5676,2.5547,2.5511,2.5517,2.5505,2.5628,2.6294,2.8699,3.0944,3.2381,3.1809,3.1697,3.1464,3.0768,3.096,3.0871,2.961,0.0,0.0,0.0,0.0,0.0,0.0,0.0,0.0,0.0,0.0,0.0,0.0,0.0,0.0,0.0,0.0,0.0,2.5512,2.5749,2.5847,2.5848,2.6734,2.7215,2.7219,2.8078,2.851,2.8513,2.8671,2.8828,2.8984,2.9725,3.0348,3.0934,3.1207,3.1637,3.2067,3.1363,3.1013,3.0897,3.0897,3.0976,3.1094,3.0976,3.0976,3.1094,0.0,0.0,0.0,0.0,0.0,0.0,0.0,0.0,0.0,0.0,2.6543,2.7027,0.0,0.0,0.0,0.0,0.0,0.0,0.0,0.0,0.0,2.988,3.0007,3.0061,3.0061,3.0128,3.0164,3.0178,3.0199,3.0946,3.2414,3.0995,3.0307,3.0188,3.0296,2.9864,2.8982,2.8989,2.849,2.7647,2.7758,2.7329,2.6601,2.6653,2.6246,2.5612,2.5544,2.5508,2.5589,2.6384,2.662,0.0,0.0,0.0,2.6465,2.5715,2.5482,2.5482,2.552,2.6061,2.7068,2.8851,2.955,2.9981,3.0613,3.0768,3.0729,3.0613,3.0086,2.9796,0.0,0.0,0.0,0.0,0.0,0.0,0.0,0.0,0.0,0.0,0.0,0.0,0.0,0.0,0.0,0.0,0.0,0.0,2.5677,2.6385,2.6818,2.6822,2.7685,2.8118,2.8122,2.898,2.9411,2.9452,3.0195,3.0937,3.168,3.1797,3.1484,3.0975,3.2459,3.2694,3.2108,3.1991,3.1523,3.0898,3.0898,3.1367,3.1914,3.1172,3.1328,3.1952,0.0,0.0,0.0,0.0,0.0,0.0,0.0,0.0,0.0,0.0,0.0,2.7373,0.0,0.0,0.0,0.0,0.0,0.0,0.0,0.0,0.0,3.0014,3.0098,3.015,3.0164,3.0199,3.0226,3.0246,3.026,3.1116,3.2778,3.209,3.2007,3.2335,3.1384,3.0554,2.9754,2.9313,2.8625,2.786,2.795,2.801,2.7997,2.7636,2.7563,2.7553,2.6614,0.0,0.0,2.6775,2.6899,2.6899,2.6899,0.0,0.0,0.0,2.5609,2.5609,2.5609,2.6233,2.7088,2.7827,2.837,2.8957,2.9858,3.0053,3.017,3.0637,3.005,2.9567,0.0,0.0,0.0,0.0,0.0,0.0,0.0,0.0,0.0,0.0,0.0,0.0,0.0,0.0,0.0,0.0,0.0,2.643,2.643,2.7253,2.7724,2.7726,2.8587,2.9019,2.9022,2.9881,3.0311,3.0312,3.0703,3.1367,3.2226,3.2656,3.293,3.3046,3.3281,3.3476,3.3476,3.2539,3.1953,3.1562,3.1094,3.1445,3.2109,3.1211,3.1718,3.2772,0.0,0.0,0.0,0.0,0.0,0.0,0.0,0.0,0.0,0.0,0.0,0.0,0.0,0.0,0.0,0.0,0.0,0.0,0.0,0.0,0.0,3.0121,3.0171,3.0213,3.0246,3.001,3.003,3.0292,3.0107,3.1098,3.3179,3.307,3.366,3.477,3.3082,3.1747,3.0743,3.0147,2.9498,2.8926,2.877,2.8809,2.8888,2.833,2.8243,2.8298,2.7051,0.0,0.0,0.0,0.0,0.0,2.7601,2.7523,0.0,0.0,0.0,2.5688,2.5687,2.6157,2.6705,2.6939,2.7484,2.8186,2.9085,2.9436,2.9788,0.0,3.0177,0.0,0.0,0.0,0.0,0.0,0.0,0.0,0.0,0.0,0.0,0.0,0.0,0.0,0.0,0.0,0.0,0.0,0.0,2.7096,2.7331,2.8155,2.8626,2.8627,2.9488,2.992,2.9921,3.0585,3.0898,3.0898,3.1093,3.1678,3.2537,3.3316,3.4174,3.4956,3.4335,3.4297,3.4609,3.3359,3.2578,3.2108,3.1444,3.1715,3.2337,3.1478,3.2215,3.3576,0.0,0.0,0.0,0.0,0.0,0.0,0.0,0.0,0.0,0.0,0.0,0.0,0.0,2.9686,2.9389,2.8768,0.0,0.0,0.0,0.0,0.0,3.0181,3.0188,0.0,3.0286,2.9475,2.9475,3.0292,2.9556,3.0914,3.4196,3.345,3.4439,3.6763,3.5025,3.3359,3.1813,3.1774,3.1739,3.1623,3.0807,2.9596,2.8235,2.8199,0.0,0.0,0.0,0.0,0.0,0.0,0.0,0.0,0.0,0.0,2.8069,0.0,0.0,0.0,2.5688,2.5729,2.5966,2.6782,2.7016,2.7289,2.8186,2.9006,2.9592,2.9631,3.0255,0.0,0.0,0.0,0.0,0.0,0.0,0.0,0.0,0.0,0.0,0.0,0.0,0.0,0.0,0.0,0.0,0.0,0.0,2.7373,2.8194,2.9057,2.9528,2.953,3.0389,3.082,3.082,3.0898,3.0898,3.0898,3.1669,3.2476,3.3374,3.4081,3.492,3.5749,3.5813,3.543,3.4687,3.4609,3.3591,3.2092,3.2053,3.2498,3.3034,3.2172,3.2927,3.434,0.0,0.0,0.0,0.0,0.0,0.0,0.0,0.0,0.0,0.0,0.0,0.0,0.0,2.9847,2.9775,2.9612,2.9953,0.0,0.0,0.0,0.0,3.0266,3.0266,3.0286,3.0286,2.9979,3.0027,3.043,3.0137,3.1236,3.3571,3.3343,3.3728,3.4588,3.393,3.3008,3.1915,3.1379,3.0795,3.0289,3.0057,2.9552,2.8914,0.0,0.0,0.0,0.0,0.0,0.0,0.0,0.0,0.0,0.0,0.0,0.0,2.7415,2.6399,2.5694,2.5696,2.5698,2.5776,2.6087,2.6163,2.6395,2.7254,2.8149,2.8928,2.9475,3.0255,0.0,0.0,0.0,0.0,0.0,0.0,0.0,0.0,0.0,0.0,0.0,0.0,0.0,0.0,0.0,0.0,0.0,0.0,0.0,2.9135,2.9957,3.0428,3.0428,3.0742,3.0898,3.0898,3.0898,3.0898,3.0898,3.1706,3.2552,3.3412,3.4153,3.499,3.5814,3.5849,3.5706,3.5353,3.4807,3.4213,3.3572,3.3017,3.3312,3.3913,3.308,3.3803,3.515,0.0,0.0,0.0,0.0,0.0,0.0,0.0,0.0,0.0,0.0,0.0,0.0,0.0,0.0,3.0022,3.0121,3.0178,3.0219,3.0246,3.0208,3.0266,3.0305,3.0311,3.031,3.0381,2.9803,2.9867,3.0531,2.9984,3.0762,3.2813,3.2834,3.3015,3.3329,3.2989,3.2527,3.1971,3.1118,3.0574,3.0225,2.9473,2.9274,2.9411,0.0,0.0,0.0,0.0,0.0,0.0,0.0,0.0,0.0,0.0,0.0,0.0,0.0,2.7027,2.6557,2.6559,2.6364,2.6131,2.613,2.5932,2.5852,2.6436,2.745,2.8463,2.9046,0.0,0.0,0.0,0.0,0.0,0.0,0.0,0.0,0.0,0.0,0.0,0.0,0.0,0.0,0.0,0.0,0.0,0.0,0.0,0.0,3.0036,3.0584,3.0898,3.0859,3.0898,3.0897,3.0812,3.0856,3.0856,3.0851,3.195,3.2786,3.3371,3.4406,3.5231,3.5783,3.5783,3.5772,3.5772,3.5179,3.4736,3.4403,3.3835,3.3922,3.4318,3.3753,3.4438,3.5553,0.0,0.0,0.0,0.0,0.0,0.0,0.0,0.0,0.0,2.8474,0.0,0.0,0.0,0.0,0.0,3.0181,3.0195,3.0246,3.0292,3.0292,3.0311,3.031,0.0,0.0,3.0482,2.8896,2.8904,3.0616,2.8981,2.9485,3.1958,3.1958,3.245,3.3299,3.2402,3.2052,3.2013,3.1153,3.127,3.1779,0.0,2.8856,2.9599,0.0,0.0,0.0,2.9255,2.9021,0.0,2.9293,0.0,0.0,0.0,0.0,0.0,0.0,0.0,2.8281,0.0,0.0,0.0,2.703,2.6365,2.5739,2.5735,2.7064,2.8314,2.8305,0.0,0.0,0.0,0.0,0.0,0.0,0.0,0.0,0.0,0.0,0.0,0.0,0.0,0.0,0.0,0.0,0.0,0.0,0.0,2.9999,3.0858,3.0898,3.0857,3.08,3.0856,3.0812,3.0711,3.0747,3.0786,3.0747,3.2428,3.3204,3.3278,3.4938,3.5704,3.5704,3.5704,3.5745,3.5805,3.5791,3.5274,3.446,3.4433,3.4339,3.4238,3.4238,3.4757,3.55,0.0,0.0,0.0,0.0,0.0,0.0,0.0,0.0,2.8427,0.0,0.0,0.0,3.0063,3.0219,3.0246,3.0273,3.0273,3.0292,3.0292,3.0292,3.0346,3.0423,3.0428,3.0482,3.0579,3.0114,3.0153,3.0686,3.0219,3.0362,3.1141,3.1141,3.1304,3.1549,3.0687,3.0651,3.1203,3.0922,3.0255,2.9358,2.9288,2.9367,0.0,0.0,0.0,0.0,0.0,2.8906,2.9258,0.0,2.9803,3.0273,0.0,0.0,0.0,0.0,0.0,0.0,2.8175,0.0,0.0,0.0,0.0,0.0,0.0,0.0,2.8315,2.8314,0.0,0.0,0.0,0.0,0.0,0.0,0.0,0.0,0.0,0.0,0.0,0.0,0.0,0.0,0.0,0.0,0.0,0.0,3.0664,3.0624,3.0813,3.0796,3.0739,3.0728,3.0739,3.0734,3.0711,3.0722,3.1031,3.1639,3.27,3.3514,3.4167,3.5209,3.5704,3.5704,3.5643,3.5632,3.565,3.5645,3.5493,3.5251,3.5222,3.518,3.5136,3.5142,3.5276,3.55,0.0,0.0,0.0,0.0,0.0,0.0,2.9263,2.9496,2.968,0.0,0.0,0.0,3.017,3.0586,3.0682,3.0311,3.0311,3.033,3.0322,3.0375,3.0441,3.0516,3.0518,3.0583,3.0658,3.0305,3.0338,3.0781,3.0429,3.044,3.0848,3.0848,3.085,3.0891,3.0381,3.0031,2.9839,3.0147,2.995,0.0,2.8746,0.0,0.0,2.957,2.9375,0.0,0.0,0.0,3.0073,3.0012,3.0372,0.0,0.0,0.0,0.0,0.0,0.0,0.0,0.0,0.0,0.0,0.0,0.0,0.0,2.6508,2.734,2.8047,0.0,0.0,0.0,0.0,0.0,0.0,0.0,0.0,0.0,0.0,0.0,0.0,0.0,0.0,0.0,0.0,0.0,0.0,3.0809,3.0808,3.0801,3.0746,3.0724,3.0699,3.0675,3.0699,3.0689,3.0672,3.1008,3.1436,3.1948,3.3141,3.3968,3.4506,3.5294,3.5648,3.5648,3.562,3.5596,3.5546,3.5546,3.5572,3.5554,3.5515,3.5502,3.5495,3.5507,3.55,3.55,0.0,0.0,0.0,2.9808,3.0551,3.0889,3.0162,3.0866,3.1196,0.0,3.0452,3.0528,3.0561,3.1187,3.1322,3.0502,3.0387,3.0328,3.0402,3.0467,3.0495,3.0513,3.0595,3.0664,3.072,2.9977,2.9961,3.0771,2.999,2.9992,3.0777,3.0777,3.0777,3.0739,3.066,2.9762,2.8356,2.8902,0.0,3.0663,2.8241,2.8749,0.0,0.0,3.0855,3.0917,3.1658,3.1461,3.0792,3.0722,3.0732,0.0,0.0,0.0,0.0,0.0,3.0732,0.0,0.0,0.0,0.0,0.0,0.0,0.0,2.6377,2.7203,2.7875,0.0,0.0,0.0,0.0,0.0,0.0,0.0,0.0,0.0,0.0,0.0,0.0,0.0,0.0,0.0,0.0,3.0796,3.0747,3.0713,3.0704,3.0701,3.0701,3.0694,3.0706,3.0718,3.0703,3.0753,3.0868,3.1568,3.1956,3.2101,3.3654,3.4427,3.4543,3.5284,3.562,3.5614,3.5584,3.5554,3.549,3.5483,3.5483,3.5515,3.5514,3.55,3.55,3.55,3.55,3.55,0.0,0.0,2.9885,2.9864,3.0658,3.1208,3.1034,3.1828,3.2386,3.2285,3.2311,3.2397,3.2403,3.1969,3.1603,3.1455,3.0802,3.0419,3.0482,3.0491,3.0537,3.0647,3.0672,3.0741,3.0848,3.0693,3.0343,2.9839,2.9682,2.9682,2.984,2.984,2.984,2.9802,2.9137,2.8631,2.8203,2.6991,0.0,3.073,2.957,0.0,3.0898,3.0854,3.0805,3.0837,3.0929,3.0878,3.0722,0.0,3.0686,3.0625,0.0,0.0,0.0,0.0,0.0,0.0,0.0,0.0,0.0,0.0,0.0,0.0,2.8734,2.8931,2.8887,0.0,0.0,0.0,0.0,0.0,0.0,0.0,0.0,0.0,0.0,0.0,0.0,0.0,0.0,0.0,0.0,3.0722,3.072,3.0711,3.0667,3.0636,3.0636,3.0614,3.0914,3.1554,3.0953,3.1254,3.2604,3.2082,3.2513,3.3891,3.4174,3.4704,3.5361,3.5525,3.5584,3.5584,3.5554,3.5496,3.549,3.5489,3.5514,3.5514,3.55,3.55,3.55,3.55,3.55,3.55,2.968,2.9822,3.0065,3.053,3.1339,3.1949,3.1989,3.2776,3.3356,3.3386,3.3834,3.3851,3.2981,3.2923,3.2608,3.1819,3.1361,0.0,0.0,0.0,3.0634,3.0691,3.0753,3.0847,3.0894,3.0894,3.0699,3.0232,3.0232,3.0232,3.0233,3.0233,3.0234,3.0193,2.9765,2.9101,2.8237,2.8281,2.902,3.0091,2.9251,0.0,3.2012,3.1098,3.0999,3.1283,3.0831,3.0646,3.0581,3.0191,3.0296,0.0,0.0,3.032,3.0622,0.0,3.0587,3.0699,0.0,0.0,0.0,3.1753,0.0,0.0,0.0,2.9383,2.9069,2.7809,2.7857,2.8173,2.8178,0.0,0.0,0.0,0.0,0.0,0.0,0.0,0.0,0.0,0.0,0.0,3.0631,3.0667,3.0652,3.0658,3.0614,3.0784,3.1172,3.1201,3.156,3.2411,3.2063,3.2256,3.3107,3.3112,3.3532,3.4334,3.4743,3.5189,3.5602,3.5566,3.5554,3.5554,3.5515,3.5495,3.5495,3.5507,3.55,3.55,3.55,3.55,3.55,3.55,3.5731,3.6115,2.9905,2.9937,3.0197,3.0959,3.1813,3.2454,3.2707,0.0,3.4121,3.4481,3.5189,3.5219,3.4013,3.4275,3.4063,3.2919,0.0,0.0,0.0,0.0,0.0,3.075,3.085,3.0896,3.0896,3.0896,3.0818,3.0663,3.0663,3.0664,3.0664,3.0664,3.0702,3.0808,3.0856,3.0072,2.8807,3.0266,3.061,3.0143,0.0,3.0564,3.2878,3.1278,3.1206,3.1809,3.1099,3.0819,3.0728,2.9912,0.0,3.0474,2.986,3.009,0.0,0.0,0.0,0.0,0.0,0.0,0.0,0.0,0.0,3.1652,0.0,0.0,0.0,2.7729,2.7351,2.7512,2.8065,2.7603,0.0,0.0,0.0,0.0,0.0,0.0,0.0,0.0,0.0,0.0,0.0,3.0591,3.0603,3.0602,3.0752,3.1101,3.1753,3.1947,3.2449,3.33,3.3184,3.3262,3.361,3.4112,3.445,3.4544,3.5266,3.559,3.5566,3.5534,3.5592,3.5746,3.5745,3.5846,3.5962,3.5962,3.5962,3.5962,3.5808,3.5731,3.5731,3.5923,3.6385,3.6962,2.9916,3.0121,3.0202,3.0324,3.1047,3.1872,3.2651,0.0,3.4633,3.6204,3.6607,3.6936,3.7433,0.0,0.0,0.0,0.0,0.0,3.2959,0.0,0.0,3.0856,3.0898,3.0898,3.0898,3.0898,3.0508,2.9766,2.9766,2.9766,2.9766,2.9766,3.0156,3.0898,3.0848,3.0718,3.0518,3.0642,3.1523,0.0,3.1813,3.1741,0.0,3.0999,3.1164,3.188,3.1727,3.1647,3.1526,0.0,3.0539,3.0577,0.0,3.0539,3.0732,0.0,0.0,0.0,0.0,0.0,0.0,0.0,3.303,0.0,0.0,0.0,3.1037,2.9386,0.0,2.881,2.8155,0.0,0.0,0.0,0.0,0.0,0.0,0.0,0.0,0.0,0.0,0.0,0.0,3.0616,3.0612,3.0598,3.1255,3.1715,3.1792,3.2527,3.3339,3.4239,3.3494,3.3842,3.5394,3.4676,3.4698,3.5465,3.5489,3.5496,3.5496,3.5489,3.5892,3.6546,3.6546,3.7,3.7738,3.7738,3.7738,3.7623,3.6885,3.6577,3.6654,3.743,3.7777,3.7853,3.0073,3.0178,3.0366,3.087,3.128,3.1837,0.0,0.0,3.5866,3.6594,3.7238,3.7715,0.0,0.0,0.0,0.0,0.0,3.4172,0.0,0.0,0.0,0.0,0.0,0.0,0.0,3.1641,3.1211,3.0351,3.0351,3.0351,3.0351,3.0816,3.1235,3.1573,3.206,3.1953,3.1493,3.248,3.3028,0.0,0.0,0.0,0.0,3.2374,3.2279,3.2546,3.2,3.1792,3.1676,0.0,3.0598,0.0,0.0,0.0,0.0,0.0,0.0,0.0,0.0,0.0,0.0,0.0,0.0,0.0,0.0,0.0,3.2333,0.0,0.0,0.0,0.0,0.0,0.0,0.0,2.8629,0.0,0.0,0.0,0.0,0.0,0.0,0.0,0.0,0.0,0.0,0.0,3.0907,3.1521,3.2488,3.2914,3.3726,3.5129,3.4814,3.4919,3.5643,3.5245,3.5222,3.5527,3.5502,3.5515,3.5489,3.5507,3.5923,3.6692,3.6692,3.7199,3.8007,3.8007,3.8007,3.8007,3.8161,3.7892,3.7507,3.7853,3.8315,3.8661,2.9837,2.9882,3.0055,3.0713,3.0854,3.1341,0.0,0.0,3.6304,3.6986,3.7715,0.0,3.8835,3.8638,0.0,0.0,3.7588,3.6666,0.0,0.0,3.3007,0.0,0.0,0.0,0.0,0.0,3.1875,3.125,3.1249,3.1365,3.1599,3.2164,3.2524,3.2727,3.3095,3.3135,3.3006,3.4022,3.4233,3.3929,3.4572,3.4807,3.4626,3.3532,3.3107,3.303,3.2372,3.2295,3.2377,3.1565,3.1139,0.0,3.1217,0.0,0.0,0.0,0.0,0.0,3.3571,0.0,0.0,0.0,0.0,0.0,0.0,0.0,0.0,0.0,0.0,0.0,0.0,0.0,2.9171,0.0,0.0,0.0,0.0,0.0,0.0,0.0,0.0,0.0,0.0,0.0,0.0,3.0598,3.0791,3.156,3.303,3.3339,3.4156,3.5665,3.5698,3.5643,3.5587,3.557,3.5534,3.549,3.5515,3.5495,3.55,3.55,3.6077,3.7046,3.7046,3.7632,3.8593,3.8593,3.8593,3.8669,3.9292,3.9023,3.8301,3.8569,3.8908,3.9108,2.89,2.9053,2.9053,2.9091,2.9122,0.0,0.0,0.0,0.0,0.0,0.0,0.0,0.0,0.0,0.0,0.0,0.0,3.9414,3.8516,0.0,3.4258,0.0,0.0,3.3008,0.0,0.0,0.0,3.2148,3.2098,3.2476,3.3335,3.3295,3.3699,3.4478,3.3595,3.4101,3.5534,3.4754,3.4863,3.5632,3.5632,3.567,3.5472,0.0,3.3107,3.3107,3.3068,0.0,0.0,3.33,3.2449,0.0,0.0,0.0,0.0,0.0,0.0,0.0,0.0,0.0,0.0,3.5704,0.0,0.0,0.0,0.0,3.4118,0.0,0.0,0.0,0.0,0.0,3.1444,0.0,0.0,0.0,0.0,0.0,0.0,0.0,0.0,0.0,0.0,0.0,0.0,3.0598,3.1328,3.214,3.3068,3.3886,3.4781,3.5665,3.5637,3.5587,3.5587,3.5527,3.549,3.549,3.5482,3.55,3.55,3.55,3.6385,3.7969,3.7969,3.8761,4.0138,4.0138,4.0138,4.0138,4.0176,3.9688,3.9073,4.0076,3.9805,3.9018,2.8313,2.8703,2.9235,2.9754,2.9926,0.0,0.0,3.4977,0.0,0.0,0.0,0.0,0.0,4.4203,4.4334,0.0,0.0,4.2031,4.1172,3.8711,0.0,0.0,0.0,3.5309,0.0,0.0,0.0,0.0,3.2329,3.2476,3.3332,3.3855,3.4248,3.452,3.4748,3.5175,3.5679,3.5377,0.0,0.0,0.0,3.5704,3.551,0.0,0.0,3.4659,3.3494,3.3654,0.0,3.4737,3.3842,3.2914,3.435,3.4185,3.3589,3.4168,3.4345,0.0,0.0,0.0,3.4672,3.5264,0.0,0.0,0.0,0.0,0.0,0.0,0.0,0.0,0.0,0.0,0.0,0.0,0.0,0.0,0.0,0.0,0.0,0.0,0.0,0.0,0.0,0.0,0.0,3.0492,3.0298,3.0989,3.2943,3.3291,3.4141,3.557,3.5596,3.5584,3.5521,3.5502,3.543,3.53,3.5836,3.6031,3.5928,3.6621,3.7559,3.8601,3.8601,3.9226,4.0196,4.0012,3.9962,3.9962,3.9962,3.9741,3.9475,3.9441,3.8793,3.7775,2.8885,2.8973,2.9275,2.979,0.0,0.0,0.0,0.0,0.0,0.0,4.2515,0.0,4.6342,0.0,4.6366,0.0,4.5547,4.4336,4.2539,4.0585,0.0,3.7711,3.7367,0.0,0.0,0.0,0.0,0.0,0.0,3.3469,3.3741,3.4555,3.4942,3.4938,3.5155,3.54,3.5665,3.5361,3.5438,0.0,0.0,3.5704,0.0,0.0,3.4737,3.5549,0.0,3.4582,3.5433,3.6284,3.5626,3.4693,3.6129,3.577,3.4903,3.5521,3.5272,3.4812,3.4995,3.4773,0.0,3.5144,3.5246,0.0,3.5509,0.0,0.0,0.0,0.0,0.0,0.0,0.0,0.0,0.0,0.0,0.0,0.0,3.1514,0.0,0.0,0.0,0.0,0.0,0.0,2.9835,3.0052,2.9854,3.0693,3.2877,0.0,3.3803,3.554,3.5566,3.5528,3.5371,3.5395,3.5293,3.5089,3.591,3.6217,3.6139,3.711,3.8004,3.8785,3.8785,3.9241,3.9931,3.9742,3.9675,3.9675,3.9384,3.9226,3.9078,3.8857,3.8064,3.6938,3.0423,2.9819,0.0,0.0,3.1506,0.0,0.0,0.0,4.0697,0.0,4.4555,4.5816,4.7576,4.8514,4.8359,4.668,4.7226,0.0,4.2851,4.1746,0.0,0.0,3.7781,3.6851,3.5943,0.0,0.0,0.0,0.0,3.5258,3.4571,3.533,3.5704,3.5665,3.4781,3.4897,3.5704,3.4819,3.4974,3.582,3.582,3.5858,3.5858,3.582,3.5858,3.5858,3.5781,3.6284,3.7096,3.798,3.7671,3.7135,3.798,3.7135,3.6129,3.7704,3.7046,3.5963,3.6719,3.6267,3.5559,3.542,0.0,0.0,0.0,0.0,3.527,0.0,0.0,0.0,0.0,0.0,0.0,0.0,0.0,0.0,0.0,0.0,0.0,0.0,0.0,0.0,0.0,3.0485,3.0137,2.939,3.0027,3.1168,0.0,0.0,3.3786,3.5527,3.5534,3.5402,3.5192,3.5229,3.5119,3.4889,3.5788,3.6185,3.6147,3.7007,3.785,3.8628,3.8628,3.8961,3.9514,3.9489,3.9489,3.9414,3.8626,3.824,3.8091,3.8324,3.7659,3.6533,3.0538,3.1818,3.327,0.0,3.42,3.5218,0.0,0.0,0.0,0.0,4.6364,4.7811,5.0156,5.0625,5.0546,5.0062,4.9086,0.0,0.0,0.0,0.0,4.0354,4.0114,3.9225,3.7603,3.7018,0.0,3.5975,0.0,3.4972,3.5398,3.5604,3.5704,3.5665,3.4781,3.5206,3.6555,3.5704,3.6207,3.756,3.756,3.7947,0.0,0.0,3.7947,3.834,3.7058,3.7135,3.798,3.8876,3.8605,3.8025,3.8876,3.8438,3.7629,3.7938,3.7697,3.7324,3.7292,3.7024,3.6758,3.6853,3.6236,3.5712,0.0,0.0,0.0,0.0,0.0,0.0,0.0,0.0,0.0,0.0,0.0,0.0,0.0,0.0,0.0,3.3202,0.0,0.0,0.0,3.0023,2.9527,3.0067,2.9631,3.0375,0.0,0.0,0.0,3.5247,3.5278,3.519,3.4963,3.5581,3.5475,3.4716,3.6716,3.7251,3.6608,3.8188,3.906,3.926,3.926,3.9375,3.9489,3.9285,3.9165,3.911,3.8887,3.8359,3.7669,3.7121,3.6721,3.6371,3.2722,0.0,0.0,3.741,0.0,0.0,4.06,0.0,0.0,4.6405,4.7617,0.0,5.0664,5.117,5.12,5.0752,4.9484,0.0,4.687,0.0,0.0,4.149,4.0727,3.967,3.8218,3.7743,0.0,3.5234,0.0,3.5162,3.4582,3.5356,3.5704,3.5665,3.5206,3.5472,3.6361,3.6284,3.6787,3.7671,3.8057,0.0,0.0,3.8798,3.9075,3.9423,3.8798,3.8682,3.8914,3.9771,3.9696,3.9309,3.9779,3.9301,3.8652,3.8931,3.8469,3.7907,3.8023,3.7667,3.7299,3.7251,3.676,3.6344,3.6603,3.6262,3.5758,0.0,0.0,0.0,0.0,0.0,0.0,0.0,0.0,0.0,0.0,0.0,0.0,0.0,3.3269,0.0,0.0,3.0963,3.0305,3.0699,3.0244,3.0918,0.0,0.0,0.0,3.5034,3.5406,3.5496,3.5299,3.6071,3.6189,3.5549,3.7256,3.7778,3.7275,3.8661,3.9324,3.9324,3.9324,3.9324,3.9311,3.911,3.9036,3.903,3.9327,3.8922,3.8133,3.836,3.7985,3.7331,3.5879,0.0,0.0,0.0,0.0,0.0,0.0,4.3827,0.0,4.7461,0.0,4.9492,5.0273,5.0807,5.0824,5.0028,0.0,4.779,4.6329,4.4433,4.3063,4.2276,4.0599,3.9307,3.856,3.845,0.0,0.0,0.0,3.5654,3.329,3.4919,3.5693,3.5693,3.5577,3.5654,3.5886,3.6814,3.7278,3.7472,3.82,3.851,3.8587,3.9372,3.9643,3.9747,4.0481,4.0301,3.9771,4.0545,4.0674,4.0545,4.0492,3.9946,3.9427,4.0091,3.9231,3.8231,3.8842,3.8365,3.7633,3.739,3.7166,3.7032,3.7125,3.7038,3.674,3.6047,3.6066,3.583,0.0,0.0,0.0,0.0,0.0,0.0,0.0,0.0,0.0,0.0,0.0,0.0,0.0,0.0,3.1628,3.1278,3.1407,0.0,0.0,0.0,0.0,3.4832,3.5645,0.0,3.5765,0.0,3.6957,3.6718,3.7634,3.8005,3.7931,3.8711,3.9082,3.9082,3.9106,3.9106,3.9092,3.9007,3.8979,3.9024,3.9725,3.9553,3.9133,4.0687,4.0288,3.9019,3.7739,0.0,0.0,0.0,0.0,4.4219,4.6367,4.7422,4.8164,4.8594,5.0,5.1014,5.1114,5.0561,5.0135,4.9844,4.838,0.0,0.0,0.0,0.0,4.3086,4.148,4.0507,4.0352,3.9655,3.829,0.0,0.0,0.0,3.4124,3.5133,3.5635,3.5596,3.4851,3.5308,3.6704,3.8279,0.0,3.9952,4.0107,4.0184,4.0191,4.041,4.0402,4.033,4.0514,4.0545,4.0584,4.0739,4.0765,4.0733,4.0559,4.0392,4.0223,4.0156,3.9929,3.9681,3.9597,3.9354,3.9124,3.9076,3.839,3.775,3.7866,3.7318,3.6708,3.6571,3.6559,3.6522,3.6322,0.0,0.0,0.0,0.0,0.0,0.0,0.0,0.0,0.0,0.0,0.0,0.0,0.0,0.0,0.0,0.0,0.0,0.0,0.0,0.0,0.0,3.5426,0.0,0.0,0.0,3.7389,3.6705,3.8191,3.8525,3.7931,3.8711,3.9082,3.912,3.905,3.9021,3.9007,3.8935,3.8877,3.8929,3.9632,3.9822,3.9879,4.1479,4.1479,4.0581,4.0456,0.0,0.0,0.0,0.0,0.0,0.0,5.0654,0.0,4.964,5.0187,5.0489,4.997,4.99,4.9885,4.9815,4.8159,4.6926,4.6464,4.4446,4.3092,4.2667,4.1429,0.0,4.0089,3.9663,3.8375,3.6247,0.0,0.0,3.3649,3.4999,3.5353,3.4946,3.5442,3.6098,3.6941,0.0,0.0,4.0002,4.0308,4.0431,4.0423,4.0312,4.0245,4.0192,4.0172,4.0262,4.0337,4.05,4.0485,4.0422,4.0309,4.0203,4.0081,4.002,3.9905,3.9747,3.9647,3.9502,3.9389,3.9311,3.8894,3.8552,3.8582,3.8282,3.7819,3.7411,3.7299,3.7201,3.6779,3.6718,0.0,0.0,0.0,0.0,0.0,0.0,0.0,0.0,0.0,0.0,0.0,0.0,0.0,0.0,0.0,0.0,0.0,0.0,0.0,0.0,0.0,0.0,0.0,0.0,0.0,3.7931,3.8711,3.8897,3.8525,3.8934,3.9082,3.912,3.9078,3.9036,3.9016,3.9342,3.9451,3.9485,4.0687,4.0891,4.0671,4.1846,4.2066,4.1662,0.0,4.3945,0.0,0.0,4.8281,0.0,5.1334,5.2886,5.3079,5.0811,5.0382,4.9892,4.8954,4.9269,4.9448,4.9225,4.7617,4.6264,4.5568,4.3943,4.2699,4.2035,4.1229,4.0436,3.9663,3.9663,3.8485,0.0,0.0,0.0,0.0,3.5379,3.5777,3.5178,0.0,0.0,0.0,0.0,3.9376,3.9515,4.0006,4.0174,4.0165,3.9976,3.9886,3.9865,3.9875,3.9855,3.9855,4.0063,4.011,4.0062,4.0022,3.9867,3.9728,3.9773,3.9658,3.9502,3.9477,3.9389,3.9272,3.9124,3.9082,3.9082,3.9082,3.9082,3.8934,3.8302,3.8154,3.7968,3.7336,3.7188,0.0,0.0,0.0,0.0,0.0,0.0,0.0,0.0,0.0,0.0,0.0,0.0,0.0,0.0,0.0,0.0,0.0,0.0,0.0,0.0,0.0,3.7076,3.7894,0.0,3.9082,0.0,3.9082,3.9082,3.9082,3.9082,3.9069,3.9092,3.9041,3.9133,3.9239,3.9746,4.0073,4.0304,4.1735,4.1809,4.1205,4.1992,4.2066,4.1809,0.0,0.0,0.0,0.0,0.0,0.0,5.2345,5.3241,5.3432,5.2415,5.1561,5.0715,4.9793,4.9038,4.8293,4.7421,4.5807,4.4787,4.471,4.3092,4.2073,4.2001,4.1183,4.0629,4.0479,4.0479,3.9616,0.0,0.0,0.0,0.0,0.0,0.0,0.0,0.0,0.0,0.0,3.8938,3.9327,3.9758,3.9823,3.9851,3.9851,3.9882,3.9835,3.9702,3.9709,3.963,3.9525,3.9549,3.9731,3.9906,3.9786,3.972,3.9664,3.9549,3.9526,3.9477,3.935,3.9311,3.9272,3.9124,3.9082,3.9082,3.9082,3.9082,3.9082,3.9008,3.8971,3.8971,3.8897,3.8897,3.8897,0.0,0.0,0.0,0.0,0.0,0.0,0.0,0.0,0.0,0.0,0.0,0.0,0.0,0.0,0.0,0.0,0.0,0.0,3.5454,0.0,3.7076,3.7894,3.8711,0.0,3.9082,3.9082,3.9082,3.9082,3.9082,3.9078,3.9007,3.8935,3.9275,3.9837,3.9895,4.0341,4.1058,4.1956,4.1809,4.1205,4.1992,4.1368,4.023,0.0,0.0,0.0,0.0,0.0,0.0,0.0,5.4606,5.4319,5.3922,5.2741,5.1347,4.9892,4.8948,4.8075,4.7161,4.5568,4.4362,4.3866,4.2685,4.1776,4.126,4.0854,4.0633,4.0591,4.0591,4.0037,0.0,0.0,0.0,0.0,0.0,0.0,0.0,0.0,3.8644,3.8746,3.9269,3.9599,3.9786,3.969,3.9621,3.9609,3.9477,3.9377,3.935,3.9326,3.9324,3.9259,3.9259,3.9439,3.9641,3.9609,3.9525,3.9464,3.9514,3.9389,3.9272,3.9298,3.9232,3.9151,3.9096,3.9082,3.9082,3.9082,3.9082,3.9082,3.9082,3.9082,3.9082,3.9082,3.9082,3.9082,0.0,0.0,0.0,0.0,0.0,0.0,0.0,0.0,0.0,0.0,0.0,0.0,0.0,0.0,0.0,0.0,0.0,0.0,3.6197,0.0,3.7299,3.8599,3.8934,3.9082,3.9082,3.9082,3.9092,3.905,3.905,3.9007,3.8958,3.9364,3.9694,4.0037,4.0944,4.1515,4.1846,4.2176,4.1809,4.1058,4.0928,4.0451,3.9937,5.0703,0.0,5.1984,0.0,5.4114,5.4169,5.5584,5.5055,5.4372,5.4094,5.2831,5.1386,4.9877,4.8701,4.7657,4.6806,4.5413,4.4207,4.3349,4.2472,4.1594,4.0724,4.0626,0.0,4.0554,4.0554,4.0269,3.9669,3.9677,0.0,0.0,0.0,0.0,0.0,3.8965,3.9117,3.8899,3.9482,3.9652,3.9571,3.9427,3.9389,3.9363,3.9165,3.9082,3.9082,3.9082,3.9082,3.9082,3.9082,3.9219,3.9389,3.9389,3.9324,3.9259,3.9363,3.9245,3.911,3.9205,3.9165,3.9082,3.9082,3.9082,3.9082,3.9082,3.9082,3.9082,3.9082,3.9082,3.9082,3.9082,3.9082,3.9082,3.9082,0.0,0.0,0.0,0.0,0.0,0.0,0.0,0.0,0.0,0.0,0.0,0.0,0.0,0.0,0.0,0.0,0.0,0.0,0.0,0.0,0.0,3.9092,3.9078,3.9078,3.9064,3.9021,3.8964,3.9194,3.9261,3.9254,4.001,4.0457,4.0751,4.1862,4.2433,4.2653,4.2653,4.2029,4.1022,4.0451,4.0084,3.99,5.2344,5.331,5.4418,5.6174,5.6294,5.587,5.5054,5.4117,5.3196,5.2345,5.1447,5.0596,4.9784,4.8159,4.6767,4.5884,4.5065,4.42,4.3245,4.2458,4.1574,0.0,0.0,4.0554,4.0516,4.0516,4.0516,4.0477,0.0,0.0,4.0561,0.0,4.0082,3.9882,3.9829,3.9675,3.9477,3.9514,3.935,3.9096,3.9133,3.9096,3.9096,3.9082,3.9082,3.9082,3.9082,3.9082,3.9082,3.9082,3.9082,3.9096,3.9096,3.9082,3.9082,3.9096,3.9082,3.9082,3.9082,3.9082,3.9082,3.9082,3.9082,3.9082,3.9082,3.9082,3.9082,3.9082,3.9082,3.9082,3.9082,3.9082,3.9082,3.9082,0.0,0.0,0.0,0.0,0.0,0.0,0.0,0.0,3.4179,0.0,0.0,0.0,0.0,0.0,0.0,0.0,0.0,3.6681,3.7448,0.0,3.9082,3.9036,3.8993,3.8993,3.8921,3.8892,3.8929,3.9651,3.9973,4.0047,4.0777,4.1552,4.2286,4.2286,4.2763,4.3515,4.3515,4.2506,4.1095,4.1095,4.0598,3.99,5.3069,5.3699,5.434,5.5994,5.623,5.6064,5.5723,5.4923,5.4271,5.4,5.2182,5.0581,4.9707,4.8647,4.7417,0.0,4.5022,4.4158,0.0,4.2934,4.2371,4.1532,4.2002,4.2294,4.2277,4.17,4.1393,4.1393,0.0,0.0,0.0,3.9964,3.9808,3.9621,3.9597,3.9452,3.9232,3.9232,3.9165,3.9082,3.9082,3.9082,3.9082,3.9082,3.9082,3.9082,3.9082,3.9082,3.9082,3.9082,3.9491,3.9974,3.9974,3.9565,3.9082,3.9082,3.9082,3.9082,3.9082,3.9082,3.9082,3.9082,3.9082,3.9082,3.9082,3.9082,3.9082,3.9082,3.9082,3.9082,3.9082,3.9082,3.9082,3.9082,3.9082,0.0,0.0,0.0,0.0,0.0,0.0,0.0,0.0,3.5887,0.0,0.0,0.0,0.0,0.0,0.0,0.0,0.0,3.7701,0.0,3.8964,3.8935,3.9217,3.9734,3.9719,3.997,4.0462,4.0662,4.074,4.0813,4.1589,4.2066,4.2323,4.2873,4.3294,4.3441,4.291,4.2359,4.1846,4.1279,4.0948,4.0818,5.3532,5.4329,5.5019,5.6032,5.5902,5.5559,5.5139,5.4349,5.373,5.3395,5.1926,5.0441,4.9241,4.8639,0.0,4.592,4.5256,4.4584,4.3698,4.3589,4.3219,4.2394,4.2832,4.3085,4.3085,0.0,0.0,4.212,4.1055,4.0235,3.9702,3.9702,3.9573,3.935,3.935,3.9259,3.9082,3.9082,3.9305,3.9602,3.9602,3.9751,4.0011,3.9714,3.9602,3.9602,3.9602,3.9602,3.964,3.9937,4.0383,4.0828,4.0828,4.0494,3.9974,3.9677,3.9788,3.99,3.9268,3.9342,3.9491,3.9194,3.9082,3.9082,3.9082,3.9082,3.9082,3.9082,3.9082,3.9082,3.9082,3.9082,3.9082,3.9082,3.9082,3.9082,3.9082,0.0,0.0,0.0,0.0,0.0,0.0,3.6666,0.0,0.0,0.0,0.0,0.0,0.0,0.0,3.7729,3.8062,0.0,3.9335,3.9047,3.9401,4.0508,4.0477,4.0725,4.1176,4.1422,4.1535,4.1609,4.2396,4.2763,4.28,4.3277,4.3515,4.3461,4.3277,4.302,4.2727,4.2543,4.2453,4.2526,5.3779,5.5041,0.0,0.0,5.5459,0.0,5.373,5.284,5.1973,5.1112,5.088,5.0168,4.8467,4.8227,4.7532,4.5835,0.0,0.0,0.0,4.446,4.4097,4.3201,4.3222,4.3261,4.3261,4.2939,4.2733,4.2647,4.1646,4.0623,3.9665,3.9665,3.9487,3.9268,3.9268,3.9268,3.9268,3.9268,3.9751,4.0457,4.0457,4.094,4.1497,4.0769,4.0457,4.0457,4.0457,4.0457,4.0606,4.1349,4.1646,4.1683,4.1683,4.172,4.1609,4.0731,4.1029,4.1237,3.964,3.9825,4.0285,3.9417,3.9231,3.9268,3.9268,3.9231,3.9194,3.9194,3.912,3.9082,3.9082,3.9082,3.9082,3.9082,3.9082,3.9082,3.9082,0.0,0.0,0.0,0.0,0.0,0.0,3.6758,3.6693,0.0,0.0,0.0,0.0,0.0,3.7843,3.7843,3.8619,3.9431,4.0169,3.9356,3.9731,4.1261,4.1291,4.1279,4.1279,4.2103,4.2433,4.2433,4.3277,4.3625,4.3571,4.3662,4.3662,4.3735,4.4488,4.4342,4.3772,4.4525,4.4764,4.4764,0.0,0.0,5.5343,5.5954,5.5857,5.5418,5.4538,5.3614,5.2738,5.1919,5.0645,4.9431,4.8347,4.7645,4.678,4.5706,4.5654,4.5307,4.438,4.4949,4.4949,4.4047,4.4442,4.4699,4.4699,4.3781,4.2908,4.2071,4.182,4.1515,4.1092,4.1092,4.1086,4.1014,4.1014,4.1014,4.1014,4.1014,4.1126,4.1311,4.1311,4.1423,4.1571,4.1386,4.1311,4.1311,4.1311,4.1311,4.1349,4.1534,4.2017,4.25,4.25,4.2946,4.3132,4.172,4.146,4.1386,4.0383,4.068,4.1126,4.0308,4.0531,4.1014,4.1014,4.0531,4.0085,4.0085,3.9565,3.9082,3.9082,3.9082,3.9082,3.9082,3.9082,3.9082,3.9082,3.8359,0.0,0.0,3.7979,3.7715,3.8293,3.8352,3.8065,0.0,0.0,0.0,0.0,3.9044,3.9406,3.9451,4.0225,4.0725,4.0866,4.0666,4.1054,4.2062,4.267,4.291,4.2947,4.3754,4.3791,4.3277,4.4709,4.4966,4.4452,4.5076,4.5333,4.5333,4.5553,4.5516,4.5333,4.5553,4.5626,4.5626,5.3487,5.4506,5.5474,5.5938,5.5323,5.4601,5.4137,5.3,5.2008,5.1518,5.0631,4.9572,4.8286,4.8093,4.7391,4.5748,4.5612,4.5428,4.494,4.5325,4.532,4.4729,4.5033,4.5148,4.5,4.4284,4.3412,4.2324,4.2324,4.2066,4.1609,4.1609,4.1609,4.1609,4.1609,4.1609,4.1609,4.1609,4.1794,4.2129,4.2129,4.2352,4.2649,4.2277,4.2129,4.2129,4.2129,4.2129,4.2203,4.2575,4.2983,4.3355,4.3355,4.3652,4.3838,4.2946,4.2686,4.2426,4.1274,4.1534,4.1943,4.1126,4.1274,4.1609,4.1609,4.1237,4.0954,4.0954,4.0271,3.9677,3.9677,3.938,3.9082,3.9082,3.9082,3.9082,3.9082,3.867,0.0,3.9474,3.9149,3.9128,3.9881,3.9939,3.9725,3.9228,0.0,0.0,3.979,4.0561,4.0834,4.0499,4.0919,4.1291,4.1662,4.2029,4.2433,4.2873,4.3644,4.4232,4.4599,4.5039,4.5002,4.4635,4.5516,4.5663,4.5296,4.5736,4.5883,4.5957,4.6324,4.6471,4.6507,4.6874,4.6764,4.6507,5.3522,5.4731,5.5777,5.5777,5.4428,5.3272,5.3117,5.1883,5.0892,5.073,5.0576,4.9903,4.8279,4.8663,4.8077,4.5742,4.555,4.555,4.555,4.5485,4.539,4.5159,4.5115,4.4966,4.4739,4.4465,4.3899,4.2983,4.2983,4.2612,4.1943,4.1943,4.1943,4.1943,4.1943,4.1943,4.1943,4.1943,4.2352,4.2983,4.2983,4.3392,4.3949,4.3243,4.2983,4.2983,4.2983,4.2983,4.3095,4.3763,4.3986,4.3986,4.3986,4.3986,4.3986,4.3986,4.3986,4.3689,4.2203,4.2277,4.2686,4.2092,4.1943,4.1943,4.1943,4.1869,4.1757,4.1757,4.1014,4.0397,4.0397,3.9677,3.9082,3.9082,3.9069,3.9069,3.9069,0.0,3.948,4.0111,4.0281,4.0554,4.1114,4.1172,4.1156,4.1111,4.1046,4.1049,0.0,4.1877,4.1952,4.1294,4.1309,4.1728,4.2427,4.3139,4.3577,4.3777,4.4326,4.5059,4.5883,4.603,4.5993,4.592,4.6177,4.6177,4.6104,4.6214,4.625,4.6324,4.7003,4.7222,4.7238,4.7953,4.777,4.7274,5.3417,5.4211,5.4889,5.4814,5.3986,5.307,5.229,5.1944,5.1491,5.0798,5.0067,4.9211,4.8202,4.7625,4.6752,4.5388,4.5253,4.5253,4.5253,4.5033,4.4896,4.4861,4.465,4.4506,4.4465,4.4192,4.3958,4.3801,4.3801,4.3763,4.3615,4.3615,4.3615,4.3615,4.3615,4.3615,4.3615,4.3615,4.3689,4.3801,4.3801,4.3875,4.3986,4.3875,4.3801,4.3801,4.3801,4.3801,4.3838,4.3949,4.3986,4.3986,4.3986,4.3986,4.3986,4.3986,4.3986,4.3801,4.2872,4.2686,4.2909,4.3503,4.3615,4.3615,4.3615,4.3095,4.2612,4.2612,4.1423,4.0397,4.0397,3.9677,3.9082,3.9082,3.9064,3.9007,3.9007,0.0,3.9887,4.0019,4.0583,4.0997,4.1128,4.1128,4.1111,4.1095,4.0737,4.0799,4.1488,4.1909,4.2092,4.204,4.239,4.2806,4.313,4.3274,4.3852,4.4933,4.4409,4.48,4.592,4.6599,4.6526,4.5993,4.7352,4.7535,4.6966,4.7645,4.7939,4.7939,4.8086,4.7872,4.7549,4.7658,4.7622,4.7549,5.2708,5.3377,5.3928,5.3909,5.3157,5.2425,5.2001,5.1558,5.1125,5.075,5.0366,4.9702,4.8687,4.8639,4.8045,4.6449,4.6607,4.6392,4.5483,4.5041,4.4739,4.4585,4.4465,4.4313,4.4177,4.4064,4.3986,4.3986,4.3986,4.3986,4.3986,4.3986,4.3986,4.3986,4.3986,4.3986,4.3986,4.3986,4.3986,4.3986,4.3986,4.3986,4.3986,4.3986,4.3986,4.3986,4.3986,4.3986,4.3986,4.3986,4.3986,4.3986,4.3986,4.3986,4.3986,4.3986,4.3986,4.3912,4.354,4.3466,4.354,4.3912,4.3986,4.3986,4.3986,4.3726,4.3466,4.3466,4.25,4.1683,4.1683,4.1014,4.0457,4.0457,4.0385,0.0,0.0,4.0554,4.083,4.1261,4.1396,4.1627,4.203,4.1851,4.1866,4.2245,4.2073,4.2315,4.314,4.3292,4.3401,4.3422,4.3238,4.3504,4.4315,4.4315,4.4971,4.6205,4.5896,4.6095,4.6842,4.7186,4.703,4.6478,4.7238,4.7346,4.7021,4.7383,4.7563,4.7548,4.7797,4.7777,4.7611,4.7611,4.7337,4.6969,5.2085,5.2579,5.2974,5.2993,5.2232,5.1625,5.1625,5.1087,5.0654,5.0604,5.0594,5.0176,4.911,4.9487,4.9149,4.744,4.7622,4.7245,4.5881,4.5232,4.4732,4.4336,4.4322,4.4206,4.3986,4.3986,4.3986,4.3986,4.3986,4.3986,4.3986,4.3986,4.3986,4.3986,4.3986,4.3986,4.3986,4.3986,4.3986,4.3986,4.3986,4.3986,4.3986,4.3986,4.3986,4.3986,4.3986,4.3986,4.3986,4.3986,4.3986,4.3986,4.3986,4.3986,4.3986,4.3986,4.3986,4.3986,4.3986,4.3986,4.3986,4.3986,4.3986,4.3986,4.3986,4.3986,4.3986,4.3986,4.3355,4.2797,4.2797,4.2129,4.1609,4.1594,0.0,0.0,0.0,4.1498,4.1735,4.2296,4.2338,4.2522,4.3099,4.2889,4.298,4.3565,4.3493,4.3677,4.4316,4.4417,4.4526,4.4703,4.4037,4.4092,4.4972,4.4993,4.5621,4.6904,4.6686,4.6892,4.7442,4.7442,4.7248,4.689,4.689,4.689,4.689,4.689,4.689,4.6913,4.7291,4.7378,4.7291,4.7291,4.6874,4.6378,5.203,5.205,5.2069,5.202,5.1318,5.0789,5.0789,5.075,5.0594,5.0302,5.023,4.9912,4.9087,4.8795,4.8249,4.7378,4.7109,4.684,4.6466,4.5685,4.4904,4.4055,4.4017,4.4017,4.3986,4.3986,4.3986,4.3986,4.3986,4.3986,4.3986,4.3986,4.3986,4.3986,4.3986,4.3986,4.3986,4.3986,4.3986,4.3986,4.3986,4.3986,4.3986,4.3986,4.3986,4.3986,4.3986,4.3986,4.3986,4.3986,4.3986,4.3986,4.3986,4.3986,4.3986,4.3986,4.3986,4.3986,4.3986,4.3986,4.3986,4.3986,4.3986,4.3986,4.3986,4.3986,4.3986,4.3986,4.3355,4.2797,4.2797,4.2129,4.1594,4.1504,0.0,0.0,4.1235,4.1801,4.2266,4.2286,4.3214,4.3857,4.3894,4.4175,4.4363,4.4399,4.3999,4.3781,4.3851,4.4143,4.4655,4.5295,4.4953,4.4677,4.4385,4.4385,4.4983,4.6233,4.5517,4.5799,4.6936,4.6936,4.6913,4.689,4.689,4.689,4.689,4.689,4.689,4.689,4.6913,4.6695,4.6291,4.6291,4.6255,4.622,5.1212,5.1203,5.1193,5.1174,5.0894,5.0624,5.0402,5.038,5.0291,5.0,4.9962,4.9783,4.9291,4.9126,4.8867,4.8331,4.8189,4.7872,4.7272,4.6958,4.5955,4.4098,4.3986,4.3986,4.3986,4.3986,4.3986,4.3986,4.3986,4.3986,4.3986,4.3986,4.3986,4.3986,4.3986,4.3986,4.3986,4.3986,4.3986,4.3986,4.3986,4.3986,4.3986,4.3986,4.3986,4.3986,4.3986,4.3986,4.3986,4.3986,4.3986,4.3986,4.3986,4.3986,4.4098,4.4655,4.5175,4.5547,4.5547,4.4804,4.3986,4.3986,4.3986,4.3986,4.3986,4.3986,4.4135,4.4692,4.4544,4.4491,4.4872,4.4724,4.4506,4.4445,0.0,4.3231,4.3689,4.3282,4.3123,4.3608,4.3793,4.389,4.389,4.3768,4.3873,4.4338,4.4202,4.4322,4.4748,4.488,4.5087,4.5397,4.5269,4.53,4.5476,4.5476,4.5863,4.6649,4.6329,4.6259,4.6459,4.6459,4.6291,4.597,4.597,4.597,4.597,4.597,4.597,4.5995,4.6339,4.6363,4.6228,4.6228,4.6228,4.6144,5.0712,5.0712,5.0692,5.0584,5.0525,5.0451,5.0123,5.0087,4.9987,4.9707,4.9665,4.9579,4.943,4.9305,4.9193,4.9061,4.8959,4.8667,4.811,4.759,4.655,4.4878,4.4544,4.4395,4.4395,4.4135,4.3986,4.3986,4.3986,4.3986,4.3986,4.3986,4.3986,4.3986,4.3986,4.3986,4.3986,4.3986,4.3986,4.3986,4.3986,4.3986,4.3986,4.3986,4.3986,4.3986,4.3986,4.3986,4.3986,4.3986,4.3986,4.3986,4.3986,4.4172,4.4581,4.5435,4.6067,4.6513,4.6513,4.5658,4.4804,4.4804,4.4804,4.4804,4.4804,4.4751,4.4867,4.5514,4.5473,4.5486,4.597,4.59,4.5773,4.5699,4.4941,4.4505,4.4987,4.4262,4.3864,4.4434,4.4294,4.4132,4.4132,4.3999,4.4078,4.4596,4.463,4.4872,4.5363,4.5397,4.5397,4.5397,4.5397,4.5607,4.5955,4.5955,4.6094,4.6435,4.6435,4.6266,4.5955,4.5955,4.5752,4.5397,4.5397,4.5397,4.5397,4.5397,4.5397,4.545,4.5803,4.6095,4.6304,4.6025,4.6095,4.6253,5.0702,5.0702,5.0594,5.0241,5.0195,5.0111,4.9844,4.9803,4.9693,4.9446,4.9399,4.9399,4.9399,4.9094,4.9027,4.9368,4.9094,4.889,4.889,4.7404,4.6513,4.6513,4.5732,4.5287,4.5287,4.4432,4.4023,4.3986,4.3986,4.3986,4.3986,4.3986,4.3986,4.3986,4.3986,4.3986,4.3986,4.3986,4.3986,4.3986,4.3986,4.3986,4.3986,4.3986,4.3986,4.4023,4.4023,4.4023,4.4023,4.4023,4.4023,4.4023,4.4023,4.4618,4.5472,4.629,4.6513,4.6513,4.6513,4.6513,4.6513,4.6513,4.6513,4.6513,4.6513,4.6409,4.6305,4.6305,4.5865,4.551,4.551,4.5064,4.4677,4.4643,4.4586,4.4578,4.4506,4.4484,4.4484,4.452,4.4729,4.4879,4.4879,4.5199,4.5397,4.5397,4.5397,4.5397,4.5397,4.5397,4.5432,4.5397,4.5397,4.5397,4.5397,4.5397,4.5397,4.5397,4.5397,4.5397,4.5397,4.5397,4.5397,4.5397,4.5397,4.5397,4.5432,4.5397,4.5397,4.5432,4.5432,4.588,4.6527,4.5707,4.5914,4.6493,5.038,5.0347,5.0279,4.9974,4.9936,4.983,4.9573,4.9514,4.9408,4.9094,4.9044,4.9044,4.9044,4.8959,4.8925,4.9044,4.8959,4.889,4.889,4.8444,4.8184,4.8184,4.6327,4.5287,4.5287,4.5026,4.4618,4.3986,4.3986,4.3986,4.3986,4.3986,4.3986,4.3986,4.3986,4.3986,4.3986,4.3986,4.3986,4.3986,4.3986,4.3986,4.3986,4.3986,4.4395,4.4915,4.4915,4.5287,4.5732,4.5732,4.5732,4.5732,4.5732,4.6327,4.7033,4.7256,4.7738,4.8184,4.8184,4.8133,4.7839,4.6756,4.6513,4.6496,4.6392,4.6322,4.6436,4.6959,4.6672,4.6474,4.7017,4.6663,4.6283,4.6222,4.5465,4.5093,4.5611,4.4914,4.4565,4.5062,4.5189,4.5251,4.5251,4.5338,4.5397,4.5397,4.5914,4.6224,4.6224,4.6707,4.6776,4.6259,4.6224,4.6224,4.6224,4.5673,4.5397,4.5397,4.5397,4.5397,4.5397,4.5397,4.5707,4.619,4.5638,4.6017,4.6948,4.6431,4.6535,4.7017,4.7017,4.681,4.6631,4.6914,4.681,4.6665,5.023,5.0123,4.9962,4.9679,4.9622,4.9558,4.9257,4.9209,4.9127,4.8907,4.889,4.889,4.889,4.889,4.889,4.889,4.889,4.889,4.889,4.8593,4.8556,4.889,4.7181,4.6104,4.5769,4.5472,4.4878,4.3986,4.3986,4.3986,4.3986,4.3986,4.3986,4.3986,4.3986,4.3986,4.3986,4.3986,4.3986,4.3986,4.3986,4.4209,4.4506,4.4506,4.5026,4.5769,4.5769,4.6104,4.6513,4.6513,4.6513,4.655,4.6884,4.7313,4.7725,4.8059,4.8432,4.875,4.855,4.8477,4.8181,4.704,4.6911,4.702,4.6948,4.6746,4.6705,4.7158,4.7083,4.706,4.7519,4.7405,4.7258,4.7231,4.657,4.6228,4.6716,4.6118,4.5803,4.6259,4.6293,4.6293,4.6293,4.6293,4.6293,4.6293,4.6741,4.7044,4.7044,4.7431,4.75,4.7052,4.7044,4.7044,4.7044,4.6535,4.6293,4.6293,4.6017,4.6017,4.6293,4.6017,4.6293,4.701,4.65,4.6845,4.7672,4.7217,4.732,4.7672,4.7672,4.7603,4.7493,4.7638,4.7603,4.7465,5.0147,4.9936,4.9665,4.9377,4.9368,4.9257,4.8942,4.889,4.889,4.889,4.889,4.889,4.889,4.889,4.889,4.889,4.889,4.889,4.889,4.8221,4.8147,4.889,4.8184,4.7441,4.6624,4.5881,4.5101,4.4209,4.4209,4.4209,4.4209,4.4135,4.4135,4.4135,4.4135,4.4061,4.4023,4.4172,4.4172,4.4135,4.4172,4.4692,4.5398,4.5398,4.5918,4.6624,4.6624,4.6661,4.6682,4.6682,4.6682,4.683,4.7573,4.771,4.7771,4.8511,4.8605,4.8402,4.7959,4.7822,4.772,4.7371,4.7578,4.785,4.7891,4.7478,4.7107,4.7178,4.731,4.7397,4.7397,4.756,4.7672,4.7672,4.7672,4.7672,4.7672,4.7672,4.7672,4.7672,4.7672,4.7672,4.7672,4.7672,4.7672,4.7672,4.7741,4.7775,4.7775,4.7844,4.7844,4.7775,4.7775,4.7775,4.7775,4.7775,4.7775,4.7672,4.7044,4.7052,4.7672,4.701,4.7113,4.7775,4.7707,4.7775,4.7907,4.781,4.7838,4.7913,4.7913,4.8258,4.8706,4.812,4.8293,4.8706,4.9674,4.9529,4.9377,4.9061,4.901,4.8976,4.8907,4.889,4.889,4.889,4.889,4.889,4.889,4.889,4.889,4.889,4.889,4.889,4.889,4.8742,4.8704,4.889,4.8742,4.8259,4.7441,4.7256,4.6773,4.5955,4.5955,4.5955,4.5955,4.5324,4.5026,4.5026,4.5026,4.4655,4.4098,4.5398,4.5584,4.5064,4.5695,4.6067,4.6252,4.6252,4.6735,4.7441,4.7441,4.7799,4.8286,4.8178,4.816,4.8197,4.8345,4.8144,4.7858,4.806,4.7802,4.7455,4.7406,4.7263,4.732,4.7868,4.7689,4.7548,4.8012,4.8012,4.8077,4.8603,4.8417,4.8179,4.8179,4.7908,4.7672,4.7672,4.7672,4.7672,4.7672,4.7672,4.7672,4.7672,4.7672,4.7672,4.7672,4.7672,4.7672,4.7672,4.8224,4.8568,4.8568,4.9183,4.9189,4.8568,4.8568,4.8568,4.8568,4.8568,4.8258,4.7672,4.7562,4.7534,4.7672,4.7534,4.7844,4.8534,4.7948,4.839,4.9459,4.881,4.8913,4.9493,4.9493,4.9189,4.8844,4.9355,4.9189,4.8844,4.9363,4.9273,4.911,4.8925,4.889,4.889,4.889,4.889,4.889,4.889,4.889,4.889,4.889,4.889,4.889,4.889,4.889,4.889,4.889,4.889,4.889,4.889,4.889,4.8704,4.8296,4.8259,4.7701,4.6513,4.6513,4.6513,4.6475,4.6067,4.5881,4.5881,4.5881,4.5621,4.5249,4.6141,4.6252,4.5918,4.6327,4.6735,4.707,4.7019,4.7522,4.8227,4.8137,4.8399,4.866,4.8364,4.8288,4.8213,4.7982,4.772,4.7455,4.7455,4.7277,4.699,4.6763,4.6932,4.7204,4.7396,4.7455,4.7631,4.8169,4.813,4.807,4.8415,4.8531,4.8595,4.8595,4.8723,4.8803,4.8803,4.8803,4.8803,4.8803,4.8803,4.8803,4.8803,4.8803,4.8803,4.8803,4.8803,4.8803,4.8803,4.912,4.9361,4.9361,4.9769,4.9804,4.939,4.9361,4.9361,4.9361,4.9361,4.9183,4.8803,4.8396,4.843,4.8803,4.8396,4.8637,4.9355,4.8976,4.9252,4.9976,4.9562,4.9631,5.0011,5.0011,4.9735,4.9424,4.9838,4.9735,4.943,4.9149,4.9094,4.889,4.889,4.889,4.889,4.889,4.889,4.889,4.889,4.889,4.889,4.889,4.889,4.889,4.889,4.889,4.889,4.889,4.889,4.889,4.889,4.889,4.889,4.889,4.889,4.8259,4.6921,4.6921,4.6921,4.6921,4.6773,4.6698,4.6698,4.6698,4.6624,4.6513,4.6773,4.681,4.6719,4.683,4.7313,4.789,4.7804,4.8194,4.8769,4.8569,4.8421,4.8252,4.7842,4.7756,4.7658,4.7277,4.6999,4.6864,4.6864,4.6763,4.6578,4.6344,4.6685,4.7142,4.7015,4.7431,4.8017,4.8547,4.8271,4.7913,4.8051,4.8568,4.8982,4.8982,4.9562,5.0011,5.0011,5.0011,5.0011,5.0011,5.0011,5.0011,5.0011,5.0011,5.0011,5.0011,5.0011,5.0011,5.0011,5.0011,5.0011,5.0011,5.0011,5.0011,5.0011,5.0011,5.0011,5.0011,5.0011,5.0011,5.0011,4.9292,4.9327,4.9976,4.9321,4.939,5.0011,5.0011,5.0011,5.0011,5.0011,5.0011,5.0011,5.0011,5.0011,5.0011,5.0011,5.0011,5.0011,4.8841,4.8925,4.889,4.889,4.889,4.889,4.889,4.889,4.889,4.889,4.889,4.889,4.889,4.889,4.889,4.889,4.889,4.889,4.889,4.889,4.889,4.889,4.889,4.889,4.889,4.889,4.8779,4.8593,4.8593,4.8593,4.8556,4.785,4.7553,4.7553,4.7553,4.7144,4.6587,4.7999,4.8133,4.7525,4.8229,4.8545,4.8656,4.853,4.8604,4.8733,4.8175,4.7679,4.7198,4.7093,4.7026,4.7026,4.6959,4.6637,4.6315,4.6315,4.597,4.5745,4.6385,4.6635,4.6988,4.8217,4.8568,4.8838,4.9614,4.9177,4.8844,4.9562,4.9769,4.9838,4.9838,4.9942,5.0011,5.0011,5.0011,5.0011,5.0011,5.0011,5.0011,5.0011,5.0011,5.0011,5.0011,5.0011,5.0011,5.0011,5.0011,5.0011,5.0011,5.0011,5.0011,5.0011,5.0011,5.0011,5.0011,5.0011,5.0011,5.0011,4.9907,4.9907,5.0011,4.9907,4.9907,5.0011,5.0011,5.0011,5.0011,5.0011,5.0011,5.0011,5.0011,5.0011,5.0011,5.0011,5.0011,5.0011,4.8702,4.889,4.889,4.889,4.889,4.889,4.889,4.889,4.889,4.889,4.889,4.889,4.889,4.889,4.889,4.889,4.889,4.889,4.889,4.889,4.889,4.889,4.889,4.889,4.889,4.889,4.889,4.889,4.889,4.889,4.889,4.8556,4.837,4.837,4.8318,4.8133,4.7887,4.8578,4.8617,4.8323,4.8656,4.8587,4.8288,4.8192,4.7999,4.7761,4.7428,4.7146,4.6878,4.659,4.6507,4.653,4.667,4.6593,4.6517,4.6934,4.6888,4.6741,4.7121,4.7527,4.7982,4.8637,4.912,4.9562,4.9942,4.9735,4.9597,4.9942,5.0011,5.0011,5.0011,5.0011,5.0011,5.0011,5.0011,5.0011,5.0011,5.0011,5.0011,5.0011,5.0011,5.0011,5.0011,5.0011,5.0011,5.0011,5.0011,5.0011,5.0011,5.0011,5.0011,5.0011,5.0011,5.0011,5.0011,5.0011,5.0011,5.0011,5.0011,5.0011,5.0011,5.0011,5.0011,5.0011,5.0011,5.0011,5.0011,5.0011,5.0011,5.0011,5.0011,5.0011,5.0011,5.0011,5.0011,5.0011]}]]